<?xml version="1.0" encoding="UTF-8" standalone="no" ?>
<gpx xmlns="http://www.topografix.com/GPX/1/1" xmlns:xsi="http://www.w3.org/2001/XMLSchema-instance" xsi:schemaLocation="http://www.topografix.com/GPX/1/1 http://www.topografix.com/GPX/1/1/gpx.xsd" version="1.1" creator="VisuGPX - https://www.visugpx.com">
  <metadata>
    <name>Beaurecueil chemin Roussette 12-01-2021</name>
    <desc><![CDATA[Très facile.]]></desc>
  </metadata>
  <trk>
    <name><![CDATA[track-12-01-2021_15h47-27s]]></name>
    <trkseg>
      <trkpt lat="43.49657" lon="5.55754">
        <ele>335</ele>
        <time>2021-01-12T14:02:45Z</time>
      </trkpt>
      <trkpt lat="43.49659" lon="5.55753">
        <ele>335</ele>
        <time>2021-01-12T14:02:49Z</time>
      </trkpt>
      <trkpt lat="43.49658" lon="5.55756">
        <ele>335</ele>
        <time>2021-01-12T14:03:37Z</time>
      </trkpt>
      <trkpt lat="43.49659" lon="5.55754">
        <ele>338</ele>
        <time>2021-01-12T14:05:43Z</time>
      </trkpt>
      <trkpt lat="43.49661" lon="5.55751">
        <ele>338</ele>
        <time>2021-01-12T14:05:49Z</time>
      </trkpt>
      <trkpt lat="43.49662" lon="5.55749">
        <ele>339</ele>
        <time>2021-01-12T14:05:52Z</time>
      </trkpt>
      <trkpt lat="43.49664" lon="5.55746">
        <ele>339</ele>
        <time>2021-01-12T14:05:55Z</time>
      </trkpt>
      <trkpt lat="43.49666" lon="5.55745">
        <ele>338</ele>
        <time>2021-01-12T14:05:59Z</time>
      </trkpt>
      <trkpt lat="43.49668" lon="5.55744">
        <ele>338</ele>
        <time>2021-01-12T14:06:01Z</time>
      </trkpt>
      <trkpt lat="43.4967" lon="5.55742">
        <ele>339</ele>
        <time>2021-01-12T14:06:04Z</time>
      </trkpt>
      <trkpt lat="43.4967" lon="5.5574">
        <ele>338</ele>
        <time>2021-01-12T14:06:06Z</time>
      </trkpt>
      <trkpt lat="43.4967" lon="5.55736">
        <ele>339</ele>
        <time>2021-01-12T14:06:09Z</time>
      </trkpt>
      <trkpt lat="43.4967" lon="5.55733">
        <ele>339</ele>
        <time>2021-01-12T14:06:11Z</time>
      </trkpt>
      <trkpt lat="43.4967" lon="5.5573">
        <ele>339</ele>
        <time>2021-01-12T14:06:13Z</time>
      </trkpt>
      <trkpt lat="43.4967" lon="5.55727">
        <ele>339</ele>
        <time>2021-01-12T14:06:16Z</time>
      </trkpt>
      <trkpt lat="43.49672" lon="5.55724">
        <ele>339</ele>
        <time>2021-01-12T14:06:19Z</time>
      </trkpt>
      <trkpt lat="43.49673" lon="5.55722">
        <ele>340</ele>
        <time>2021-01-12T14:06:22Z</time>
      </trkpt>
      <trkpt lat="43.49674" lon="5.55719">
        <ele>339</ele>
        <time>2021-01-12T14:06:24Z</time>
      </trkpt>
      <trkpt lat="43.49674" lon="5.55717">
        <ele>340</ele>
        <time>2021-01-12T14:06:26Z</time>
      </trkpt>
      <trkpt lat="43.49675" lon="5.55713">
        <ele>339</ele>
        <time>2021-01-12T14:06:29Z</time>
      </trkpt>
      <trkpt lat="43.49674" lon="5.55711">
        <ele>339</ele>
        <time>2021-01-12T14:06:31Z</time>
      </trkpt>
      <trkpt lat="43.49674" lon="5.55707">
        <ele>339</ele>
        <time>2021-01-12T14:06:34Z</time>
      </trkpt>
      <trkpt lat="43.49674" lon="5.55704">
        <ele>340</ele>
        <time>2021-01-12T14:06:37Z</time>
      </trkpt>
      <trkpt lat="43.49674" lon="5.55701">
        <ele>340</ele>
        <time>2021-01-12T14:06:39Z</time>
      </trkpt>
      <trkpt lat="43.49674" lon="5.55698">
        <ele>340</ele>
        <time>2021-01-12T14:06:41Z</time>
      </trkpt>
      <trkpt lat="43.49673" lon="5.55696">
        <ele>340</ele>
        <time>2021-01-12T14:06:43Z</time>
      </trkpt>
      <trkpt lat="43.49674" lon="5.55693">
        <ele>340</ele>
        <time>2021-01-12T14:06:46Z</time>
      </trkpt>
      <trkpt lat="43.49674" lon="5.5569">
        <ele>339</ele>
        <time>2021-01-12T14:06:49Z</time>
      </trkpt>
      <trkpt lat="43.49674" lon="5.55687">
        <ele>340</ele>
        <time>2021-01-12T14:06:52Z</time>
      </trkpt>
      <trkpt lat="43.49675" lon="5.55684">
        <ele>339</ele>
        <time>2021-01-12T14:06:59Z</time>
      </trkpt>
      <trkpt lat="43.49676" lon="5.55681">
        <ele>339</ele>
        <time>2021-01-12T14:07:01Z</time>
      </trkpt>
      <trkpt lat="43.49677" lon="5.55679">
        <ele>339</ele>
        <time>2021-01-12T14:07:03Z</time>
      </trkpt>
      <trkpt lat="43.49679" lon="5.55676">
        <ele>340</ele>
        <time>2021-01-12T14:07:05Z</time>
      </trkpt>
      <trkpt lat="43.4968" lon="5.55674">
        <ele>340</ele>
        <time>2021-01-12T14:07:07Z</time>
      </trkpt>
      <trkpt lat="43.49681" lon="5.55671">
        <ele>340</ele>
        <time>2021-01-12T14:07:09Z</time>
      </trkpt>
      <trkpt lat="43.49681" lon="5.55667">
        <ele>339</ele>
        <time>2021-01-12T14:07:12Z</time>
      </trkpt>
      <trkpt lat="43.49682" lon="5.55664">
        <ele>340</ele>
        <time>2021-01-12T14:07:15Z</time>
      </trkpt>
      <trkpt lat="43.49683" lon="5.55661">
        <ele>340</ele>
        <time>2021-01-12T14:07:18Z</time>
      </trkpt>
      <trkpt lat="43.49684" lon="5.55658">
        <ele>339</ele>
        <time>2021-01-12T14:07:21Z</time>
      </trkpt>
      <trkpt lat="43.49685" lon="5.55655">
        <ele>339</ele>
        <time>2021-01-12T14:07:23Z</time>
      </trkpt>
      <trkpt lat="43.49685" lon="5.55652">
        <ele>340</ele>
        <time>2021-01-12T14:07:25Z</time>
      </trkpt>
      <trkpt lat="43.49686" lon="5.5565">
        <ele>340</ele>
        <time>2021-01-12T14:07:27Z</time>
      </trkpt>
      <trkpt lat="43.49688" lon="5.55647">
        <ele>339</ele>
        <time>2021-01-12T14:07:30Z</time>
      </trkpt>
      <trkpt lat="43.49688" lon="5.55644">
        <ele>338</ele>
        <time>2021-01-12T14:07:32Z</time>
      </trkpt>
      <trkpt lat="43.49688" lon="5.55641">
        <ele>338</ele>
        <time>2021-01-12T14:07:34Z</time>
      </trkpt>
      <trkpt lat="43.49688" lon="5.55638">
        <ele>338</ele>
        <time>2021-01-12T14:07:36Z</time>
      </trkpt>
      <trkpt lat="43.49689" lon="5.55634">
        <ele>338</ele>
        <time>2021-01-12T14:07:39Z</time>
      </trkpt>
      <trkpt lat="43.49689" lon="5.55631">
        <ele>338</ele>
        <time>2021-01-12T14:07:42Z</time>
      </trkpt>
      <trkpt lat="43.49689" lon="5.55629">
        <ele>338</ele>
        <time>2021-01-12T14:07:44Z</time>
      </trkpt>
      <trkpt lat="43.49689" lon="5.55625">
        <ele>337</ele>
        <time>2021-01-12T14:07:47Z</time>
      </trkpt>
      <trkpt lat="43.4969" lon="5.55623">
        <ele>338</ele>
        <time>2021-01-12T14:07:49Z</time>
      </trkpt>
      <trkpt lat="43.49691" lon="5.5562">
        <ele>338</ele>
        <time>2021-01-12T14:07:52Z</time>
      </trkpt>
      <trkpt lat="43.49691" lon="5.55617">
        <ele>337</ele>
        <time>2021-01-12T14:07:55Z</time>
      </trkpt>
      <trkpt lat="43.49691" lon="5.55613">
        <ele>337</ele>
        <time>2021-01-12T14:07:58Z</time>
      </trkpt>
      <trkpt lat="43.49692" lon="5.55611">
        <ele>339</ele>
        <time>2021-01-12T14:08:00Z</time>
      </trkpt>
      <trkpt lat="43.49693" lon="5.55608">
        <ele>338</ele>
        <time>2021-01-12T14:08:02Z</time>
      </trkpt>
      <trkpt lat="43.49694" lon="5.55606">
        <ele>338</ele>
        <time>2021-01-12T14:08:04Z</time>
      </trkpt>
      <trkpt lat="43.49694" lon="5.55603">
        <ele>338</ele>
        <time>2021-01-12T14:08:06Z</time>
      </trkpt>
      <trkpt lat="43.49695" lon="5.55601">
        <ele>338</ele>
        <time>2021-01-12T14:08:08Z</time>
      </trkpt>
      <trkpt lat="43.49696" lon="5.55598">
        <ele>338</ele>
        <time>2021-01-12T14:08:10Z</time>
      </trkpt>
      <trkpt lat="43.49695" lon="5.55595">
        <ele>338</ele>
        <time>2021-01-12T14:08:12Z</time>
      </trkpt>
      <trkpt lat="43.49695" lon="5.55592">
        <ele>337</ele>
        <time>2021-01-12T14:08:14Z</time>
      </trkpt>
      <trkpt lat="43.49696" lon="5.55589">
        <ele>336</ele>
        <time>2021-01-12T14:08:16Z</time>
      </trkpt>
      <trkpt lat="43.49696" lon="5.55586">
        <ele>336</ele>
        <time>2021-01-12T14:08:18Z</time>
      </trkpt>
      <trkpt lat="43.49697" lon="5.55584">
        <ele>336</ele>
        <time>2021-01-12T14:08:20Z</time>
      </trkpt>
      <trkpt lat="43.49697" lon="5.55581">
        <ele>337</ele>
        <time>2021-01-12T14:08:22Z</time>
      </trkpt>
      <trkpt lat="43.49698" lon="5.55578">
        <ele>337</ele>
        <time>2021-01-12T14:08:24Z</time>
      </trkpt>
      <trkpt lat="43.49699" lon="5.55576">
        <ele>337</ele>
        <time>2021-01-12T14:08:26Z</time>
      </trkpt>
      <trkpt lat="43.497" lon="5.55574">
        <ele>337</ele>
        <time>2021-01-12T14:08:28Z</time>
      </trkpt>
      <trkpt lat="43.497" lon="5.55571">
        <ele>337</ele>
        <time>2021-01-12T14:08:30Z</time>
      </trkpt>
      <trkpt lat="43.49701" lon="5.55568">
        <ele>337</ele>
        <time>2021-01-12T14:08:32Z</time>
      </trkpt>
      <trkpt lat="43.49701" lon="5.55564">
        <ele>337</ele>
        <time>2021-01-12T14:08:34Z</time>
      </trkpt>
      <trkpt lat="43.49702" lon="5.55561">
        <ele>336</ele>
        <time>2021-01-12T14:08:36Z</time>
      </trkpt>
      <trkpt lat="43.49703" lon="5.55558">
        <ele>336</ele>
        <time>2021-01-12T14:08:39Z</time>
      </trkpt>
      <trkpt lat="43.49703" lon="5.55555">
        <ele>337</ele>
        <time>2021-01-12T14:08:41Z</time>
      </trkpt>
      <trkpt lat="43.49703" lon="5.55552">
        <ele>337</ele>
        <time>2021-01-12T14:08:43Z</time>
      </trkpt>
      <trkpt lat="43.49704" lon="5.55549">
        <ele>337</ele>
        <time>2021-01-12T14:08:46Z</time>
      </trkpt>
      <trkpt lat="43.49704" lon="5.55546">
        <ele>338</ele>
        <time>2021-01-12T14:08:49Z</time>
      </trkpt>
      <trkpt lat="43.49705" lon="5.55544">
        <ele>338</ele>
        <time>2021-01-12T14:08:51Z</time>
      </trkpt>
      <trkpt lat="43.49707" lon="5.55541">
        <ele>338</ele>
        <time>2021-01-12T14:08:54Z</time>
      </trkpt>
      <trkpt lat="43.49708" lon="5.55538">
        <ele>337</ele>
        <time>2021-01-12T14:08:56Z</time>
      </trkpt>
      <trkpt lat="43.49709" lon="5.55536">
        <ele>337</ele>
        <time>2021-01-12T14:08:58Z</time>
      </trkpt>
      <trkpt lat="43.49709" lon="5.55532">
        <ele>336</ele>
        <time>2021-01-12T14:09:00Z</time>
      </trkpt>
      <trkpt lat="43.4971" lon="5.55529">
        <ele>336</ele>
        <time>2021-01-12T14:09:02Z</time>
      </trkpt>
      <trkpt lat="43.4971" lon="5.55526">
        <ele>335</ele>
        <time>2021-01-12T14:09:04Z</time>
      </trkpt>
      <trkpt lat="43.4971" lon="5.55523">
        <ele>335</ele>
        <time>2021-01-12T14:09:06Z</time>
      </trkpt>
      <trkpt lat="43.49711" lon="5.55521">
        <ele>335</ele>
        <time>2021-01-12T14:09:08Z</time>
      </trkpt>
      <trkpt lat="43.49712" lon="5.55518">
        <ele>335</ele>
        <time>2021-01-12T14:09:10Z</time>
      </trkpt>
      <trkpt lat="43.49712" lon="5.55515">
        <ele>335</ele>
        <time>2021-01-12T14:09:12Z</time>
      </trkpt>
      <trkpt lat="43.49712" lon="5.55511">
        <ele>335</ele>
        <time>2021-01-12T14:09:15Z</time>
      </trkpt>
      <trkpt lat="43.49712" lon="5.55508">
        <ele>336</ele>
        <time>2021-01-12T14:09:17Z</time>
      </trkpt>
      <trkpt lat="43.49713" lon="5.55505">
        <ele>335</ele>
        <time>2021-01-12T14:09:19Z</time>
      </trkpt>
      <trkpt lat="43.49713" lon="5.55502">
        <ele>335</ele>
        <time>2021-01-12T14:09:22Z</time>
      </trkpt>
      <trkpt lat="43.49713" lon="5.555">
        <ele>336</ele>
        <time>2021-01-12T14:09:24Z</time>
      </trkpt>
      <trkpt lat="43.49713" lon="5.55497">
        <ele>336</ele>
        <time>2021-01-12T14:09:26Z</time>
      </trkpt>
      <trkpt lat="43.49714" lon="5.55494">
        <ele>336</ele>
        <time>2021-01-12T14:09:29Z</time>
      </trkpt>
      <trkpt lat="43.49713" lon="5.55492">
        <ele>336</ele>
        <time>2021-01-12T14:09:31Z</time>
      </trkpt>
      <trkpt lat="43.49715" lon="5.55489">
        <ele>336</ele>
        <time>2021-01-12T14:09:33Z</time>
      </trkpt>
      <trkpt lat="43.49716" lon="5.55486">
        <ele>337</ele>
        <time>2021-01-12T14:09:35Z</time>
      </trkpt>
      <trkpt lat="43.49716" lon="5.55483">
        <ele>337</ele>
        <time>2021-01-12T14:09:38Z</time>
      </trkpt>
      <trkpt lat="43.49716" lon="5.5548">
        <ele>336</ele>
        <time>2021-01-12T14:09:40Z</time>
      </trkpt>
      <trkpt lat="43.49715" lon="5.55478">
        <ele>336</ele>
        <time>2021-01-12T14:09:42Z</time>
      </trkpt>
      <trkpt lat="43.49714" lon="5.55475">
        <ele>336</ele>
        <time>2021-01-12T14:09:44Z</time>
      </trkpt>
      <trkpt lat="43.49712" lon="5.55472">
        <ele>335</ele>
        <time>2021-01-12T14:09:47Z</time>
      </trkpt>
      <trkpt lat="43.49711" lon="5.55469">
        <ele>334</ele>
        <time>2021-01-12T14:09:50Z</time>
      </trkpt>
      <trkpt lat="43.49711" lon="5.55466">
        <ele>334</ele>
        <time>2021-01-12T14:09:52Z</time>
      </trkpt>
      <trkpt lat="43.49711" lon="5.55463">
        <ele>335</ele>
        <time>2021-01-12T14:09:55Z</time>
      </trkpt>
      <trkpt lat="43.49711" lon="5.55459">
        <ele>335</ele>
        <time>2021-01-12T14:09:58Z</time>
      </trkpt>
      <trkpt lat="43.49711" lon="5.55456">
        <ele>335</ele>
        <time>2021-01-12T14:10:00Z</time>
      </trkpt>
      <trkpt lat="43.4971" lon="5.55453">
        <ele>336</ele>
        <time>2021-01-12T14:10:03Z</time>
      </trkpt>
      <trkpt lat="43.4971" lon="5.55451">
        <ele>337</ele>
        <time>2021-01-12T14:10:05Z</time>
      </trkpt>
      <trkpt lat="43.4971" lon="5.55448">
        <ele>337</ele>
        <time>2021-01-12T14:10:07Z</time>
      </trkpt>
      <trkpt lat="43.49711" lon="5.55445">
        <ele>336</ele>
        <time>2021-01-12T14:10:09Z</time>
      </trkpt>
      <trkpt lat="43.49711" lon="5.55442">
        <ele>335</ele>
        <time>2021-01-12T14:10:12Z</time>
      </trkpt>
      <trkpt lat="43.49712" lon="5.55439">
        <ele>334</ele>
        <time>2021-01-12T14:10:14Z</time>
      </trkpt>
      <trkpt lat="43.49712" lon="5.55436">
        <ele>336</ele>
        <time>2021-01-12T14:10:17Z</time>
      </trkpt>
      <trkpt lat="43.49712" lon="5.55432">
        <ele>336</ele>
        <time>2021-01-12T14:10:20Z</time>
      </trkpt>
      <trkpt lat="43.49712" lon="5.5543">
        <ele>336</ele>
        <time>2021-01-12T14:10:23Z</time>
      </trkpt>
      <trkpt lat="43.49712" lon="5.55426">
        <ele>336</ele>
        <time>2021-01-12T14:10:26Z</time>
      </trkpt>
      <trkpt lat="43.49712" lon="5.55423">
        <ele>336</ele>
        <time>2021-01-12T14:10:28Z</time>
      </trkpt>
      <trkpt lat="43.49713" lon="5.5542">
        <ele>336</ele>
        <time>2021-01-12T14:10:31Z</time>
      </trkpt>
      <trkpt lat="43.49713" lon="5.55418">
        <ele>336</ele>
        <time>2021-01-12T14:10:33Z</time>
      </trkpt>
      <trkpt lat="43.49714" lon="5.55415">
        <ele>336</ele>
        <time>2021-01-12T14:10:36Z</time>
      </trkpt>
      <trkpt lat="43.49715" lon="5.55412">
        <ele>336</ele>
        <time>2021-01-12T14:10:38Z</time>
      </trkpt>
      <trkpt lat="43.49717" lon="5.55409">
        <ele>336</ele>
        <time>2021-01-12T14:10:40Z</time>
      </trkpt>
      <trkpt lat="43.49717" lon="5.55407">
        <ele>336</ele>
        <time>2021-01-12T14:10:42Z</time>
      </trkpt>
      <trkpt lat="43.49716" lon="5.55404">
        <ele>335</ele>
        <time>2021-01-12T14:10:44Z</time>
      </trkpt>
      <trkpt lat="43.49715" lon="5.55401">
        <ele>336</ele>
        <time>2021-01-12T14:10:47Z</time>
      </trkpt>
      <trkpt lat="43.49717" lon="5.55398">
        <ele>336</ele>
        <time>2021-01-12T14:10:50Z</time>
      </trkpt>
      <trkpt lat="43.49717" lon="5.55395">
        <ele>336</ele>
        <time>2021-01-12T14:10:52Z</time>
      </trkpt>
      <trkpt lat="43.49718" lon="5.55392">
        <ele>336</ele>
        <time>2021-01-12T14:10:54Z</time>
      </trkpt>
      <trkpt lat="43.49719" lon="5.5539">
        <ele>336</ele>
        <time>2021-01-12T14:10:56Z</time>
      </trkpt>
      <trkpt lat="43.4972" lon="5.55388">
        <ele>335</ele>
        <time>2021-01-12T14:10:58Z</time>
      </trkpt>
      <trkpt lat="43.49721" lon="5.55385">
        <ele>335</ele>
        <time>2021-01-12T14:11:00Z</time>
      </trkpt>
      <trkpt lat="43.49721" lon="5.55382">
        <ele>335</ele>
        <time>2021-01-12T14:11:03Z</time>
      </trkpt>
      <trkpt lat="43.49722" lon="5.55379">
        <ele>335</ele>
        <time>2021-01-12T14:11:05Z</time>
      </trkpt>
      <trkpt lat="43.49723" lon="5.55376">
        <ele>335</ele>
        <time>2021-01-12T14:11:07Z</time>
      </trkpt>
      <trkpt lat="43.49723" lon="5.55374">
        <ele>333</ele>
        <time>2021-01-12T14:11:09Z</time>
      </trkpt>
      <trkpt lat="43.49724" lon="5.55371">
        <ele>333</ele>
        <time>2021-01-12T14:11:11Z</time>
      </trkpt>
      <trkpt lat="43.49724" lon="5.55368">
        <ele>334</ele>
        <time>2021-01-12T14:11:13Z</time>
      </trkpt>
      <trkpt lat="43.49725" lon="5.55365">
        <ele>334</ele>
        <time>2021-01-12T14:11:16Z</time>
      </trkpt>
      <trkpt lat="43.49727" lon="5.55362">
        <ele>335</ele>
        <time>2021-01-12T14:11:18Z</time>
      </trkpt>
      <trkpt lat="43.49728" lon="5.5536">
        <ele>335</ele>
        <time>2021-01-12T14:11:20Z</time>
      </trkpt>
      <trkpt lat="43.49728" lon="5.55356">
        <ele>336</ele>
        <time>2021-01-12T14:11:23Z</time>
      </trkpt>
      <trkpt lat="43.49729" lon="5.55353">
        <ele>336</ele>
        <time>2021-01-12T14:11:26Z</time>
      </trkpt>
      <trkpt lat="43.49729" lon="5.55349">
        <ele>337</ele>
        <time>2021-01-12T14:11:30Z</time>
      </trkpt>
      <trkpt lat="43.4973" lon="5.55347">
        <ele>336</ele>
        <time>2021-01-12T14:11:32Z</time>
      </trkpt>
      <trkpt lat="43.4973" lon="5.55343">
        <ele>337</ele>
        <time>2021-01-12T14:11:34Z</time>
      </trkpt>
      <trkpt lat="43.4973" lon="5.5534">
        <ele>337</ele>
        <time>2021-01-12T14:11:36Z</time>
      </trkpt>
      <trkpt lat="43.4973" lon="5.55336">
        <ele>337</ele>
        <time>2021-01-12T14:11:39Z</time>
      </trkpt>
      <trkpt lat="43.49731" lon="5.55331">
        <ele>336</ele>
        <time>2021-01-12T14:11:44Z</time>
      </trkpt>
      <trkpt lat="43.49732" lon="5.55327">
        <ele>335</ele>
        <time>2021-01-12T14:11:47Z</time>
      </trkpt>
      <trkpt lat="43.49734" lon="5.55324">
        <ele>335</ele>
        <time>2021-01-12T14:11:49Z</time>
      </trkpt>
      <trkpt lat="43.49735" lon="5.55322">
        <ele>335</ele>
        <time>2021-01-12T14:11:51Z</time>
      </trkpt>
      <trkpt lat="43.49735" lon="5.55319">
        <ele>335</ele>
        <time>2021-01-12T14:11:53Z</time>
      </trkpt>
      <trkpt lat="43.49736" lon="5.55316">
        <ele>335</ele>
        <time>2021-01-12T14:11:55Z</time>
      </trkpt>
      <trkpt lat="43.49737" lon="5.55313">
        <ele>335</ele>
        <time>2021-01-12T14:11:58Z</time>
      </trkpt>
      <trkpt lat="43.49738" lon="5.55309">
        <ele>334</ele>
        <time>2021-01-12T14:12:02Z</time>
      </trkpt>
      <trkpt lat="43.49739" lon="5.55306">
        <ele>335</ele>
        <time>2021-01-12T14:12:05Z</time>
      </trkpt>
      <trkpt lat="43.4974" lon="5.55303">
        <ele>334</ele>
        <time>2021-01-12T14:12:08Z</time>
      </trkpt>
      <trkpt lat="43.49741" lon="5.55299">
        <ele>334</ele>
        <time>2021-01-12T14:12:10Z</time>
      </trkpt>
      <trkpt lat="43.49741" lon="5.55296">
        <ele>333</ele>
        <time>2021-01-12T14:12:12Z</time>
      </trkpt>
      <trkpt lat="43.49741" lon="5.55294">
        <ele>333</ele>
        <time>2021-01-12T14:12:14Z</time>
      </trkpt>
      <trkpt lat="43.49741" lon="5.55291">
        <ele>333</ele>
        <time>2021-01-12T14:12:16Z</time>
      </trkpt>
      <trkpt lat="43.49741" lon="5.55288">
        <ele>333</ele>
        <time>2021-01-12T14:12:18Z</time>
      </trkpt>
      <trkpt lat="43.49742" lon="5.55285">
        <ele>334</ele>
        <time>2021-01-12T14:12:20Z</time>
      </trkpt>
      <trkpt lat="43.49743" lon="5.55283">
        <ele>334</ele>
        <time>2021-01-12T14:12:22Z</time>
      </trkpt>
      <trkpt lat="43.49744" lon="5.5528">
        <ele>333</ele>
        <time>2021-01-12T14:12:25Z</time>
      </trkpt>
      <trkpt lat="43.49743" lon="5.55277">
        <ele>334</ele>
        <time>2021-01-12T14:12:27Z</time>
      </trkpt>
      <trkpt lat="43.49743" lon="5.55273">
        <ele>334</ele>
        <time>2021-01-12T14:12:29Z</time>
      </trkpt>
      <trkpt lat="43.49743" lon="5.5527">
        <ele>334</ele>
        <time>2021-01-12T14:12:31Z</time>
      </trkpt>
      <trkpt lat="43.49744" lon="5.55267">
        <ele>335</ele>
        <time>2021-01-12T14:12:33Z</time>
      </trkpt>
      <trkpt lat="43.49743" lon="5.55264">
        <ele>336</ele>
        <time>2021-01-12T14:12:35Z</time>
      </trkpt>
      <trkpt lat="43.49744" lon="5.55261">
        <ele>336</ele>
        <time>2021-01-12T14:12:37Z</time>
      </trkpt>
      <trkpt lat="43.49745" lon="5.55258">
        <ele>336</ele>
        <time>2021-01-12T14:12:39Z</time>
      </trkpt>
      <trkpt lat="43.49744" lon="5.55254">
        <ele>335</ele>
        <time>2021-01-12T14:12:41Z</time>
      </trkpt>
      <trkpt lat="43.49744" lon="5.55252">
        <ele>336</ele>
        <time>2021-01-12T14:12:43Z</time>
      </trkpt>
      <trkpt lat="43.49744" lon="5.55248">
        <ele>335</ele>
        <time>2021-01-12T14:12:46Z</time>
      </trkpt>
      <trkpt lat="43.49745" lon="5.55245">
        <ele>335</ele>
        <time>2021-01-12T14:12:49Z</time>
      </trkpt>
      <trkpt lat="43.49746" lon="5.55241">
        <ele>335</ele>
        <time>2021-01-12T14:12:52Z</time>
      </trkpt>
      <trkpt lat="43.49745" lon="5.55238">
        <ele>335</ele>
        <time>2021-01-12T14:12:54Z</time>
      </trkpt>
      <trkpt lat="43.49746" lon="5.55235">
        <ele>335</ele>
        <time>2021-01-12T14:12:57Z</time>
      </trkpt>
      <trkpt lat="43.49747" lon="5.55233">
        <ele>334</ele>
        <time>2021-01-12T14:12:59Z</time>
      </trkpt>
      <trkpt lat="43.49746" lon="5.5523">
        <ele>334</ele>
        <time>2021-01-12T14:13:01Z</time>
      </trkpt>
      <trkpt lat="43.49746" lon="5.55227">
        <ele>334</ele>
        <time>2021-01-12T14:13:04Z</time>
      </trkpt>
      <trkpt lat="43.49747" lon="5.55224">
        <ele>334</ele>
        <time>2021-01-12T14:13:06Z</time>
      </trkpt>
      <trkpt lat="43.49747" lon="5.55222">
        <ele>334</ele>
        <time>2021-01-12T14:13:08Z</time>
      </trkpt>
      <trkpt lat="43.49747" lon="5.55219">
        <ele>334</ele>
        <time>2021-01-12T14:13:10Z</time>
      </trkpt>
      <trkpt lat="43.49747" lon="5.55216">
        <ele>334</ele>
        <time>2021-01-12T14:13:12Z</time>
      </trkpt>
      <trkpt lat="43.49747" lon="5.55213">
        <ele>334</ele>
        <time>2021-01-12T14:13:14Z</time>
      </trkpt>
      <trkpt lat="43.49747" lon="5.55211">
        <ele>334</ele>
        <time>2021-01-12T14:13:17Z</time>
      </trkpt>
      <trkpt lat="43.49748" lon="5.55208">
        <ele>334</ele>
        <time>2021-01-12T14:13:19Z</time>
      </trkpt>
      <trkpt lat="43.49748" lon="5.55204">
        <ele>334</ele>
        <time>2021-01-12T14:13:22Z</time>
      </trkpt>
      <trkpt lat="43.49749" lon="5.55202">
        <ele>333</ele>
        <time>2021-01-12T14:13:25Z</time>
      </trkpt>
      <trkpt lat="43.49749" lon="5.55198">
        <ele>333</ele>
        <time>2021-01-12T14:13:28Z</time>
      </trkpt>
      <trkpt lat="43.4975" lon="5.55195">
        <ele>333</ele>
        <time>2021-01-12T14:13:30Z</time>
      </trkpt>
      <trkpt lat="43.4975" lon="5.5519">
        <ele>332</ele>
        <time>2021-01-12T14:13:32Z</time>
      </trkpt>
      <trkpt lat="43.4975" lon="5.55186">
        <ele>333</ele>
        <time>2021-01-12T14:13:34Z</time>
      </trkpt>
      <trkpt lat="43.4975" lon="5.55184">
        <ele>333</ele>
        <time>2021-01-12T14:13:36Z</time>
      </trkpt>
      <trkpt lat="43.4975" lon="5.55181">
        <ele>333</ele>
        <time>2021-01-12T14:13:39Z</time>
      </trkpt>
      <trkpt lat="43.4975" lon="5.55179">
        <ele>334</ele>
        <time>2021-01-12T14:13:41Z</time>
      </trkpt>
      <trkpt lat="43.49749" lon="5.55176">
        <ele>333</ele>
        <time>2021-01-12T14:13:43Z</time>
      </trkpt>
      <trkpt lat="43.49748" lon="5.55173">
        <ele>333</ele>
        <time>2021-01-12T14:13:45Z</time>
      </trkpt>
      <trkpt lat="43.49748" lon="5.5517">
        <ele>332</ele>
        <time>2021-01-12T14:13:47Z</time>
      </trkpt>
      <trkpt lat="43.49748" lon="5.55168">
        <ele>333</ele>
        <time>2021-01-12T14:13:49Z</time>
      </trkpt>
      <trkpt lat="43.49748" lon="5.55165">
        <ele>334</ele>
        <time>2021-01-12T14:13:51Z</time>
      </trkpt>
      <trkpt lat="43.49746" lon="5.55162">
        <ele>334</ele>
        <time>2021-01-12T14:13:54Z</time>
      </trkpt>
      <trkpt lat="43.49747" lon="5.55158">
        <ele>335</ele>
        <time>2021-01-12T14:13:57Z</time>
      </trkpt>
      <trkpt lat="43.49746" lon="5.55156">
        <ele>335</ele>
        <time>2021-01-12T14:13:59Z</time>
      </trkpt>
      <trkpt lat="43.49746" lon="5.55153">
        <ele>334</ele>
        <time>2021-01-12T14:14:01Z</time>
      </trkpt>
      <trkpt lat="43.49747" lon="5.5515">
        <ele>335</ele>
        <time>2021-01-12T14:14:04Z</time>
      </trkpt>
      <trkpt lat="43.49748" lon="5.55147">
        <ele>334</ele>
        <time>2021-01-12T14:14:07Z</time>
      </trkpt>
      <trkpt lat="43.49748" lon="5.55143">
        <ele>334</ele>
        <time>2021-01-12T14:14:09Z</time>
      </trkpt>
      <trkpt lat="43.49749" lon="5.5514">
        <ele>334</ele>
        <time>2021-01-12T14:14:11Z</time>
      </trkpt>
      <trkpt lat="43.49749" lon="5.55137">
        <ele>334</ele>
        <time>2021-01-12T14:14:14Z</time>
      </trkpt>
      <trkpt lat="43.4975" lon="5.55134">
        <ele>334</ele>
        <time>2021-01-12T14:14:16Z</time>
      </trkpt>
      <trkpt lat="43.49751" lon="5.5513">
        <ele>335</ele>
        <time>2021-01-12T14:14:19Z</time>
      </trkpt>
      <trkpt lat="43.49752" lon="5.55127">
        <ele>335</ele>
        <time>2021-01-12T14:14:22Z</time>
      </trkpt>
      <trkpt lat="43.49752" lon="5.55123">
        <ele>334</ele>
        <time>2021-01-12T14:14:25Z</time>
      </trkpt>
      <trkpt lat="43.49752" lon="5.5512">
        <ele>334</ele>
        <time>2021-01-12T14:14:27Z</time>
      </trkpt>
      <trkpt lat="43.49752" lon="5.55117">
        <ele>333</ele>
        <time>2021-01-12T14:14:29Z</time>
      </trkpt>
      <trkpt lat="43.49753" lon="5.55114">
        <ele>333</ele>
        <time>2021-01-12T14:14:32Z</time>
      </trkpt>
      <trkpt lat="43.49754" lon="5.55112">
        <ele>333</ele>
        <time>2021-01-12T14:14:34Z</time>
      </trkpt>
      <trkpt lat="43.49754" lon="5.55109">
        <ele>333</ele>
        <time>2021-01-12T14:14:37Z</time>
      </trkpt>
      <trkpt lat="43.49755" lon="5.55106">
        <ele>332</ele>
        <time>2021-01-12T14:14:39Z</time>
      </trkpt>
      <trkpt lat="43.49755" lon="5.55103">
        <ele>332</ele>
        <time>2021-01-12T14:14:41Z</time>
      </trkpt>
      <trkpt lat="43.49756" lon="5.55099">
        <ele>332</ele>
        <time>2021-01-12T14:14:43Z</time>
      </trkpt>
      <trkpt lat="43.49756" lon="5.55096">
        <ele>331</ele>
        <time>2021-01-12T14:14:45Z</time>
      </trkpt>
      <trkpt lat="43.49757" lon="5.55093">
        <ele>332</ele>
        <time>2021-01-12T14:14:47Z</time>
      </trkpt>
      <trkpt lat="43.49758" lon="5.55091">
        <ele>331</ele>
        <time>2021-01-12T14:14:49Z</time>
      </trkpt>
      <trkpt lat="43.4976" lon="5.55088">
        <ele>331</ele>
        <time>2021-01-12T14:14:51Z</time>
      </trkpt>
      <trkpt lat="43.4976" lon="5.55085">
        <ele>330</ele>
        <time>2021-01-12T14:14:53Z</time>
      </trkpt>
      <trkpt lat="43.49761" lon="5.55083">
        <ele>330</ele>
        <time>2021-01-12T14:14:55Z</time>
      </trkpt>
      <trkpt lat="43.49762" lon="5.5508">
        <ele>330</ele>
        <time>2021-01-12T14:14:57Z</time>
      </trkpt>
      <trkpt lat="43.49762" lon="5.55077">
        <ele>331</ele>
        <time>2021-01-12T14:14:59Z</time>
      </trkpt>
      <trkpt lat="43.49763" lon="5.55074">
        <ele>331</ele>
        <time>2021-01-12T14:15:02Z</time>
      </trkpt>
      <trkpt lat="43.49764" lon="5.55071">
        <ele>332</ele>
        <time>2021-01-12T14:15:05Z</time>
      </trkpt>
      <trkpt lat="43.49765" lon="5.55068">
        <ele>332</ele>
        <time>2021-01-12T14:15:07Z</time>
      </trkpt>
      <trkpt lat="43.49765" lon="5.55065">
        <ele>332</ele>
        <time>2021-01-12T14:15:10Z</time>
      </trkpt>
      <trkpt lat="43.49766" lon="5.55063">
        <ele>332</ele>
        <time>2021-01-12T14:15:12Z</time>
      </trkpt>
      <trkpt lat="43.49767" lon="5.5506">
        <ele>332</ele>
        <time>2021-01-12T14:15:14Z</time>
      </trkpt>
      <trkpt lat="43.49767" lon="5.55058">
        <ele>332</ele>
        <time>2021-01-12T14:15:16Z</time>
      </trkpt>
      <trkpt lat="43.49767" lon="5.55054">
        <ele>333</ele>
        <time>2021-01-12T14:15:19Z</time>
      </trkpt>
      <trkpt lat="43.49768" lon="5.55051">
        <ele>333</ele>
        <time>2021-01-12T14:15:21Z</time>
      </trkpt>
      <trkpt lat="43.49769" lon="5.55048">
        <ele>332</ele>
        <time>2021-01-12T14:15:23Z</time>
      </trkpt>
      <trkpt lat="43.49769" lon="5.55046">
        <ele>332</ele>
        <time>2021-01-12T14:15:26Z</time>
      </trkpt>
      <trkpt lat="43.49769" lon="5.55043">
        <ele>332</ele>
        <time>2021-01-12T14:15:28Z</time>
      </trkpt>
      <trkpt lat="43.4977" lon="5.5504">
        <ele>333</ele>
        <time>2021-01-12T14:15:30Z</time>
      </trkpt>
      <trkpt lat="43.49771" lon="5.55037">
        <ele>332</ele>
        <time>2021-01-12T14:15:32Z</time>
      </trkpt>
      <trkpt lat="43.49771" lon="5.55034">
        <ele>332</ele>
        <time>2021-01-12T14:15:34Z</time>
      </trkpt>
      <trkpt lat="43.49772" lon="5.55031">
        <ele>332</ele>
        <time>2021-01-12T14:15:37Z</time>
      </trkpt>
      <trkpt lat="43.49772" lon="5.55028">
        <ele>333</ele>
        <time>2021-01-12T14:15:39Z</time>
      </trkpt>
      <trkpt lat="43.49773" lon="5.55025">
        <ele>333</ele>
        <time>2021-01-12T14:15:41Z</time>
      </trkpt>
      <trkpt lat="43.49774" lon="5.55023">
        <ele>333</ele>
        <time>2021-01-12T14:15:43Z</time>
      </trkpt>
      <trkpt lat="43.49775" lon="5.5502">
        <ele>332</ele>
        <time>2021-01-12T14:15:46Z</time>
      </trkpt>
      <trkpt lat="43.49775" lon="5.55018">
        <ele>332</ele>
        <time>2021-01-12T14:15:49Z</time>
      </trkpt>
      <trkpt lat="43.49776" lon="5.55015">
        <ele>331</ele>
        <time>2021-01-12T14:15:51Z</time>
      </trkpt>
      <trkpt lat="43.49776" lon="5.55012">
        <ele>331</ele>
        <time>2021-01-12T14:15:54Z</time>
      </trkpt>
      <trkpt lat="43.49776" lon="5.55009">
        <ele>331</ele>
        <time>2021-01-12T14:15:56Z</time>
      </trkpt>
      <trkpt lat="43.49776" lon="5.55006">
        <ele>330</ele>
        <time>2021-01-12T14:15:58Z</time>
      </trkpt>
      <trkpt lat="43.49775" lon="5.55003">
        <ele>330</ele>
        <time>2021-01-12T14:16:00Z</time>
      </trkpt>
      <trkpt lat="43.49775" lon="5.54999">
        <ele>330</ele>
        <time>2021-01-12T14:16:03Z</time>
      </trkpt>
      <trkpt lat="43.49775" lon="5.54996">
        <ele>330</ele>
        <time>2021-01-12T14:16:05Z</time>
      </trkpt>
      <trkpt lat="43.49774" lon="5.54994">
        <ele>331</ele>
        <time>2021-01-12T14:16:07Z</time>
      </trkpt>
      <trkpt lat="43.49775" lon="5.54991">
        <ele>332</ele>
        <time>2021-01-12T14:16:10Z</time>
      </trkpt>
      <trkpt lat="43.49775" lon="5.54987">
        <ele>332</ele>
        <time>2021-01-12T14:16:13Z</time>
      </trkpt>
      <trkpt lat="43.49775" lon="5.54985">
        <ele>332</ele>
        <time>2021-01-12T14:16:15Z</time>
      </trkpt>
      <trkpt lat="43.49775" lon="5.54982">
        <ele>333</ele>
        <time>2021-01-12T14:16:17Z</time>
      </trkpt>
      <trkpt lat="43.49776" lon="5.54979">
        <ele>334</ele>
        <time>2021-01-12T14:16:19Z</time>
      </trkpt>
      <trkpt lat="43.49777" lon="5.54976">
        <ele>334</ele>
        <time>2021-01-12T14:16:21Z</time>
      </trkpt>
      <trkpt lat="43.49777" lon="5.54973">
        <ele>334</ele>
        <time>2021-01-12T14:16:23Z</time>
      </trkpt>
      <trkpt lat="43.49777" lon="5.54971">
        <ele>333</ele>
        <time>2021-01-12T14:16:25Z</time>
      </trkpt>
      <trkpt lat="43.49777" lon="5.54967">
        <ele>332</ele>
        <time>2021-01-12T14:16:28Z</time>
      </trkpt>
      <trkpt lat="43.49777" lon="5.54964">
        <ele>333</ele>
        <time>2021-01-12T14:16:31Z</time>
      </trkpt>
      <trkpt lat="43.49777" lon="5.54961">
        <ele>332</ele>
        <time>2021-01-12T14:16:33Z</time>
      </trkpt>
      <trkpt lat="43.49777" lon="5.54957">
        <ele>332</ele>
        <time>2021-01-12T14:16:36Z</time>
      </trkpt>
      <trkpt lat="43.49777" lon="5.54954">
        <ele>332</ele>
        <time>2021-01-12T14:16:38Z</time>
      </trkpt>
      <trkpt lat="43.49776" lon="5.54952">
        <ele>332</ele>
        <time>2021-01-12T14:16:40Z</time>
      </trkpt>
      <trkpt lat="43.49776" lon="5.54949">
        <ele>332</ele>
        <time>2021-01-12T14:16:42Z</time>
      </trkpt>
      <trkpt lat="43.49776" lon="5.54946">
        <ele>332</ele>
        <time>2021-01-12T14:16:44Z</time>
      </trkpt>
      <trkpt lat="43.49776" lon="5.54943">
        <ele>332</ele>
        <time>2021-01-12T14:16:46Z</time>
      </trkpt>
      <trkpt lat="43.49776" lon="5.5494">
        <ele>332</ele>
        <time>2021-01-12T14:16:48Z</time>
      </trkpt>
      <trkpt lat="43.49776" lon="5.54937">
        <ele>332</ele>
        <time>2021-01-12T14:16:50Z</time>
      </trkpt>
      <trkpt lat="43.49777" lon="5.54933">
        <ele>331</ele>
        <time>2021-01-12T14:16:52Z</time>
      </trkpt>
      <trkpt lat="43.49776" lon="5.5493">
        <ele>332</ele>
        <time>2021-01-12T14:16:54Z</time>
      </trkpt>
      <trkpt lat="43.49775" lon="5.54927">
        <ele>332</ele>
        <time>2021-01-12T14:16:56Z</time>
      </trkpt>
      <trkpt lat="43.49776" lon="5.54924">
        <ele>332</ele>
        <time>2021-01-12T14:16:59Z</time>
      </trkpt>
      <trkpt lat="43.49776" lon="5.54921">
        <ele>331</ele>
        <time>2021-01-12T14:17:01Z</time>
      </trkpt>
      <trkpt lat="43.49776" lon="5.54918">
        <ele>331</ele>
        <time>2021-01-12T14:17:03Z</time>
      </trkpt>
      <trkpt lat="43.49775" lon="5.54916">
        <ele>331</ele>
        <time>2021-01-12T14:17:05Z</time>
      </trkpt>
      <trkpt lat="43.49776" lon="5.54913">
        <ele>332</ele>
        <time>2021-01-12T14:17:07Z</time>
      </trkpt>
      <trkpt lat="43.49776" lon="5.5491">
        <ele>332</ele>
        <time>2021-01-12T14:17:09Z</time>
      </trkpt>
      <trkpt lat="43.49778" lon="5.54907">
        <ele>331</ele>
        <time>2021-01-12T14:17:12Z</time>
      </trkpt>
      <trkpt lat="43.49778" lon="5.54904">
        <ele>331</ele>
        <time>2021-01-12T14:17:14Z</time>
      </trkpt>
      <trkpt lat="43.49779" lon="5.54901">
        <ele>332</ele>
        <time>2021-01-12T14:17:17Z</time>
      </trkpt>
      <trkpt lat="43.49779" lon="5.54898">
        <ele>331</ele>
        <time>2021-01-12T14:17:19Z</time>
      </trkpt>
      <trkpt lat="43.49779" lon="5.54895">
        <ele>332</ele>
        <time>2021-01-12T14:17:21Z</time>
      </trkpt>
      <trkpt lat="43.49779" lon="5.54892">
        <ele>331</ele>
        <time>2021-01-12T14:17:23Z</time>
      </trkpt>
      <trkpt lat="43.4978" lon="5.5489">
        <ele>331</ele>
        <time>2021-01-12T14:17:25Z</time>
      </trkpt>
      <trkpt lat="43.49781" lon="5.54888">
        <ele>331</ele>
        <time>2021-01-12T14:17:27Z</time>
      </trkpt>
      <trkpt lat="43.49782" lon="5.54885">
        <ele>331</ele>
        <time>2021-01-12T14:17:29Z</time>
      </trkpt>
      <trkpt lat="43.49782" lon="5.54883">
        <ele>331</ele>
        <time>2021-01-12T14:17:31Z</time>
      </trkpt>
      <trkpt lat="43.49782" lon="5.5488">
        <ele>331</ele>
        <time>2021-01-12T14:17:33Z</time>
      </trkpt>
      <trkpt lat="43.49782" lon="5.54877">
        <ele>331</ele>
        <time>2021-01-12T14:17:35Z</time>
      </trkpt>
      <trkpt lat="43.49782" lon="5.54874">
        <ele>331</ele>
        <time>2021-01-12T14:17:37Z</time>
      </trkpt>
      <trkpt lat="43.49783" lon="5.54871">
        <ele>331</ele>
        <time>2021-01-12T14:17:40Z</time>
      </trkpt>
      <trkpt lat="43.49784" lon="5.54868">
        <ele>332</ele>
        <time>2021-01-12T14:17:43Z</time>
      </trkpt>
      <trkpt lat="43.49783" lon="5.54864">
        <ele>333</ele>
        <time>2021-01-12T14:17:46Z</time>
      </trkpt>
      <trkpt lat="43.49783" lon="5.54861">
        <ele>332</ele>
        <time>2021-01-12T14:17:48Z</time>
      </trkpt>
      <trkpt lat="43.49783" lon="5.54858">
        <ele>330</ele>
        <time>2021-01-12T14:17:50Z</time>
      </trkpt>
      <trkpt lat="43.49782" lon="5.54855">
        <ele>329</ele>
        <time>2021-01-12T14:17:52Z</time>
      </trkpt>
      <trkpt lat="43.49783" lon="5.54852">
        <ele>329</ele>
        <time>2021-01-12T14:17:55Z</time>
      </trkpt>
      <trkpt lat="43.49783" lon="5.54849">
        <ele>329</ele>
        <time>2021-01-12T14:17:57Z</time>
      </trkpt>
      <trkpt lat="43.49783" lon="5.54845">
        <ele>330</ele>
        <time>2021-01-12T14:17:59Z</time>
      </trkpt>
      <trkpt lat="43.49783" lon="5.54842">
        <ele>330</ele>
        <time>2021-01-12T14:18:01Z</time>
      </trkpt>
      <trkpt lat="43.49782" lon="5.54839">
        <ele>330</ele>
        <time>2021-01-12T14:18:03Z</time>
      </trkpt>
      <trkpt lat="43.49783" lon="5.54836">
        <ele>331</ele>
        <time>2021-01-12T14:18:05Z</time>
      </trkpt>
      <trkpt lat="43.49783" lon="5.54833">
        <ele>331</ele>
        <time>2021-01-12T14:18:08Z</time>
      </trkpt>
      <trkpt lat="43.49784" lon="5.5483">
        <ele>331</ele>
        <time>2021-01-12T14:18:10Z</time>
      </trkpt>
      <trkpt lat="43.49784" lon="5.54827">
        <ele>331</ele>
        <time>2021-01-12T14:18:12Z</time>
      </trkpt>
      <trkpt lat="43.49784" lon="5.54824">
        <ele>332</ele>
        <time>2021-01-12T14:18:14Z</time>
      </trkpt>
      <trkpt lat="43.49784" lon="5.54821">
        <ele>331</ele>
        <time>2021-01-12T14:18:16Z</time>
      </trkpt>
      <trkpt lat="43.49783" lon="5.54818">
        <ele>330</ele>
        <time>2021-01-12T14:18:18Z</time>
      </trkpt>
      <trkpt lat="43.49783" lon="5.54815">
        <ele>329</ele>
        <time>2021-01-12T14:18:20Z</time>
      </trkpt>
      <trkpt lat="43.49782" lon="5.54812">
        <ele>329</ele>
        <time>2021-01-12T14:18:22Z</time>
      </trkpt>
      <trkpt lat="43.49781" lon="5.5481">
        <ele>329</ele>
        <time>2021-01-12T14:18:24Z</time>
      </trkpt>
      <trkpt lat="43.49781" lon="5.54806">
        <ele>330</ele>
        <time>2021-01-12T14:18:27Z</time>
      </trkpt>
      <trkpt lat="43.4978" lon="5.54803">
        <ele>330</ele>
        <time>2021-01-12T14:18:29Z</time>
      </trkpt>
      <trkpt lat="43.4978" lon="5.548">
        <ele>331</ele>
        <time>2021-01-12T14:18:31Z</time>
      </trkpt>
      <trkpt lat="43.4978" lon="5.54796">
        <ele>331</ele>
        <time>2021-01-12T14:18:33Z</time>
      </trkpt>
      <trkpt lat="43.49779" lon="5.54793">
        <ele>331</ele>
        <time>2021-01-12T14:18:35Z</time>
      </trkpt>
      <trkpt lat="43.49777" lon="5.5479">
        <ele>331</ele>
        <time>2021-01-12T14:18:37Z</time>
      </trkpt>
      <trkpt lat="43.49777" lon="5.54786">
        <ele>331</ele>
        <time>2021-01-12T14:18:39Z</time>
      </trkpt>
      <trkpt lat="43.49776" lon="5.54783">
        <ele>331</ele>
        <time>2021-01-12T14:18:41Z</time>
      </trkpt>
      <trkpt lat="43.49777" lon="5.5478">
        <ele>331</ele>
        <time>2021-01-12T14:18:43Z</time>
      </trkpt>
      <trkpt lat="43.49777" lon="5.54777">
        <ele>332</ele>
        <time>2021-01-12T14:18:45Z</time>
      </trkpt>
      <trkpt lat="43.49776" lon="5.54774">
        <ele>332</ele>
        <time>2021-01-12T14:18:47Z</time>
      </trkpt>
      <trkpt lat="43.49776" lon="5.54772">
        <ele>332</ele>
        <time>2021-01-12T14:18:49Z</time>
      </trkpt>
      <trkpt lat="43.49775" lon="5.54768">
        <ele>332</ele>
        <time>2021-01-12T14:18:52Z</time>
      </trkpt>
      <trkpt lat="43.49774" lon="5.54765">
        <ele>332</ele>
        <time>2021-01-12T14:18:54Z</time>
      </trkpt>
      <trkpt lat="43.49774" lon="5.54762">
        <ele>332</ele>
        <time>2021-01-12T14:18:56Z</time>
      </trkpt>
      <trkpt lat="43.49774" lon="5.5476">
        <ele>332</ele>
        <time>2021-01-12T14:18:59Z</time>
      </trkpt>
      <trkpt lat="43.49775" lon="5.54757">
        <ele>331</ele>
        <time>2021-01-12T14:19:01Z</time>
      </trkpt>
      <trkpt lat="43.49775" lon="5.54754">
        <ele>331</ele>
        <time>2021-01-12T14:19:03Z</time>
      </trkpt>
      <trkpt lat="43.49776" lon="5.54751">
        <ele>330</ele>
        <time>2021-01-12T14:19:06Z</time>
      </trkpt>
      <trkpt lat="43.49777" lon="5.54748">
        <ele>330</ele>
        <time>2021-01-12T14:19:08Z</time>
      </trkpt>
      <trkpt lat="43.49778" lon="5.54745">
        <ele>330</ele>
        <time>2021-01-12T14:19:11Z</time>
      </trkpt>
      <trkpt lat="43.4978" lon="5.54742">
        <ele>331</ele>
        <time>2021-01-12T14:19:13Z</time>
      </trkpt>
      <trkpt lat="43.49781" lon="5.54739">
        <ele>331</ele>
        <time>2021-01-12T14:19:15Z</time>
      </trkpt>
      <trkpt lat="43.49781" lon="5.54736">
        <ele>330</ele>
        <time>2021-01-12T14:19:17Z</time>
      </trkpt>
      <trkpt lat="43.49782" lon="5.54734">
        <ele>330</ele>
        <time>2021-01-12T14:19:19Z</time>
      </trkpt>
      <trkpt lat="43.49782" lon="5.54731">
        <ele>330</ele>
        <time>2021-01-12T14:19:21Z</time>
      </trkpt>
      <trkpt lat="43.49781" lon="5.54728">
        <ele>330</ele>
        <time>2021-01-12T14:19:23Z</time>
      </trkpt>
      <trkpt lat="43.49781" lon="5.54726">
        <ele>330</ele>
        <time>2021-01-12T14:19:25Z</time>
      </trkpt>
      <trkpt lat="43.49781" lon="5.54723">
        <ele>330</ele>
        <time>2021-01-12T14:19:27Z</time>
      </trkpt>
      <trkpt lat="43.49781" lon="5.5472">
        <ele>330</ele>
        <time>2021-01-12T14:19:29Z</time>
      </trkpt>
      <trkpt lat="43.49781" lon="5.54717">
        <ele>330</ele>
        <time>2021-01-12T14:19:32Z</time>
      </trkpt>
      <trkpt lat="43.4978" lon="5.54714">
        <ele>330</ele>
        <time>2021-01-12T14:19:34Z</time>
      </trkpt>
      <trkpt lat="43.49779" lon="5.54711">
        <ele>329</ele>
        <time>2021-01-12T14:19:36Z</time>
      </trkpt>
      <trkpt lat="43.49778" lon="5.54709">
        <ele>329</ele>
        <time>2021-01-12T14:19:38Z</time>
      </trkpt>
      <trkpt lat="43.49778" lon="5.54706">
        <ele>330</ele>
        <time>2021-01-12T14:19:41Z</time>
      </trkpt>
      <trkpt lat="43.49778" lon="5.54703">
        <ele>330</ele>
        <time>2021-01-12T14:19:44Z</time>
      </trkpt>
      <trkpt lat="43.49778" lon="5.547">
        <ele>330</ele>
        <time>2021-01-12T14:19:46Z</time>
      </trkpt>
      <trkpt lat="43.49778" lon="5.54697">
        <ele>329</ele>
        <time>2021-01-12T14:19:49Z</time>
      </trkpt>
      <trkpt lat="43.49777" lon="5.54695">
        <ele>329</ele>
        <time>2021-01-12T14:19:51Z</time>
      </trkpt>
      <trkpt lat="43.49776" lon="5.54691">
        <ele>329</ele>
        <time>2021-01-12T14:19:53Z</time>
      </trkpt>
      <trkpt lat="43.49774" lon="5.54689">
        <ele>328</ele>
        <time>2021-01-12T14:19:55Z</time>
      </trkpt>
      <trkpt lat="43.49773" lon="5.54686">
        <ele>327</ele>
        <time>2021-01-12T14:19:57Z</time>
      </trkpt>
      <trkpt lat="43.49772" lon="5.54683">
        <ele>327</ele>
        <time>2021-01-12T14:19:59Z</time>
      </trkpt>
      <trkpt lat="43.49772" lon="5.54681">
        <ele>326</ele>
        <time>2021-01-12T14:20:01Z</time>
      </trkpt>
      <trkpt lat="43.4977" lon="5.54678">
        <ele>327</ele>
        <time>2021-01-12T14:20:04Z</time>
      </trkpt>
      <trkpt lat="43.49768" lon="5.54675">
        <ele>325</ele>
        <time>2021-01-12T14:20:06Z</time>
      </trkpt>
      <trkpt lat="43.49767" lon="5.54673">
        <ele>326</ele>
        <time>2021-01-12T14:20:08Z</time>
      </trkpt>
      <trkpt lat="43.49764" lon="5.54671">
        <ele>325</ele>
        <time>2021-01-12T14:20:11Z</time>
      </trkpt>
      <trkpt lat="43.49763" lon="5.5467">
        <ele>325</ele>
        <time>2021-01-12T14:20:13Z</time>
      </trkpt>
      <trkpt lat="43.49761" lon="5.54668">
        <ele>325</ele>
        <time>2021-01-12T14:20:15Z</time>
      </trkpt>
      <trkpt lat="43.4976" lon="5.54667">
        <ele>324</ele>
        <time>2021-01-12T14:20:17Z</time>
      </trkpt>
      <trkpt lat="43.49758" lon="5.54665">
        <ele>325</ele>
        <time>2021-01-12T14:20:19Z</time>
      </trkpt>
      <trkpt lat="43.49757" lon="5.54662">
        <ele>325</ele>
        <time>2021-01-12T14:20:21Z</time>
      </trkpt>
      <trkpt lat="43.49755" lon="5.5466">
        <ele>325</ele>
        <time>2021-01-12T14:20:24Z</time>
      </trkpt>
      <trkpt lat="43.49753" lon="5.54659">
        <ele>325</ele>
        <time>2021-01-12T14:20:27Z</time>
      </trkpt>
      <trkpt lat="43.49752" lon="5.54657">
        <ele>326</ele>
        <time>2021-01-12T14:20:29Z</time>
      </trkpt>
      <trkpt lat="43.4975" lon="5.54654">
        <ele>326</ele>
        <time>2021-01-12T14:20:32Z</time>
      </trkpt>
      <trkpt lat="43.49748" lon="5.54651">
        <ele>326</ele>
        <time>2021-01-12T14:20:35Z</time>
      </trkpt>
      <trkpt lat="43.49748" lon="5.54648">
        <ele>326</ele>
        <time>2021-01-12T14:20:38Z</time>
      </trkpt>
      <trkpt lat="43.49748" lon="5.54645">
        <ele>326</ele>
        <time>2021-01-12T14:20:40Z</time>
      </trkpt>
      <trkpt lat="43.49749" lon="5.54641">
        <ele>325</ele>
        <time>2021-01-12T14:20:43Z</time>
      </trkpt>
      <trkpt lat="43.49749" lon="5.54637">
        <ele>325</ele>
        <time>2021-01-12T14:20:46Z</time>
      </trkpt>
      <trkpt lat="43.4975" lon="5.54635">
        <ele>325</ele>
        <time>2021-01-12T14:20:48Z</time>
      </trkpt>
      <trkpt lat="43.4975" lon="5.54632">
        <ele>326</ele>
        <time>2021-01-12T14:20:52Z</time>
      </trkpt>
      <trkpt lat="43.49751" lon="5.54629">
        <ele>326</ele>
        <time>2021-01-12T14:20:54Z</time>
      </trkpt>
      <trkpt lat="43.49752" lon="5.54626">
        <ele>327</ele>
        <time>2021-01-12T14:20:56Z</time>
      </trkpt>
      <trkpt lat="43.49753" lon="5.54623">
        <ele>327</ele>
        <time>2021-01-12T14:20:59Z</time>
      </trkpt>
      <trkpt lat="43.49754" lon="5.54621">
        <ele>326</ele>
        <time>2021-01-12T14:21:01Z</time>
      </trkpt>
      <trkpt lat="43.49756" lon="5.54619">
        <ele>327</ele>
        <time>2021-01-12T14:21:04Z</time>
      </trkpt>
      <trkpt lat="43.49758" lon="5.54617">
        <ele>328</ele>
        <time>2021-01-12T14:21:06Z</time>
      </trkpt>
      <trkpt lat="43.49759" lon="5.54614">
        <ele>327</ele>
        <time>2021-01-12T14:21:09Z</time>
      </trkpt>
      <trkpt lat="43.4976" lon="5.54612">
        <ele>327</ele>
        <time>2021-01-12T14:21:12Z</time>
      </trkpt>
      <trkpt lat="43.49761" lon="5.54609">
        <ele>327</ele>
        <time>2021-01-12T14:21:14Z</time>
      </trkpt>
      <trkpt lat="43.49761" lon="5.54607">
        <ele>327</ele>
        <time>2021-01-12T14:21:16Z</time>
      </trkpt>
      <trkpt lat="43.49763" lon="5.54604">
        <ele>327</ele>
        <time>2021-01-12T14:21:18Z</time>
      </trkpt>
      <trkpt lat="43.49763" lon="5.54601">
        <ele>326</ele>
        <time>2021-01-12T14:21:21Z</time>
      </trkpt>
      <trkpt lat="43.49764" lon="5.54598">
        <ele>326</ele>
        <time>2021-01-12T14:21:23Z</time>
      </trkpt>
      <trkpt lat="43.49766" lon="5.54596">
        <ele>327</ele>
        <time>2021-01-12T14:21:26Z</time>
      </trkpt>
      <trkpt lat="43.49767" lon="5.54594">
        <ele>328</ele>
        <time>2021-01-12T14:21:28Z</time>
      </trkpt>
      <trkpt lat="43.49767" lon="5.54591">
        <ele>328</ele>
        <time>2021-01-12T14:21:31Z</time>
      </trkpt>
      <trkpt lat="43.49769" lon="5.54588">
        <ele>327</ele>
        <time>2021-01-12T14:21:34Z</time>
      </trkpt>
      <trkpt lat="43.49769" lon="5.54586">
        <ele>327</ele>
        <time>2021-01-12T14:21:36Z</time>
      </trkpt>
      <trkpt lat="43.49771" lon="5.54583">
        <ele>327</ele>
        <time>2021-01-12T14:21:38Z</time>
      </trkpt>
      <trkpt lat="43.49773" lon="5.5458">
        <ele>326</ele>
        <time>2021-01-12T14:21:41Z</time>
      </trkpt>
      <trkpt lat="43.49774" lon="5.54578">
        <ele>326</ele>
        <time>2021-01-12T14:21:43Z</time>
      </trkpt>
      <trkpt lat="43.49775" lon="5.54575">
        <ele>327</ele>
        <time>2021-01-12T14:21:46Z</time>
      </trkpt>
      <trkpt lat="43.49776" lon="5.54572">
        <ele>327</ele>
        <time>2021-01-12T14:21:48Z</time>
      </trkpt>
      <trkpt lat="43.49777" lon="5.5457">
        <ele>327</ele>
        <time>2021-01-12T14:21:51Z</time>
      </trkpt>
      <trkpt lat="43.49778" lon="5.54567">
        <ele>326</ele>
        <time>2021-01-12T14:21:54Z</time>
      </trkpt>
      <trkpt lat="43.4978" lon="5.54565">
        <ele>327</ele>
        <time>2021-01-12T14:21:56Z</time>
      </trkpt>
      <trkpt lat="43.49781" lon="5.54563">
        <ele>327</ele>
        <time>2021-01-12T14:21:58Z</time>
      </trkpt>
      <trkpt lat="43.49782" lon="5.5456">
        <ele>327</ele>
        <time>2021-01-12T14:22:00Z</time>
      </trkpt>
      <trkpt lat="43.49783" lon="5.54558">
        <ele>327</ele>
        <time>2021-01-12T14:22:03Z</time>
      </trkpt>
      <trkpt lat="43.49784" lon="5.54554">
        <ele>328</ele>
        <time>2021-01-12T14:22:06Z</time>
      </trkpt>
      <trkpt lat="43.49785" lon="5.54552">
        <ele>328</ele>
        <time>2021-01-12T14:22:08Z</time>
      </trkpt>
      <trkpt lat="43.49786" lon="5.54549">
        <ele>327</ele>
        <time>2021-01-12T14:22:11Z</time>
      </trkpt>
      <trkpt lat="43.49787" lon="5.54546">
        <ele>327</ele>
        <time>2021-01-12T14:22:13Z</time>
      </trkpt>
      <trkpt lat="43.49788" lon="5.54543">
        <ele>327</ele>
        <time>2021-01-12T14:22:16Z</time>
      </trkpt>
      <trkpt lat="43.49789" lon="5.54541">
        <ele>327</ele>
        <time>2021-01-12T14:22:18Z</time>
      </trkpt>
      <trkpt lat="43.49789" lon="5.54538">
        <ele>327</ele>
        <time>2021-01-12T14:22:21Z</time>
      </trkpt>
      <trkpt lat="43.49789" lon="5.54534">
        <ele>327</ele>
        <time>2021-01-12T14:22:24Z</time>
      </trkpt>
      <trkpt lat="43.49789" lon="5.54531">
        <ele>327</ele>
        <time>2021-01-12T14:22:27Z</time>
      </trkpt>
      <trkpt lat="43.4979" lon="5.54528">
        <ele>327</ele>
        <time>2021-01-12T14:22:29Z</time>
      </trkpt>
      <trkpt lat="43.4979" lon="5.54526">
        <ele>325</ele>
        <time>2021-01-12T14:22:31Z</time>
      </trkpt>
      <trkpt lat="43.49791" lon="5.54523">
        <ele>325</ele>
        <time>2021-01-12T14:22:33Z</time>
      </trkpt>
      <trkpt lat="43.49792" lon="5.54521">
        <ele>325</ele>
        <time>2021-01-12T14:22:35Z</time>
      </trkpt>
      <trkpt lat="43.49794" lon="5.54518">
        <ele>326</ele>
        <time>2021-01-12T14:22:37Z</time>
      </trkpt>
      <trkpt lat="43.49794" lon="5.54515">
        <ele>326</ele>
        <time>2021-01-12T14:22:39Z</time>
      </trkpt>
      <trkpt lat="43.49795" lon="5.54513">
        <ele>327</ele>
        <time>2021-01-12T14:22:41Z</time>
      </trkpt>
      <trkpt lat="43.49796" lon="5.5451">
        <ele>326</ele>
        <time>2021-01-12T14:22:44Z</time>
      </trkpt>
      <trkpt lat="43.49797" lon="5.54507">
        <ele>327</ele>
        <time>2021-01-12T14:22:47Z</time>
      </trkpt>
      <trkpt lat="43.49798" lon="5.54503">
        <ele>327</ele>
        <time>2021-01-12T14:22:50Z</time>
      </trkpt>
      <trkpt lat="43.49799" lon="5.545">
        <ele>327</ele>
        <time>2021-01-12T14:22:53Z</time>
      </trkpt>
      <trkpt lat="43.498" lon="5.54498">
        <ele>327</ele>
        <time>2021-01-12T14:22:56Z</time>
      </trkpt>
      <trkpt lat="43.49801" lon="5.54495">
        <ele>327</ele>
        <time>2021-01-12T14:23:00Z</time>
      </trkpt>
      <trkpt lat="43.498" lon="5.54493">
        <ele>327</ele>
        <time>2021-01-12T14:23:02Z</time>
      </trkpt>
      <trkpt lat="43.49801" lon="5.5449">
        <ele>327</ele>
        <time>2021-01-12T14:23:05Z</time>
      </trkpt>
      <trkpt lat="43.49801" lon="5.54486">
        <ele>327</ele>
        <time>2021-01-12T14:23:07Z</time>
      </trkpt>
      <trkpt lat="43.49802" lon="5.54483">
        <ele>327</ele>
        <time>2021-01-12T14:23:09Z</time>
      </trkpt>
      <trkpt lat="43.49802" lon="5.54481">
        <ele>327</ele>
        <time>2021-01-12T14:23:11Z</time>
      </trkpt>
      <trkpt lat="43.49802" lon="5.54477">
        <ele>327</ele>
        <time>2021-01-12T14:23:13Z</time>
      </trkpt>
      <trkpt lat="43.49802" lon="5.54475">
        <ele>327</ele>
        <time>2021-01-12T14:23:15Z</time>
      </trkpt>
      <trkpt lat="43.49803" lon="5.54472">
        <ele>327</ele>
        <time>2021-01-12T14:23:17Z</time>
      </trkpt>
      <trkpt lat="43.49803" lon="5.54469">
        <ele>327</ele>
        <time>2021-01-12T14:23:19Z</time>
      </trkpt>
      <trkpt lat="43.49804" lon="5.54466">
        <ele>327</ele>
        <time>2021-01-12T14:23:21Z</time>
      </trkpt>
      <trkpt lat="43.49804" lon="5.54464">
        <ele>326</ele>
        <time>2021-01-12T14:23:23Z</time>
      </trkpt>
      <trkpt lat="43.49804" lon="5.54461">
        <ele>327</ele>
        <time>2021-01-12T14:23:25Z</time>
      </trkpt>
      <trkpt lat="43.49805" lon="5.54459">
        <ele>326</ele>
        <time>2021-01-12T14:23:27Z</time>
      </trkpt>
      <trkpt lat="43.49806" lon="5.54455">
        <ele>326</ele>
        <time>2021-01-12T14:23:30Z</time>
      </trkpt>
      <trkpt lat="43.49807" lon="5.54453">
        <ele>326</ele>
        <time>2021-01-12T14:23:32Z</time>
      </trkpt>
      <trkpt lat="43.49807" lon="5.5445">
        <ele>326</ele>
        <time>2021-01-12T14:23:34Z</time>
      </trkpt>
      <trkpt lat="43.49807" lon="5.54447">
        <ele>326</ele>
        <time>2021-01-12T14:23:37Z</time>
      </trkpt>
      <trkpt lat="43.49809" lon="5.54444">
        <ele>326</ele>
        <time>2021-01-12T14:23:40Z</time>
      </trkpt>
      <trkpt lat="43.4981" lon="5.54441">
        <ele>326</ele>
        <time>2021-01-12T14:23:43Z</time>
      </trkpt>
      <trkpt lat="43.49811" lon="5.54439">
        <ele>326</ele>
        <time>2021-01-12T14:23:45Z</time>
      </trkpt>
      <trkpt lat="43.49812" lon="5.54437">
        <ele>326</ele>
        <time>2021-01-12T14:23:47Z</time>
      </trkpt>
      <trkpt lat="43.49813" lon="5.54432">
        <ele>327</ele>
        <time>2021-01-12T14:23:51Z</time>
      </trkpt>
      <trkpt lat="43.49813" lon="5.5443">
        <ele>327</ele>
        <time>2021-01-12T14:23:53Z</time>
      </trkpt>
      <trkpt lat="43.49814" lon="5.54425">
        <ele>326</ele>
        <time>2021-01-12T14:23:56Z</time>
      </trkpt>
      <trkpt lat="43.49814" lon="5.54421">
        <ele>326</ele>
        <time>2021-01-12T14:23:58Z</time>
      </trkpt>
      <trkpt lat="43.49813" lon="5.54419">
        <ele>325</ele>
        <time>2021-01-12T14:24:00Z</time>
      </trkpt>
      <trkpt lat="43.49814" lon="5.54416">
        <ele>325</ele>
        <time>2021-01-12T14:24:02Z</time>
      </trkpt>
      <trkpt lat="43.49815" lon="5.54414">
        <ele>325</ele>
        <time>2021-01-12T14:24:04Z</time>
      </trkpt>
      <trkpt lat="43.49816" lon="5.54411">
        <ele>323</ele>
        <time>2021-01-12T14:24:07Z</time>
      </trkpt>
      <trkpt lat="43.49817" lon="5.54408">
        <ele>323</ele>
        <time>2021-01-12T14:24:09Z</time>
      </trkpt>
      <trkpt lat="43.49818" lon="5.54405">
        <ele>322</ele>
        <time>2021-01-12T14:24:11Z</time>
      </trkpt>
      <trkpt lat="43.49818" lon="5.54401">
        <ele>322</ele>
        <time>2021-01-12T14:24:14Z</time>
      </trkpt>
      <trkpt lat="43.49819" lon="5.54398">
        <ele>322</ele>
        <time>2021-01-12T14:24:17Z</time>
      </trkpt>
      <trkpt lat="43.4982" lon="5.54396">
        <ele>322</ele>
        <time>2021-01-12T14:24:19Z</time>
      </trkpt>
      <trkpt lat="43.49821" lon="5.54393">
        <ele>323</ele>
        <time>2021-01-12T14:24:21Z</time>
      </trkpt>
      <trkpt lat="43.49822" lon="5.54391">
        <ele>322</ele>
        <time>2021-01-12T14:24:23Z</time>
      </trkpt>
      <trkpt lat="43.49823" lon="5.54388">
        <ele>322</ele>
        <time>2021-01-12T14:24:25Z</time>
      </trkpt>
      <trkpt lat="43.49824" lon="5.54384">
        <ele>323</ele>
        <time>2021-01-12T14:24:28Z</time>
      </trkpt>
      <trkpt lat="43.49825" lon="5.54381">
        <ele>323</ele>
        <time>2021-01-12T14:24:30Z</time>
      </trkpt>
      <trkpt lat="43.49826" lon="5.54379">
        <ele>323</ele>
        <time>2021-01-12T14:24:32Z</time>
      </trkpt>
      <trkpt lat="43.49827" lon="5.54376">
        <ele>322</ele>
        <time>2021-01-12T14:24:35Z</time>
      </trkpt>
      <trkpt lat="43.49829" lon="5.54375">
        <ele>323</ele>
        <time>2021-01-12T14:24:37Z</time>
      </trkpt>
      <trkpt lat="43.4983" lon="5.54373">
        <ele>323</ele>
        <time>2021-01-12T14:24:40Z</time>
      </trkpt>
      <trkpt lat="43.49831" lon="5.54369">
        <ele>323</ele>
        <time>2021-01-12T14:24:43Z</time>
      </trkpt>
      <trkpt lat="43.49832" lon="5.54366">
        <ele>323</ele>
        <time>2021-01-12T14:24:45Z</time>
      </trkpt>
      <trkpt lat="43.49834" lon="5.54363">
        <ele>323</ele>
        <time>2021-01-12T14:24:48Z</time>
      </trkpt>
      <trkpt lat="43.49834" lon="5.54361">
        <ele>322</ele>
        <time>2021-01-12T14:24:50Z</time>
      </trkpt>
      <trkpt lat="43.49835" lon="5.54358">
        <ele>322</ele>
        <time>2021-01-12T14:24:53Z</time>
      </trkpt>
      <trkpt lat="43.49836" lon="5.54355">
        <ele>323</ele>
        <time>2021-01-12T14:24:55Z</time>
      </trkpt>
      <trkpt lat="43.49838" lon="5.54352">
        <ele>322</ele>
        <time>2021-01-12T14:24:57Z</time>
      </trkpt>
      <trkpt lat="43.49839" lon="5.5435">
        <ele>323</ele>
        <time>2021-01-12T14:24:59Z</time>
      </trkpt>
      <trkpt lat="43.49841" lon="5.54348">
        <ele>322</ele>
        <time>2021-01-12T14:25:01Z</time>
      </trkpt>
      <trkpt lat="43.49842" lon="5.54345">
        <ele>323</ele>
        <time>2021-01-12T14:25:04Z</time>
      </trkpt>
      <trkpt lat="43.49844" lon="5.54342">
        <ele>323</ele>
        <time>2021-01-12T14:25:06Z</time>
      </trkpt>
      <trkpt lat="43.49846" lon="5.5434">
        <ele>323</ele>
        <time>2021-01-12T14:25:08Z</time>
      </trkpt>
      <trkpt lat="43.49847" lon="5.54338">
        <ele>324</ele>
        <time>2021-01-12T14:25:10Z</time>
      </trkpt>
      <trkpt lat="43.49847" lon="5.54335">
        <ele>324</ele>
        <time>2021-01-12T14:25:12Z</time>
      </trkpt>
      <trkpt lat="43.49848" lon="5.54332">
        <ele>323</ele>
        <time>2021-01-12T14:25:14Z</time>
      </trkpt>
      <trkpt lat="43.49848" lon="5.54329">
        <ele>322</ele>
        <time>2021-01-12T14:25:17Z</time>
      </trkpt>
      <trkpt lat="43.4985" lon="5.54326">
        <ele>322</ele>
        <time>2021-01-12T14:25:21Z</time>
      </trkpt>
      <trkpt lat="43.4985" lon="5.54323">
        <ele>323</ele>
        <time>2021-01-12T14:25:23Z</time>
      </trkpt>
      <trkpt lat="43.49851" lon="5.54321">
        <ele>322</ele>
        <time>2021-01-12T14:25:25Z</time>
      </trkpt>
      <trkpt lat="43.49853" lon="5.54319">
        <ele>322</ele>
        <time>2021-01-12T14:25:27Z</time>
      </trkpt>
      <trkpt lat="43.49853" lon="5.54316">
        <ele>322</ele>
        <time>2021-01-12T14:25:29Z</time>
      </trkpt>
      <trkpt lat="43.49853" lon="5.5431">
        <ele>323</ele>
        <time>2021-01-12T14:25:35Z</time>
      </trkpt>
      <trkpt lat="43.49854" lon="5.54307">
        <ele>323</ele>
        <time>2021-01-12T14:25:37Z</time>
      </trkpt>
      <trkpt lat="43.49855" lon="5.54304">
        <ele>323</ele>
        <time>2021-01-12T14:25:39Z</time>
      </trkpt>
      <trkpt lat="43.49857" lon="5.54301">
        <ele>323</ele>
        <time>2021-01-12T14:25:41Z</time>
      </trkpt>
      <trkpt lat="43.49857" lon="5.54298">
        <ele>322</ele>
        <time>2021-01-12T14:25:43Z</time>
      </trkpt>
      <trkpt lat="43.49857" lon="5.54296">
        <ele>323</ele>
        <time>2021-01-12T14:25:45Z</time>
      </trkpt>
      <trkpt lat="43.49858" lon="5.54293">
        <ele>322</ele>
        <time>2021-01-12T14:25:47Z</time>
      </trkpt>
      <trkpt lat="43.49858" lon="5.5429">
        <ele>321</ele>
        <time>2021-01-12T14:25:50Z</time>
      </trkpt>
      <trkpt lat="43.49859" lon="5.54287">
        <ele>320</ele>
        <time>2021-01-12T14:25:53Z</time>
      </trkpt>
      <trkpt lat="43.4986" lon="5.54285">
        <ele>320</ele>
        <time>2021-01-12T14:25:55Z</time>
      </trkpt>
      <trkpt lat="43.49861" lon="5.54282">
        <ele>320</ele>
        <time>2021-01-12T14:25:57Z</time>
      </trkpt>
      <trkpt lat="43.49863" lon="5.54279">
        <ele>320</ele>
        <time>2021-01-12T14:26:00Z</time>
      </trkpt>
      <trkpt lat="43.49864" lon="5.54275">
        <ele>319</ele>
        <time>2021-01-12T14:26:03Z</time>
      </trkpt>
      <trkpt lat="43.49864" lon="5.54272">
        <ele>319</ele>
        <time>2021-01-12T14:26:05Z</time>
      </trkpt>
      <trkpt lat="43.49865" lon="5.54269">
        <ele>319</ele>
        <time>2021-01-12T14:26:07Z</time>
      </trkpt>
      <trkpt lat="43.49865" lon="5.54266">
        <ele>318</ele>
        <time>2021-01-12T14:26:09Z</time>
      </trkpt>
      <trkpt lat="43.49867" lon="5.54264">
        <ele>318</ele>
        <time>2021-01-12T14:26:11Z</time>
      </trkpt>
      <trkpt lat="43.49868" lon="5.54261">
        <ele>318</ele>
        <time>2021-01-12T14:26:14Z</time>
      </trkpt>
      <trkpt lat="43.49868" lon="5.54257">
        <ele>319</ele>
        <time>2021-01-12T14:26:16Z</time>
      </trkpt>
      <trkpt lat="43.49869" lon="5.54254">
        <ele>318</ele>
        <time>2021-01-12T14:26:19Z</time>
      </trkpt>
      <trkpt lat="43.49869" lon="5.54251">
        <ele>319</ele>
        <time>2021-01-12T14:26:21Z</time>
      </trkpt>
      <trkpt lat="43.49869" lon="5.54248">
        <ele>319</ele>
        <time>2021-01-12T14:26:23Z</time>
      </trkpt>
      <trkpt lat="43.49869" lon="5.54245">
        <ele>318</ele>
        <time>2021-01-12T14:26:26Z</time>
      </trkpt>
      <trkpt lat="43.4987" lon="5.54242">
        <ele>318</ele>
        <time>2021-01-12T14:26:28Z</time>
      </trkpt>
      <trkpt lat="43.49871" lon="5.54239">
        <ele>319</ele>
        <time>2021-01-12T14:26:30Z</time>
      </trkpt>
      <trkpt lat="43.49872" lon="5.54236">
        <ele>319</ele>
        <time>2021-01-12T14:26:32Z</time>
      </trkpt>
      <trkpt lat="43.49872" lon="5.54234">
        <ele>319</ele>
        <time>2021-01-12T14:26:34Z</time>
      </trkpt>
      <trkpt lat="43.49873" lon="5.5423">
        <ele>320</ele>
        <time>2021-01-12T14:26:37Z</time>
      </trkpt>
      <trkpt lat="43.49873" lon="5.54228">
        <ele>319</ele>
        <time>2021-01-12T14:26:39Z</time>
      </trkpt>
      <trkpt lat="43.49874" lon="5.54225">
        <ele>318</ele>
        <time>2021-01-12T14:26:41Z</time>
      </trkpt>
      <trkpt lat="43.49874" lon="5.54222">
        <ele>318</ele>
        <time>2021-01-12T14:26:43Z</time>
      </trkpt>
      <trkpt lat="43.49874" lon="5.54219">
        <ele>318</ele>
        <time>2021-01-12T14:26:45Z</time>
      </trkpt>
      <trkpt lat="43.49874" lon="5.54216">
        <ele>317</ele>
        <time>2021-01-12T14:26:47Z</time>
      </trkpt>
      <trkpt lat="43.49875" lon="5.54213">
        <ele>318</ele>
        <time>2021-01-12T14:26:49Z</time>
      </trkpt>
      <trkpt lat="43.49876" lon="5.54211">
        <ele>318</ele>
        <time>2021-01-12T14:26:51Z</time>
      </trkpt>
      <trkpt lat="43.49877" lon="5.54208">
        <ele>318</ele>
        <time>2021-01-12T14:26:53Z</time>
      </trkpt>
      <trkpt lat="43.49877" lon="5.54205">
        <ele>319</ele>
        <time>2021-01-12T14:26:55Z</time>
      </trkpt>
      <trkpt lat="43.49878" lon="5.54203">
        <ele>319</ele>
        <time>2021-01-12T14:26:57Z</time>
      </trkpt>
      <trkpt lat="43.49879" lon="5.542">
        <ele>319</ele>
        <time>2021-01-12T14:27:00Z</time>
      </trkpt>
      <trkpt lat="43.49881" lon="5.54196">
        <ele>319</ele>
        <time>2021-01-12T14:27:06Z</time>
      </trkpt>
      <trkpt lat="43.49882" lon="5.54193">
        <ele>318</ele>
        <time>2021-01-12T14:27:09Z</time>
      </trkpt>
      <trkpt lat="43.49882" lon="5.5419">
        <ele>318</ele>
        <time>2021-01-12T14:27:12Z</time>
      </trkpt>
      <trkpt lat="43.49882" lon="5.54186">
        <ele>318</ele>
        <time>2021-01-12T14:27:15Z</time>
      </trkpt>
      <trkpt lat="43.49881" lon="5.54183">
        <ele>318</ele>
        <time>2021-01-12T14:27:18Z</time>
      </trkpt>
      <trkpt lat="43.49882" lon="5.54181">
        <ele>318</ele>
        <time>2021-01-12T14:27:20Z</time>
      </trkpt>
      <trkpt lat="43.49881" lon="5.54178">
        <ele>317</ele>
        <time>2021-01-12T14:27:22Z</time>
      </trkpt>
      <trkpt lat="43.49881" lon="5.54175">
        <ele>317</ele>
        <time>2021-01-12T14:27:25Z</time>
      </trkpt>
      <trkpt lat="43.49881" lon="5.54172">
        <ele>317</ele>
        <time>2021-01-12T14:27:27Z</time>
      </trkpt>
      <trkpt lat="43.49881" lon="5.54169">
        <ele>317</ele>
        <time>2021-01-12T14:27:29Z</time>
      </trkpt>
      <trkpt lat="43.49882" lon="5.54166">
        <ele>317</ele>
        <time>2021-01-12T14:27:32Z</time>
      </trkpt>
      <trkpt lat="43.49883" lon="5.54163">
        <ele>317</ele>
        <time>2021-01-12T14:27:34Z</time>
      </trkpt>
      <trkpt lat="43.49883" lon="5.54161">
        <ele>316</ele>
        <time>2021-01-12T14:27:36Z</time>
      </trkpt>
      <trkpt lat="43.49884" lon="5.54157">
        <ele>316</ele>
        <time>2021-01-12T14:27:38Z</time>
      </trkpt>
      <trkpt lat="43.49884" lon="5.54154">
        <ele>317</ele>
        <time>2021-01-12T14:27:40Z</time>
      </trkpt>
      <trkpt lat="43.49884" lon="5.54151">
        <ele>317</ele>
        <time>2021-01-12T14:27:42Z</time>
      </trkpt>
      <trkpt lat="43.49884" lon="5.54147">
        <ele>317</ele>
        <time>2021-01-12T14:27:44Z</time>
      </trkpt>
      <trkpt lat="43.49884" lon="5.54144">
        <ele>316</ele>
        <time>2021-01-12T14:27:46Z</time>
      </trkpt>
      <trkpt lat="43.49884" lon="5.54141">
        <ele>316</ele>
        <time>2021-01-12T14:27:48Z</time>
      </trkpt>
      <trkpt lat="43.49884" lon="5.54138">
        <ele>317</ele>
        <time>2021-01-12T14:27:50Z</time>
      </trkpt>
      <trkpt lat="43.49884" lon="5.54136">
        <ele>317</ele>
        <time>2021-01-12T14:27:52Z</time>
      </trkpt>
      <trkpt lat="43.49885" lon="5.54133">
        <ele>317</ele>
        <time>2021-01-12T14:27:54Z</time>
      </trkpt>
      <trkpt lat="43.49885" lon="5.5413">
        <ele>318</ele>
        <time>2021-01-12T14:27:56Z</time>
      </trkpt>
      <trkpt lat="43.49885" lon="5.54128">
        <ele>318</ele>
        <time>2021-01-12T14:27:58Z</time>
      </trkpt>
      <trkpt lat="43.49886" lon="5.54124">
        <ele>318</ele>
        <time>2021-01-12T14:28:01Z</time>
      </trkpt>
      <trkpt lat="43.49887" lon="5.54122">
        <ele>318</ele>
        <time>2021-01-12T14:28:03Z</time>
      </trkpt>
      <trkpt lat="43.49888" lon="5.54119">
        <ele>317</ele>
        <time>2021-01-12T14:28:06Z</time>
      </trkpt>
      <trkpt lat="43.49888" lon="5.54116">
        <ele>317</ele>
        <time>2021-01-12T14:28:09Z</time>
      </trkpt>
      <trkpt lat="43.49888" lon="5.54114">
        <ele>318</ele>
        <time>2021-01-12T14:28:11Z</time>
      </trkpt>
      <trkpt lat="43.49889" lon="5.5411">
        <ele>318</ele>
        <time>2021-01-12T14:28:14Z</time>
      </trkpt>
      <trkpt lat="43.49889" lon="5.54107">
        <ele>318</ele>
        <time>2021-01-12T14:28:16Z</time>
      </trkpt>
      <trkpt lat="43.49889" lon="5.54103">
        <ele>317</ele>
        <time>2021-01-12T14:28:19Z</time>
      </trkpt>
      <trkpt lat="43.49889" lon="5.541">
        <ele>317</ele>
        <time>2021-01-12T14:28:21Z</time>
      </trkpt>
      <trkpt lat="43.49888" lon="5.54097">
        <ele>317</ele>
        <time>2021-01-12T14:28:23Z</time>
      </trkpt>
      <trkpt lat="43.49889" lon="5.54095">
        <ele>317</ele>
        <time>2021-01-12T14:28:25Z</time>
      </trkpt>
      <trkpt lat="43.49887" lon="5.54091">
        <ele>316</ele>
        <time>2021-01-12T14:28:28Z</time>
      </trkpt>
      <trkpt lat="43.49888" lon="5.54088">
        <ele>315</ele>
        <time>2021-01-12T14:28:30Z</time>
      </trkpt>
      <trkpt lat="43.49888" lon="5.54085">
        <ele>315</ele>
        <time>2021-01-12T14:28:32Z</time>
      </trkpt>
      <trkpt lat="43.49888" lon="5.54081">
        <ele>314</ele>
        <time>2021-01-12T14:28:34Z</time>
      </trkpt>
      <trkpt lat="43.49888" lon="5.54079">
        <ele>314</ele>
        <time>2021-01-12T14:28:36Z</time>
      </trkpt>
      <trkpt lat="43.49889" lon="5.54076">
        <ele>314</ele>
        <time>2021-01-12T14:28:38Z</time>
      </trkpt>
      <trkpt lat="43.49889" lon="5.54073">
        <ele>315</ele>
        <time>2021-01-12T14:28:41Z</time>
      </trkpt>
      <trkpt lat="43.4989" lon="5.5407">
        <ele>314</ele>
        <time>2021-01-12T14:28:43Z</time>
      </trkpt>
      <trkpt lat="43.4989" lon="5.54067">
        <ele>314</ele>
        <time>2021-01-12T14:28:45Z</time>
      </trkpt>
      <trkpt lat="43.4989" lon="5.54064">
        <ele>313</ele>
        <time>2021-01-12T14:28:47Z</time>
      </trkpt>
      <trkpt lat="43.49889" lon="5.5406">
        <ele>315</ele>
        <time>2021-01-12T14:28:50Z</time>
      </trkpt>
      <trkpt lat="43.4989" lon="5.54057">
        <ele>316</ele>
        <time>2021-01-12T14:28:53Z</time>
      </trkpt>
      <trkpt lat="43.4989" lon="5.54053">
        <ele>317</ele>
        <time>2021-01-12T14:28:56Z</time>
      </trkpt>
      <trkpt lat="43.4989" lon="5.5405">
        <ele>317</ele>
        <time>2021-01-12T14:28:59Z</time>
      </trkpt>
      <trkpt lat="43.4989" lon="5.54047">
        <ele>317</ele>
        <time>2021-01-12T14:29:02Z</time>
      </trkpt>
      <trkpt lat="43.4989" lon="5.54045">
        <ele>318</ele>
        <time>2021-01-12T14:29:04Z</time>
      </trkpt>
      <trkpt lat="43.4989" lon="5.54042">
        <ele>318</ele>
        <time>2021-01-12T14:29:07Z</time>
      </trkpt>
      <trkpt lat="43.49891" lon="5.54039">
        <ele>316</ele>
        <time>2021-01-12T14:29:10Z</time>
      </trkpt>
      <trkpt lat="43.49892" lon="5.54037">
        <ele>317</ele>
        <time>2021-01-12T14:29:12Z</time>
      </trkpt>
      <trkpt lat="43.49892" lon="5.54034">
        <ele>316</ele>
        <time>2021-01-12T14:29:14Z</time>
      </trkpt>
      <trkpt lat="43.49892" lon="5.54031">
        <ele>315</ele>
        <time>2021-01-12T14:29:16Z</time>
      </trkpt>
      <trkpt lat="43.49892" lon="5.54027">
        <ele>314</ele>
        <time>2021-01-12T14:29:18Z</time>
      </trkpt>
      <trkpt lat="43.49893" lon="5.54024">
        <ele>315</ele>
        <time>2021-01-12T14:29:21Z</time>
      </trkpt>
      <trkpt lat="43.49893" lon="5.5402">
        <ele>316</ele>
        <time>2021-01-12T14:29:23Z</time>
      </trkpt>
      <trkpt lat="43.49893" lon="5.54017">
        <ele>316</ele>
        <time>2021-01-12T14:29:25Z</time>
      </trkpt>
      <trkpt lat="43.49893" lon="5.54014">
        <ele>316</ele>
        <time>2021-01-12T14:29:27Z</time>
      </trkpt>
      <trkpt lat="43.49893" lon="5.54011">
        <ele>315</ele>
        <time>2021-01-12T14:29:29Z</time>
      </trkpt>
      <trkpt lat="43.49894" lon="5.54009">
        <ele>315</ele>
        <time>2021-01-12T14:29:31Z</time>
      </trkpt>
      <trkpt lat="43.49894" lon="5.54006">
        <ele>315</ele>
        <time>2021-01-12T14:29:33Z</time>
      </trkpt>
      <trkpt lat="43.49896" lon="5.54003">
        <ele>316</ele>
        <time>2021-01-12T14:29:35Z</time>
      </trkpt>
      <trkpt lat="43.49896" lon="5.54">
        <ele>316</ele>
        <time>2021-01-12T14:29:37Z</time>
      </trkpt>
      <trkpt lat="43.49896" lon="5.53997">
        <ele>317</ele>
        <time>2021-01-12T14:29:40Z</time>
      </trkpt>
      <trkpt lat="43.49896" lon="5.53994">
        <ele>317</ele>
        <time>2021-01-12T14:29:42Z</time>
      </trkpt>
      <trkpt lat="43.49896" lon="5.53991">
        <ele>316</ele>
        <time>2021-01-12T14:29:44Z</time>
      </trkpt>
      <trkpt lat="43.49897" lon="5.53988">
        <ele>317</ele>
        <time>2021-01-12T14:29:47Z</time>
      </trkpt>
      <trkpt lat="43.49897" lon="5.53984">
        <ele>316</ele>
        <time>2021-01-12T14:29:50Z</time>
      </trkpt>
      <trkpt lat="43.49896" lon="5.53981">
        <ele>316</ele>
        <time>2021-01-12T14:29:53Z</time>
      </trkpt>
      <trkpt lat="43.49896" lon="5.53978">
        <ele>316</ele>
        <time>2021-01-12T14:29:56Z</time>
      </trkpt>
      <trkpt lat="43.49897" lon="5.53975">
        <ele>316</ele>
        <time>2021-01-12T14:29:58Z</time>
      </trkpt>
      <trkpt lat="43.49896" lon="5.53972">
        <ele>316</ele>
        <time>2021-01-12T14:30:00Z</time>
      </trkpt>
      <trkpt lat="43.49896" lon="5.53969">
        <ele>316</ele>
        <time>2021-01-12T14:30:03Z</time>
      </trkpt>
      <trkpt lat="43.49897" lon="5.53966">
        <ele>316</ele>
        <time>2021-01-12T14:30:05Z</time>
      </trkpt>
      <trkpt lat="43.49897" lon="5.53964">
        <ele>316</ele>
        <time>2021-01-12T14:30:07Z</time>
      </trkpt>
      <trkpt lat="43.49897" lon="5.53961">
        <ele>316</ele>
        <time>2021-01-12T14:30:09Z</time>
      </trkpt>
      <trkpt lat="43.49898" lon="5.53958">
        <ele>317</ele>
        <time>2021-01-12T14:30:11Z</time>
      </trkpt>
      <trkpt lat="43.49898" lon="5.53955">
        <ele>317</ele>
        <time>2021-01-12T14:30:13Z</time>
      </trkpt>
      <trkpt lat="43.49898" lon="5.53953">
        <ele>317</ele>
        <time>2021-01-12T14:30:15Z</time>
      </trkpt>
      <trkpt lat="43.49898" lon="5.5395">
        <ele>316</ele>
        <time>2021-01-12T14:30:17Z</time>
      </trkpt>
      <trkpt lat="43.49897" lon="5.53947">
        <ele>315</ele>
        <time>2021-01-12T14:30:19Z</time>
      </trkpt>
      <trkpt lat="43.49898" lon="5.53944">
        <ele>315</ele>
        <time>2021-01-12T14:30:21Z</time>
      </trkpt>
      <trkpt lat="43.49897" lon="5.5394">
        <ele>315</ele>
        <time>2021-01-12T14:30:24Z</time>
      </trkpt>
      <trkpt lat="43.49896" lon="5.53938">
        <ele>315</ele>
        <time>2021-01-12T14:30:26Z</time>
      </trkpt>
      <trkpt lat="43.49897" lon="5.53934">
        <ele>315</ele>
        <time>2021-01-12T14:30:28Z</time>
      </trkpt>
      <trkpt lat="43.49897" lon="5.5393">
        <ele>315</ele>
        <time>2021-01-12T14:30:30Z</time>
      </trkpt>
      <trkpt lat="43.49898" lon="5.53927">
        <ele>316</ele>
        <time>2021-01-12T14:30:32Z</time>
      </trkpt>
      <trkpt lat="43.49898" lon="5.53925">
        <ele>315</ele>
        <time>2021-01-12T14:30:34Z</time>
      </trkpt>
      <trkpt lat="43.49899" lon="5.53922">
        <ele>316</ele>
        <time>2021-01-12T14:30:36Z</time>
      </trkpt>
      <trkpt lat="43.499" lon="5.5392">
        <ele>317</ele>
        <time>2021-01-12T14:30:38Z</time>
      </trkpt>
      <trkpt lat="43.49901" lon="5.53917">
        <ele>316</ele>
        <time>2021-01-12T14:30:41Z</time>
      </trkpt>
      <trkpt lat="43.49902" lon="5.53914">
        <ele>316</ele>
        <time>2021-01-12T14:30:44Z</time>
      </trkpt>
      <trkpt lat="43.49903" lon="5.53912">
        <ele>316</ele>
        <time>2021-01-12T14:30:46Z</time>
      </trkpt>
      <trkpt lat="43.49905" lon="5.5391">
        <ele>315</ele>
        <time>2021-01-12T14:30:48Z</time>
      </trkpt>
      <trkpt lat="43.49906" lon="5.53906">
        <ele>315</ele>
        <time>2021-01-12T14:30:51Z</time>
      </trkpt>
      <trkpt lat="43.49908" lon="5.53904">
        <ele>315</ele>
        <time>2021-01-12T14:30:53Z</time>
      </trkpt>
      <trkpt lat="43.49909" lon="5.53902">
        <ele>315</ele>
        <time>2021-01-12T14:30:56Z</time>
      </trkpt>
      <trkpt lat="43.4991" lon="5.53899">
        <ele>316</ele>
        <time>2021-01-12T14:30:58Z</time>
      </trkpt>
      <trkpt lat="43.49911" lon="5.53897">
        <ele>316</ele>
        <time>2021-01-12T14:31:00Z</time>
      </trkpt>
      <trkpt lat="43.49913" lon="5.53895">
        <ele>316</ele>
        <time>2021-01-12T14:31:02Z</time>
      </trkpt>
      <trkpt lat="43.49915" lon="5.53893">
        <ele>317</ele>
        <time>2021-01-12T14:31:04Z</time>
      </trkpt>
      <trkpt lat="43.49916" lon="5.53891">
        <ele>317</ele>
        <time>2021-01-12T14:31:06Z</time>
      </trkpt>
      <trkpt lat="43.49918" lon="5.53888">
        <ele>316</ele>
        <time>2021-01-12T14:31:09Z</time>
      </trkpt>
      <trkpt lat="43.4992" lon="5.53886">
        <ele>317</ele>
        <time>2021-01-12T14:31:11Z</time>
      </trkpt>
      <trkpt lat="43.49921" lon="5.53884">
        <ele>317</ele>
        <time>2021-01-12T14:31:13Z</time>
      </trkpt>
      <trkpt lat="43.49922" lon="5.53881">
        <ele>316</ele>
        <time>2021-01-12T14:31:16Z</time>
      </trkpt>
      <trkpt lat="43.49924" lon="5.53879">
        <ele>317</ele>
        <time>2021-01-12T14:31:19Z</time>
      </trkpt>
      <trkpt lat="43.49925" lon="5.53876">
        <ele>317</ele>
        <time>2021-01-12T14:31:21Z</time>
      </trkpt>
      <trkpt lat="43.49927" lon="5.53873">
        <ele>318</ele>
        <time>2021-01-12T14:31:24Z</time>
      </trkpt>
      <trkpt lat="43.49927" lon="5.53871">
        <ele>318</ele>
        <time>2021-01-12T14:31:26Z</time>
      </trkpt>
      <trkpt lat="43.49927" lon="5.53868">
        <ele>317</ele>
        <time>2021-01-12T14:31:29Z</time>
      </trkpt>
      <trkpt lat="43.49927" lon="5.53864">
        <ele>317</ele>
        <time>2021-01-12T14:31:32Z</time>
      </trkpt>
      <trkpt lat="43.49928" lon="5.53861">
        <ele>318</ele>
        <time>2021-01-12T14:31:35Z</time>
      </trkpt>
      <trkpt lat="43.49929" lon="5.53858">
        <ele>317</ele>
        <time>2021-01-12T14:31:37Z</time>
      </trkpt>
      <trkpt lat="43.49929" lon="5.53855">
        <ele>317</ele>
        <time>2021-01-12T14:31:39Z</time>
      </trkpt>
      <trkpt lat="43.49931" lon="5.53852">
        <ele>317</ele>
        <time>2021-01-12T14:31:41Z</time>
      </trkpt>
      <trkpt lat="43.49931" lon="5.5385">
        <ele>317</ele>
        <time>2021-01-12T14:31:43Z</time>
      </trkpt>
      <trkpt lat="43.49932" lon="5.53847">
        <ele>317</ele>
        <time>2021-01-12T14:31:46Z</time>
      </trkpt>
      <trkpt lat="43.49933" lon="5.53843">
        <ele>317</ele>
        <time>2021-01-12T14:31:48Z</time>
      </trkpt>
      <trkpt lat="43.49932" lon="5.53841">
        <ele>317</ele>
        <time>2021-01-12T14:31:50Z</time>
      </trkpt>
      <trkpt lat="43.49933" lon="5.53838">
        <ele>316</ele>
        <time>2021-01-12T14:31:52Z</time>
      </trkpt>
      <trkpt lat="43.49933" lon="5.53834">
        <ele>316</ele>
        <time>2021-01-12T14:31:55Z</time>
      </trkpt>
      <trkpt lat="43.49933" lon="5.53832">
        <ele>316</ele>
        <time>2021-01-12T14:31:57Z</time>
      </trkpt>
      <trkpt lat="43.49933" lon="5.53828">
        <ele>315</ele>
        <time>2021-01-12T14:32:00Z</time>
      </trkpt>
      <trkpt lat="43.49933" lon="5.53825">
        <ele>314</ele>
        <time>2021-01-12T14:32:02Z</time>
      </trkpt>
      <trkpt lat="43.49934" lon="5.53823">
        <ele>314</ele>
        <time>2021-01-12T14:32:04Z</time>
      </trkpt>
      <trkpt lat="43.49933" lon="5.5382">
        <ele>313</ele>
        <time>2021-01-12T14:32:06Z</time>
      </trkpt>
      <trkpt lat="43.49933" lon="5.53817">
        <ele>312</ele>
        <time>2021-01-12T14:32:08Z</time>
      </trkpt>
      <trkpt lat="43.49933" lon="5.53815">
        <ele>312</ele>
        <time>2021-01-12T14:32:10Z</time>
      </trkpt>
      <trkpt lat="43.49933" lon="5.53812">
        <ele>311</ele>
        <time>2021-01-12T14:32:12Z</time>
      </trkpt>
      <trkpt lat="43.49933" lon="5.53808">
        <ele>310</ele>
        <time>2021-01-12T14:32:14Z</time>
      </trkpt>
      <trkpt lat="43.49933" lon="5.53804">
        <ele>310</ele>
        <time>2021-01-12T14:32:16Z</time>
      </trkpt>
      <trkpt lat="43.49933" lon="5.53801">
        <ele>309</ele>
        <time>2021-01-12T14:32:18Z</time>
      </trkpt>
      <trkpt lat="43.49933" lon="5.53798">
        <ele>308</ele>
        <time>2021-01-12T14:32:20Z</time>
      </trkpt>
      <trkpt lat="43.49933" lon="5.53795">
        <ele>308</ele>
        <time>2021-01-12T14:32:23Z</time>
      </trkpt>
      <trkpt lat="43.49934" lon="5.53793">
        <ele>309</ele>
        <time>2021-01-12T14:32:25Z</time>
      </trkpt>
      <trkpt lat="43.49935" lon="5.5379">
        <ele>309</ele>
        <time>2021-01-12T14:32:27Z</time>
      </trkpt>
      <trkpt lat="43.49935" lon="5.53788">
        <ele>309</ele>
        <time>2021-01-12T14:32:29Z</time>
      </trkpt>
      <trkpt lat="43.49936" lon="5.53785">
        <ele>309</ele>
        <time>2021-01-12T14:32:31Z</time>
      </trkpt>
      <trkpt lat="43.49936" lon="5.53782">
        <ele>308</ele>
        <time>2021-01-12T14:32:33Z</time>
      </trkpt>
      <trkpt lat="43.49936" lon="5.53779">
        <ele>308</ele>
        <time>2021-01-12T14:32:36Z</time>
      </trkpt>
      <trkpt lat="43.49936" lon="5.53776">
        <ele>308</ele>
        <time>2021-01-12T14:32:38Z</time>
      </trkpt>
      <trkpt lat="43.49937" lon="5.53774">
        <ele>308</ele>
        <time>2021-01-12T14:32:40Z</time>
      </trkpt>
      <trkpt lat="43.49936" lon="5.53771">
        <ele>308</ele>
        <time>2021-01-12T14:32:42Z</time>
      </trkpt>
      <trkpt lat="43.49936" lon="5.53768">
        <ele>308</ele>
        <time>2021-01-12T14:32:44Z</time>
      </trkpt>
      <trkpt lat="43.49937" lon="5.53765">
        <ele>308</ele>
        <time>2021-01-12T14:32:46Z</time>
      </trkpt>
      <trkpt lat="43.49937" lon="5.53763">
        <ele>308</ele>
        <time>2021-01-12T14:32:48Z</time>
      </trkpt>
      <trkpt lat="43.49937" lon="5.53759">
        <ele>308</ele>
        <time>2021-01-12T14:32:50Z</time>
      </trkpt>
      <trkpt lat="43.49938" lon="5.53756">
        <ele>308</ele>
        <time>2021-01-12T14:32:52Z</time>
      </trkpt>
      <trkpt lat="43.49938" lon="5.53754">
        <ele>308</ele>
        <time>2021-01-12T14:32:54Z</time>
      </trkpt>
      <trkpt lat="43.49938" lon="5.53751">
        <ele>308</ele>
        <time>2021-01-12T14:32:56Z</time>
      </trkpt>
      <trkpt lat="43.49939" lon="5.53747">
        <ele>307</ele>
        <time>2021-01-12T14:32:58Z</time>
      </trkpt>
      <trkpt lat="43.49939" lon="5.53744">
        <ele>307</ele>
        <time>2021-01-12T14:33:00Z</time>
      </trkpt>
      <trkpt lat="43.4994" lon="5.53742">
        <ele>307</ele>
        <time>2021-01-12T14:33:02Z</time>
      </trkpt>
      <trkpt lat="43.49941" lon="5.53739">
        <ele>308</ele>
        <time>2021-01-12T14:33:05Z</time>
      </trkpt>
      <trkpt lat="43.49942" lon="5.53736">
        <ele>309</ele>
        <time>2021-01-12T14:33:07Z</time>
      </trkpt>
      <trkpt lat="43.49943" lon="5.53734">
        <ele>309</ele>
        <time>2021-01-12T14:33:10Z</time>
      </trkpt>
      <trkpt lat="43.49945" lon="5.53731">
        <ele>309</ele>
        <time>2021-01-12T14:33:13Z</time>
      </trkpt>
      <trkpt lat="43.49946" lon="5.53727">
        <ele>309</ele>
        <time>2021-01-12T14:33:15Z</time>
      </trkpt>
      <trkpt lat="43.49948" lon="5.53725">
        <ele>308</ele>
        <time>2021-01-12T14:33:17Z</time>
      </trkpt>
      <trkpt lat="43.49949" lon="5.53723">
        <ele>308</ele>
        <time>2021-01-12T14:33:19Z</time>
      </trkpt>
      <trkpt lat="43.4995" lon="5.53721">
        <ele>307</ele>
        <time>2021-01-12T14:33:21Z</time>
      </trkpt>
      <trkpt lat="43.49951" lon="5.53718">
        <ele>307</ele>
        <time>2021-01-12T14:33:24Z</time>
      </trkpt>
      <trkpt lat="43.49953" lon="5.53715">
        <ele>307</ele>
        <time>2021-01-12T14:33:27Z</time>
      </trkpt>
      <trkpt lat="43.49954" lon="5.53713">
        <ele>306</ele>
        <time>2021-01-12T14:33:29Z</time>
      </trkpt>
      <trkpt lat="43.49955" lon="5.53709">
        <ele>305</ele>
        <time>2021-01-12T14:33:32Z</time>
      </trkpt>
      <trkpt lat="43.49956" lon="5.53706">
        <ele>306</ele>
        <time>2021-01-12T14:33:34Z</time>
      </trkpt>
      <trkpt lat="43.49956" lon="5.53704">
        <ele>306</ele>
        <time>2021-01-12T14:33:36Z</time>
      </trkpt>
      <trkpt lat="43.49956" lon="5.53701">
        <ele>305</ele>
        <time>2021-01-12T14:33:38Z</time>
      </trkpt>
      <trkpt lat="43.49957" lon="5.53697">
        <ele>306</ele>
        <time>2021-01-12T14:33:40Z</time>
      </trkpt>
      <trkpt lat="43.49958" lon="5.53694">
        <ele>306</ele>
        <time>2021-01-12T14:33:42Z</time>
      </trkpt>
      <trkpt lat="43.49959" lon="5.53692">
        <ele>306</ele>
        <time>2021-01-12T14:33:44Z</time>
      </trkpt>
      <trkpt lat="43.4996" lon="5.53688">
        <ele>306</ele>
        <time>2021-01-12T14:33:46Z</time>
      </trkpt>
      <trkpt lat="43.49961" lon="5.53686">
        <ele>307</ele>
        <time>2021-01-12T14:33:48Z</time>
      </trkpt>
      <trkpt lat="43.49962" lon="5.53683">
        <ele>307</ele>
        <time>2021-01-12T14:33:50Z</time>
      </trkpt>
      <trkpt lat="43.49962" lon="5.5368">
        <ele>307</ele>
        <time>2021-01-12T14:33:52Z</time>
      </trkpt>
      <trkpt lat="43.49962" lon="5.53677">
        <ele>307</ele>
        <time>2021-01-12T14:33:54Z</time>
      </trkpt>
      <trkpt lat="43.49963" lon="5.53674">
        <ele>308</ele>
        <time>2021-01-12T14:33:56Z</time>
      </trkpt>
      <trkpt lat="43.49963" lon="5.5367">
        <ele>308</ele>
        <time>2021-01-12T14:33:59Z</time>
      </trkpt>
      <trkpt lat="43.49964" lon="5.53668">
        <ele>308</ele>
        <time>2021-01-12T14:34:01Z</time>
      </trkpt>
      <trkpt lat="43.49964" lon="5.53664">
        <ele>309</ele>
        <time>2021-01-12T14:34:04Z</time>
      </trkpt>
      <trkpt lat="43.49963" lon="5.53661">
        <ele>308</ele>
        <time>2021-01-12T14:34:06Z</time>
      </trkpt>
      <trkpt lat="43.49963" lon="5.53657">
        <ele>307</ele>
        <time>2021-01-12T14:34:09Z</time>
      </trkpt>
      <trkpt lat="43.49961" lon="5.53657">
        <ele>305</ele>
        <time>2021-01-12T14:34:19Z</time>
      </trkpt>
      <trkpt lat="43.49959" lon="5.53658">
        <ele>304</ele>
        <time>2021-01-12T14:34:49Z</time>
      </trkpt>
      <trkpt lat="43.4996" lon="5.53655">
        <ele>302</ele>
        <time>2021-01-12T14:35:22Z</time>
      </trkpt>
      <trkpt lat="43.49959" lon="5.53652">
        <ele>302</ele>
        <time>2021-01-12T14:35:35Z</time>
      </trkpt>
      <trkpt lat="43.49958" lon="5.5365">
        <ele>304</ele>
        <time>2021-01-12T14:35:38Z</time>
      </trkpt>
      <trkpt lat="43.49956" lon="5.53649">
        <ele>304</ele>
        <time>2021-01-12T14:35:41Z</time>
      </trkpt>
      <trkpt lat="43.49956" lon="5.53646">
        <ele>305</ele>
        <time>2021-01-12T14:35:47Z</time>
      </trkpt>
      <trkpt lat="43.49955" lon="5.53643">
        <ele>305</ele>
        <time>2021-01-12T14:35:49Z</time>
      </trkpt>
      <trkpt lat="43.49954" lon="5.53641">
        <ele>306</ele>
        <time>2021-01-12T14:35:51Z</time>
      </trkpt>
      <trkpt lat="43.49953" lon="5.53639">
        <ele>306</ele>
        <time>2021-01-12T14:35:54Z</time>
      </trkpt>
      <trkpt lat="43.49951" lon="5.53637">
        <ele>307</ele>
        <time>2021-01-12T14:35:56Z</time>
      </trkpt>
      <trkpt lat="43.4995" lon="5.53635">
        <ele>307</ele>
        <time>2021-01-12T14:35:58Z</time>
      </trkpt>
      <trkpt lat="43.49948" lon="5.53633">
        <ele>308</ele>
        <time>2021-01-12T14:36:01Z</time>
      </trkpt>
      <trkpt lat="43.49948" lon="5.5363">
        <ele>307</ele>
        <time>2021-01-12T14:36:03Z</time>
      </trkpt>
      <trkpt lat="43.49947" lon="5.53627">
        <ele>307</ele>
        <time>2021-01-12T14:36:06Z</time>
      </trkpt>
      <trkpt lat="43.49945" lon="5.53625">
        <ele>308</ele>
        <time>2021-01-12T14:36:08Z</time>
      </trkpt>
      <trkpt lat="43.49945" lon="5.53623">
        <ele>307</ele>
        <time>2021-01-12T14:36:10Z</time>
      </trkpt>
      <trkpt lat="43.49945" lon="5.5362">
        <ele>306</ele>
        <time>2021-01-12T14:36:13Z</time>
      </trkpt>
      <trkpt lat="43.49945" lon="5.53616">
        <ele>307</ele>
        <time>2021-01-12T14:36:16Z</time>
      </trkpt>
      <trkpt lat="43.49944" lon="5.53613">
        <ele>308</ele>
        <time>2021-01-12T14:36:19Z</time>
      </trkpt>
      <trkpt lat="43.49943" lon="5.5361">
        <ele>308</ele>
        <time>2021-01-12T14:36:22Z</time>
      </trkpt>
      <trkpt lat="43.49941" lon="5.53606">
        <ele>307</ele>
        <time>2021-01-12T14:36:27Z</time>
      </trkpt>
      <trkpt lat="43.4994" lon="5.53603">
        <ele>307</ele>
        <time>2021-01-12T14:36:29Z</time>
      </trkpt>
      <trkpt lat="43.49938" lon="5.536">
        <ele>308</ele>
        <time>2021-01-12T14:36:33Z</time>
      </trkpt>
      <trkpt lat="43.49936" lon="5.53596">
        <ele>308</ele>
        <time>2021-01-12T14:36:36Z</time>
      </trkpt>
      <trkpt lat="43.49935" lon="5.53594">
        <ele>307</ele>
        <time>2021-01-12T14:36:39Z</time>
      </trkpt>
      <trkpt lat="43.49934" lon="5.53592">
        <ele>307</ele>
        <time>2021-01-12T14:36:41Z</time>
      </trkpt>
      <trkpt lat="43.49934" lon="5.53589">
        <ele>308</ele>
        <time>2021-01-12T14:36:43Z</time>
      </trkpt>
      <trkpt lat="43.49933" lon="5.53586">
        <ele>307</ele>
        <time>2021-01-12T14:36:46Z</time>
      </trkpt>
      <trkpt lat="43.49931" lon="5.53584">
        <ele>307</ele>
        <time>2021-01-12T14:36:48Z</time>
      </trkpt>
      <trkpt lat="43.4993" lon="5.53582">
        <ele>308</ele>
        <time>2021-01-12T14:36:50Z</time>
      </trkpt>
      <trkpt lat="43.49928" lon="5.5358">
        <ele>308</ele>
        <time>2021-01-12T14:36:52Z</time>
      </trkpt>
      <trkpt lat="43.49927" lon="5.53577">
        <ele>309</ele>
        <time>2021-01-12T14:36:55Z</time>
      </trkpt>
      <trkpt lat="43.49926" lon="5.53575">
        <ele>309</ele>
        <time>2021-01-12T14:36:57Z</time>
      </trkpt>
      <trkpt lat="43.49925" lon="5.53573">
        <ele>308</ele>
        <time>2021-01-12T14:36:59Z</time>
      </trkpt>
      <trkpt lat="43.49923" lon="5.5357">
        <ele>308</ele>
        <time>2021-01-12T14:37:02Z</time>
      </trkpt>
      <trkpt lat="43.49922" lon="5.53567">
        <ele>307</ele>
        <time>2021-01-12T14:37:04Z</time>
      </trkpt>
      <trkpt lat="43.49921" lon="5.53565">
        <ele>308</ele>
        <time>2021-01-12T14:37:06Z</time>
      </trkpt>
      <trkpt lat="43.4992" lon="5.53562">
        <ele>308</ele>
        <time>2021-01-12T14:37:08Z</time>
      </trkpt>
      <trkpt lat="43.49919" lon="5.5356">
        <ele>307</ele>
        <time>2021-01-12T14:37:10Z</time>
      </trkpt>
      <trkpt lat="43.49918" lon="5.53557">
        <ele>308</ele>
        <time>2021-01-12T14:37:13Z</time>
      </trkpt>
      <trkpt lat="43.49916" lon="5.53555">
        <ele>308</ele>
        <time>2021-01-12T14:37:15Z</time>
      </trkpt>
      <trkpt lat="43.49915" lon="5.53552">
        <ele>309</ele>
        <time>2021-01-12T14:37:17Z</time>
      </trkpt>
      <trkpt lat="43.49915" lon="5.53548">
        <ele>308</ele>
        <time>2021-01-12T14:37:20Z</time>
      </trkpt>
      <trkpt lat="43.49914" lon="5.53546">
        <ele>308</ele>
        <time>2021-01-12T14:37:22Z</time>
      </trkpt>
      <trkpt lat="43.49913" lon="5.53543">
        <ele>308</ele>
        <time>2021-01-12T14:37:25Z</time>
      </trkpt>
      <trkpt lat="43.49913" lon="5.5354">
        <ele>309</ele>
        <time>2021-01-12T14:37:27Z</time>
      </trkpt>
      <trkpt lat="43.49912" lon="5.53537">
        <ele>308</ele>
        <time>2021-01-12T14:37:30Z</time>
      </trkpt>
      <trkpt lat="43.49912" lon="5.53534">
        <ele>308</ele>
        <time>2021-01-12T14:37:34Z</time>
      </trkpt>
      <trkpt lat="43.49911" lon="5.53531">
        <ele>309</ele>
        <time>2021-01-12T14:37:37Z</time>
      </trkpt>
      <trkpt lat="43.4991" lon="5.53527">
        <ele>309</ele>
        <time>2021-01-12T14:37:40Z</time>
      </trkpt>
      <trkpt lat="43.4991" lon="5.53525">
        <ele>309</ele>
        <time>2021-01-12T14:37:42Z</time>
      </trkpt>
      <trkpt lat="43.49911" lon="5.53522">
        <ele>310</ele>
        <time>2021-01-12T14:37:45Z</time>
      </trkpt>
      <trkpt lat="43.4991" lon="5.53519">
        <ele>309</ele>
        <time>2021-01-12T14:37:48Z</time>
      </trkpt>
      <trkpt lat="43.49909" lon="5.53517">
        <ele>309</ele>
        <time>2021-01-12T14:37:50Z</time>
      </trkpt>
      <trkpt lat="43.49909" lon="5.53514">
        <ele>309</ele>
        <time>2021-01-12T14:37:52Z</time>
      </trkpt>
      <trkpt lat="43.49908" lon="5.53511">
        <ele>309</ele>
        <time>2021-01-12T14:37:55Z</time>
      </trkpt>
      <trkpt lat="43.49908" lon="5.53508">
        <ele>309</ele>
        <time>2021-01-12T14:37:57Z</time>
      </trkpt>
      <trkpt lat="43.49908" lon="5.53505">
        <ele>309</ele>
        <time>2021-01-12T14:37:59Z</time>
      </trkpt>
      <trkpt lat="43.49907" lon="5.53503">
        <ele>309</ele>
        <time>2021-01-12T14:38:01Z</time>
      </trkpt>
      <trkpt lat="43.49906" lon="5.53499">
        <ele>309</ele>
        <time>2021-01-12T14:38:04Z</time>
      </trkpt>
      <trkpt lat="43.49906" lon="5.53496">
        <ele>309</ele>
        <time>2021-01-12T14:38:06Z</time>
      </trkpt>
      <trkpt lat="43.49905" lon="5.53493">
        <ele>309</ele>
        <time>2021-01-12T14:38:08Z</time>
      </trkpt>
      <trkpt lat="43.49904" lon="5.53489">
        <ele>308</ele>
        <time>2021-01-12T14:38:11Z</time>
      </trkpt>
      <trkpt lat="43.49904" lon="5.53487">
        <ele>308</ele>
        <time>2021-01-12T14:38:13Z</time>
      </trkpt>
      <trkpt lat="43.49904" lon="5.53483">
        <ele>308</ele>
        <time>2021-01-12T14:38:16Z</time>
      </trkpt>
      <trkpt lat="43.49904" lon="5.5348">
        <ele>309</ele>
        <time>2021-01-12T14:38:18Z</time>
      </trkpt>
      <trkpt lat="43.49904" lon="5.53478">
        <ele>309</ele>
        <time>2021-01-12T14:38:20Z</time>
      </trkpt>
      <trkpt lat="43.49904" lon="5.53475">
        <ele>309</ele>
        <time>2021-01-12T14:38:22Z</time>
      </trkpt>
      <trkpt lat="43.49904" lon="5.53472">
        <ele>309</ele>
        <time>2021-01-12T14:38:25Z</time>
      </trkpt>
      <trkpt lat="43.49904" lon="5.53469">
        <ele>310</ele>
        <time>2021-01-12T14:38:27Z</time>
      </trkpt>
      <trkpt lat="43.49904" lon="5.53466">
        <ele>309</ele>
        <time>2021-01-12T14:38:29Z</time>
      </trkpt>
      <trkpt lat="43.49904" lon="5.53463">
        <ele>309</ele>
        <time>2021-01-12T14:38:31Z</time>
      </trkpt>
      <trkpt lat="43.49904" lon="5.53459">
        <ele>309</ele>
        <time>2021-01-12T14:38:34Z</time>
      </trkpt>
      <trkpt lat="43.49903" lon="5.53457">
        <ele>309</ele>
        <time>2021-01-12T14:38:36Z</time>
      </trkpt>
      <trkpt lat="43.49903" lon="5.53453">
        <ele>309</ele>
        <time>2021-01-12T14:38:39Z</time>
      </trkpt>
      <trkpt lat="43.49904" lon="5.53451">
        <ele>309</ele>
        <time>2021-01-12T14:38:41Z</time>
      </trkpt>
      <trkpt lat="43.49903" lon="5.53448">
        <ele>309</ele>
        <time>2021-01-12T14:38:43Z</time>
      </trkpt>
      <trkpt lat="43.49904" lon="5.53445">
        <ele>309</ele>
        <time>2021-01-12T14:38:45Z</time>
      </trkpt>
      <trkpt lat="43.49904" lon="5.53442">
        <ele>310</ele>
        <time>2021-01-12T14:38:47Z</time>
      </trkpt>
      <trkpt lat="43.49904" lon="5.53439">
        <ele>310</ele>
        <time>2021-01-12T14:38:49Z</time>
      </trkpt>
      <trkpt lat="43.49904" lon="5.53436">
        <ele>309</ele>
        <time>2021-01-12T14:38:52Z</time>
      </trkpt>
      <trkpt lat="43.49904" lon="5.53433">
        <ele>309</ele>
        <time>2021-01-12T14:38:54Z</time>
      </trkpt>
      <trkpt lat="43.49905" lon="5.5343">
        <ele>308</ele>
        <time>2021-01-12T14:38:56Z</time>
      </trkpt>
      <trkpt lat="43.49905" lon="5.53427">
        <ele>309</ele>
        <time>2021-01-12T14:38:58Z</time>
      </trkpt>
      <trkpt lat="43.49904" lon="5.53424">
        <ele>309</ele>
        <time>2021-01-12T14:39:00Z</time>
      </trkpt>
      <trkpt lat="43.49904" lon="5.53422">
        <ele>309</ele>
        <time>2021-01-12T14:39:02Z</time>
      </trkpt>
      <trkpt lat="43.49905" lon="5.53419">
        <ele>309</ele>
        <time>2021-01-12T14:39:05Z</time>
      </trkpt>
      <trkpt lat="43.49905" lon="5.53416">
        <ele>309</ele>
        <time>2021-01-12T14:39:08Z</time>
      </trkpt>
      <trkpt lat="43.49904" lon="5.53413">
        <ele>310</ele>
        <time>2021-01-12T14:39:10Z</time>
      </trkpt>
      <trkpt lat="43.49905" lon="5.5341">
        <ele>309</ele>
        <time>2021-01-12T14:39:12Z</time>
      </trkpt>
      <trkpt lat="43.49905" lon="5.53407">
        <ele>309</ele>
        <time>2021-01-12T14:39:14Z</time>
      </trkpt>
      <trkpt lat="43.49906" lon="5.53405">
        <ele>308</ele>
        <time>2021-01-12T14:39:16Z</time>
      </trkpt>
      <trkpt lat="43.49905" lon="5.53402">
        <ele>308</ele>
        <time>2021-01-12T14:39:18Z</time>
      </trkpt>
      <trkpt lat="43.49906" lon="5.53399">
        <ele>308</ele>
        <time>2021-01-12T14:39:20Z</time>
      </trkpt>
      <trkpt lat="43.49906" lon="5.53397">
        <ele>308</ele>
        <time>2021-01-12T14:39:22Z</time>
      </trkpt>
      <trkpt lat="43.49906" lon="5.53394">
        <ele>307</ele>
        <time>2021-01-12T14:39:24Z</time>
      </trkpt>
      <trkpt lat="43.49906" lon="5.53391">
        <ele>308</ele>
        <time>2021-01-12T14:39:26Z</time>
      </trkpt>
      <trkpt lat="43.49907" lon="5.53388">
        <ele>308</ele>
        <time>2021-01-12T14:39:29Z</time>
      </trkpt>
      <trkpt lat="43.49908" lon="5.53385">
        <ele>308</ele>
        <time>2021-01-12T14:39:31Z</time>
      </trkpt>
      <trkpt lat="43.49908" lon="5.53383">
        <ele>308</ele>
        <time>2021-01-12T14:39:33Z</time>
      </trkpt>
      <trkpt lat="43.49909" lon="5.53381">
        <ele>308</ele>
        <time>2021-01-12T14:39:35Z</time>
      </trkpt>
      <trkpt lat="43.4991" lon="5.53378">
        <ele>308</ele>
        <time>2021-01-12T14:39:37Z</time>
      </trkpt>
      <trkpt lat="43.4991" lon="5.53374">
        <ele>307</ele>
        <time>2021-01-12T14:39:40Z</time>
      </trkpt>
      <trkpt lat="43.4991" lon="5.53371">
        <ele>308</ele>
        <time>2021-01-12T14:39:42Z</time>
      </trkpt>
      <trkpt lat="43.4991" lon="5.53368">
        <ele>307</ele>
        <time>2021-01-12T14:39:45Z</time>
      </trkpt>
      <trkpt lat="43.4991" lon="5.53365">
        <ele>307</ele>
        <time>2021-01-12T14:39:47Z</time>
      </trkpt>
      <trkpt lat="43.49911" lon="5.53362">
        <ele>306</ele>
        <time>2021-01-12T14:39:49Z</time>
      </trkpt>
      <trkpt lat="43.49911" lon="5.53358">
        <ele>306</ele>
        <time>2021-01-12T14:39:52Z</time>
      </trkpt>
      <trkpt lat="43.49911" lon="5.53356">
        <ele>306</ele>
        <time>2021-01-12T14:39:54Z</time>
      </trkpt>
      <trkpt lat="43.49911" lon="5.53353">
        <ele>306</ele>
        <time>2021-01-12T14:39:56Z</time>
      </trkpt>
      <trkpt lat="43.49912" lon="5.5335">
        <ele>306</ele>
        <time>2021-01-12T14:39:58Z</time>
      </trkpt>
      <trkpt lat="43.49912" lon="5.53347">
        <ele>308</ele>
        <time>2021-01-12T14:40:01Z</time>
      </trkpt>
      <trkpt lat="43.49912" lon="5.53344">
        <ele>308</ele>
        <time>2021-01-12T14:40:03Z</time>
      </trkpt>
      <trkpt lat="43.49912" lon="5.53341">
        <ele>308</ele>
        <time>2021-01-12T14:40:06Z</time>
      </trkpt>
      <trkpt lat="43.49912" lon="5.53338">
        <ele>309</ele>
        <time>2021-01-12T14:40:09Z</time>
      </trkpt>
      <trkpt lat="43.49913" lon="5.53335">
        <ele>309</ele>
        <time>2021-01-12T14:40:11Z</time>
      </trkpt>
      <trkpt lat="43.49915" lon="5.53333">
        <ele>309</ele>
        <time>2021-01-12T14:40:14Z</time>
      </trkpt>
      <trkpt lat="43.49915" lon="5.5333">
        <ele>308</ele>
        <time>2021-01-12T14:40:17Z</time>
      </trkpt>
      <trkpt lat="43.49915" lon="5.53327">
        <ele>307</ele>
        <time>2021-01-12T14:40:20Z</time>
      </trkpt>
      <trkpt lat="43.49916" lon="5.53324">
        <ele>307</ele>
        <time>2021-01-12T14:40:22Z</time>
      </trkpt>
      <trkpt lat="43.49916" lon="5.5332">
        <ele>306</ele>
        <time>2021-01-12T14:40:24Z</time>
      </trkpt>
      <trkpt lat="43.49917" lon="5.53317">
        <ele>306</ele>
        <time>2021-01-12T14:40:26Z</time>
      </trkpt>
      <trkpt lat="43.49918" lon="5.53314">
        <ele>305</ele>
        <time>2021-01-12T14:40:29Z</time>
      </trkpt>
      <trkpt lat="43.49918" lon="5.5331">
        <ele>306</ele>
        <time>2021-01-12T14:40:31Z</time>
      </trkpt>
      <trkpt lat="43.49919" lon="5.53308">
        <ele>306</ele>
        <time>2021-01-12T14:40:33Z</time>
      </trkpt>
      <trkpt lat="43.4992" lon="5.53305">
        <ele>306</ele>
        <time>2021-01-12T14:40:36Z</time>
      </trkpt>
      <trkpt lat="43.49921" lon="5.53303">
        <ele>305</ele>
        <time>2021-01-12T14:40:38Z</time>
      </trkpt>
      <trkpt lat="43.49922" lon="5.533">
        <ele>306</ele>
        <time>2021-01-12T14:40:41Z</time>
      </trkpt>
      <trkpt lat="43.49922" lon="5.53297">
        <ele>305</ele>
        <time>2021-01-12T14:40:44Z</time>
      </trkpt>
      <trkpt lat="43.49924" lon="5.53295">
        <ele>305</ele>
        <time>2021-01-12T14:40:46Z</time>
      </trkpt>
      <trkpt lat="43.49924" lon="5.53291">
        <ele>305</ele>
        <time>2021-01-12T14:40:49Z</time>
      </trkpt>
      <trkpt lat="43.49925" lon="5.53289">
        <ele>305</ele>
        <time>2021-01-12T14:40:51Z</time>
      </trkpt>
      <trkpt lat="43.49926" lon="5.53287">
        <ele>305</ele>
        <time>2021-01-12T14:40:53Z</time>
      </trkpt>
      <trkpt lat="43.49927" lon="5.53284">
        <ele>306</ele>
        <time>2021-01-12T14:40:55Z</time>
      </trkpt>
      <trkpt lat="43.49928" lon="5.53281">
        <ele>306</ele>
        <time>2021-01-12T14:40:58Z</time>
      </trkpt>
      <trkpt lat="43.4993" lon="5.53279">
        <ele>305</ele>
        <time>2021-01-12T14:41:00Z</time>
      </trkpt>
      <trkpt lat="43.49932" lon="5.53277">
        <ele>304</ele>
        <time>2021-01-12T14:41:02Z</time>
      </trkpt>
      <trkpt lat="43.49932" lon="5.53274">
        <ele>304</ele>
        <time>2021-01-12T14:41:04Z</time>
      </trkpt>
      <trkpt lat="43.49933" lon="5.53271">
        <ele>305</ele>
        <time>2021-01-12T14:41:06Z</time>
      </trkpt>
      <trkpt lat="43.49934" lon="5.53268">
        <ele>304</ele>
        <time>2021-01-12T14:41:08Z</time>
      </trkpt>
      <trkpt lat="43.49935" lon="5.53266">
        <ele>305</ele>
        <time>2021-01-12T14:41:10Z</time>
      </trkpt>
      <trkpt lat="43.49935" lon="5.53263">
        <ele>305</ele>
        <time>2021-01-12T14:41:12Z</time>
      </trkpt>
      <trkpt lat="43.49936" lon="5.5326">
        <ele>305</ele>
        <time>2021-01-12T14:41:14Z</time>
      </trkpt>
      <trkpt lat="43.49937" lon="5.53258">
        <ele>305</ele>
        <time>2021-01-12T14:41:16Z</time>
      </trkpt>
      <trkpt lat="43.49938" lon="5.53256">
        <ele>305</ele>
        <time>2021-01-12T14:41:18Z</time>
      </trkpt>
      <trkpt lat="43.49939" lon="5.53253">
        <ele>305</ele>
        <time>2021-01-12T14:41:21Z</time>
      </trkpt>
      <trkpt lat="43.4994" lon="5.53251">
        <ele>305</ele>
        <time>2021-01-12T14:41:23Z</time>
      </trkpt>
      <trkpt lat="43.49941" lon="5.53248">
        <ele>305</ele>
        <time>2021-01-12T14:41:25Z</time>
      </trkpt>
      <trkpt lat="43.49941" lon="5.53245">
        <ele>305</ele>
        <time>2021-01-12T14:41:28Z</time>
      </trkpt>
      <trkpt lat="43.49942" lon="5.53241">
        <ele>305</ele>
        <time>2021-01-12T14:41:31Z</time>
      </trkpt>
      <trkpt lat="43.49942" lon="5.53237">
        <ele>305</ele>
        <time>2021-01-12T14:41:34Z</time>
      </trkpt>
      <trkpt lat="43.49944" lon="5.53235">
        <ele>304</ele>
        <time>2021-01-12T14:41:36Z</time>
      </trkpt>
      <trkpt lat="43.49945" lon="5.53233">
        <ele>305</ele>
        <time>2021-01-12T14:41:38Z</time>
      </trkpt>
      <trkpt lat="43.49945" lon="5.5323">
        <ele>305</ele>
        <time>2021-01-12T14:41:41Z</time>
      </trkpt>
      <trkpt lat="43.49946" lon="5.53227">
        <ele>305</ele>
        <time>2021-01-12T14:41:43Z</time>
      </trkpt>
      <trkpt lat="43.49947" lon="5.53224">
        <ele>304</ele>
        <time>2021-01-12T14:41:46Z</time>
      </trkpt>
      <trkpt lat="43.49949" lon="5.53222">
        <ele>304</ele>
        <time>2021-01-12T14:41:49Z</time>
      </trkpt>
      <trkpt lat="43.4995" lon="5.5322">
        <ele>303</ele>
        <time>2021-01-12T14:41:52Z</time>
      </trkpt>
      <trkpt lat="43.49951" lon="5.53217">
        <ele>303</ele>
        <time>2021-01-12T14:41:54Z</time>
      </trkpt>
      <trkpt lat="43.49952" lon="5.53214">
        <ele>302</ele>
        <time>2021-01-12T14:41:57Z</time>
      </trkpt>
      <trkpt lat="43.49953" lon="5.53212">
        <ele>303</ele>
        <time>2021-01-12T14:41:59Z</time>
      </trkpt>
      <trkpt lat="43.49954" lon="5.5321">
        <ele>304</ele>
        <time>2021-01-12T14:42:01Z</time>
      </trkpt>
      <trkpt lat="43.49954" lon="5.53206">
        <ele>304</ele>
        <time>2021-01-12T14:42:03Z</time>
      </trkpt>
      <trkpt lat="43.49956" lon="5.53204">
        <ele>305</ele>
        <time>2021-01-12T14:42:05Z</time>
      </trkpt>
      <trkpt lat="43.49956" lon="5.53201">
        <ele>305</ele>
        <time>2021-01-12T14:42:08Z</time>
      </trkpt>
      <trkpt lat="43.49957" lon="5.53198">
        <ele>306</ele>
        <time>2021-01-12T14:42:11Z</time>
      </trkpt>
      <trkpt lat="43.49957" lon="5.53195">
        <ele>306</ele>
        <time>2021-01-12T14:42:14Z</time>
      </trkpt>
      <trkpt lat="43.49958" lon="5.53192">
        <ele>306</ele>
        <time>2021-01-12T14:42:16Z</time>
      </trkpt>
      <trkpt lat="43.4996" lon="5.5319">
        <ele>306</ele>
        <time>2021-01-12T14:42:19Z</time>
      </trkpt>
      <trkpt lat="43.49961" lon="5.53187">
        <ele>305</ele>
        <time>2021-01-12T14:42:22Z</time>
      </trkpt>
      <trkpt lat="43.49961" lon="5.53184">
        <ele>306</ele>
        <time>2021-01-12T14:42:25Z</time>
      </trkpt>
      <trkpt lat="43.49961" lon="5.53181">
        <ele>306</ele>
        <time>2021-01-12T14:42:27Z</time>
      </trkpt>
      <trkpt lat="43.49962" lon="5.53179">
        <ele>305</ele>
        <time>2021-01-12T14:42:29Z</time>
      </trkpt>
      <trkpt lat="43.49964" lon="5.53176">
        <ele>305</ele>
        <time>2021-01-12T14:42:31Z</time>
      </trkpt>
      <trkpt lat="43.49964" lon="5.53173">
        <ele>305</ele>
        <time>2021-01-12T14:42:33Z</time>
      </trkpt>
      <trkpt lat="43.49965" lon="5.5317">
        <ele>305</ele>
        <time>2021-01-12T14:42:36Z</time>
      </trkpt>
      <trkpt lat="43.49965" lon="5.53167">
        <ele>305</ele>
        <time>2021-01-12T14:42:38Z</time>
      </trkpt>
      <trkpt lat="43.49966" lon="5.53164">
        <ele>305</ele>
        <time>2021-01-12T14:42:42Z</time>
      </trkpt>
      <trkpt lat="43.49966" lon="5.53161">
        <ele>304</ele>
        <time>2021-01-12T14:42:44Z</time>
      </trkpt>
      <trkpt lat="43.49967" lon="5.53158">
        <ele>304</ele>
        <time>2021-01-12T14:42:47Z</time>
      </trkpt>
      <trkpt lat="43.49969" lon="5.53154">
        <ele>304</ele>
        <time>2021-01-12T14:42:50Z</time>
      </trkpt>
      <trkpt lat="43.4997" lon="5.53151">
        <ele>304</ele>
        <time>2021-01-12T14:42:52Z</time>
      </trkpt>
      <trkpt lat="43.4997" lon="5.53148">
        <ele>303</ele>
        <time>2021-01-12T14:42:55Z</time>
      </trkpt>
      <trkpt lat="43.4997" lon="5.53144">
        <ele>303</ele>
        <time>2021-01-12T14:42:58Z</time>
      </trkpt>
      <trkpt lat="43.49971" lon="5.53142">
        <ele>303</ele>
        <time>2021-01-12T14:43:01Z</time>
      </trkpt>
      <trkpt lat="43.49971" lon="5.53139">
        <ele>302</ele>
        <time>2021-01-12T14:43:05Z</time>
      </trkpt>
      <trkpt lat="43.49971" lon="5.53136">
        <ele>302</ele>
        <time>2021-01-12T14:43:07Z</time>
      </trkpt>
      <trkpt lat="43.49972" lon="5.53133">
        <ele>302</ele>
        <time>2021-01-12T14:43:09Z</time>
      </trkpt>
      <trkpt lat="43.49972" lon="5.5313">
        <ele>302</ele>
        <time>2021-01-12T14:43:11Z</time>
      </trkpt>
      <trkpt lat="43.49972" lon="5.53127">
        <ele>303</ele>
        <time>2021-01-12T14:43:13Z</time>
      </trkpt>
      <trkpt lat="43.49972" lon="5.53124">
        <ele>303</ele>
        <time>2021-01-12T14:43:15Z</time>
      </trkpt>
      <trkpt lat="43.49972" lon="5.53121">
        <ele>304</ele>
        <time>2021-01-12T14:43:17Z</time>
      </trkpt>
      <trkpt lat="43.49972" lon="5.53118">
        <ele>303</ele>
        <time>2021-01-12T14:43:19Z</time>
      </trkpt>
      <trkpt lat="43.49971" lon="5.53115">
        <ele>304</ele>
        <time>2021-01-12T14:43:21Z</time>
      </trkpt>
      <trkpt lat="43.49971" lon="5.53112">
        <ele>303</ele>
        <time>2021-01-12T14:43:23Z</time>
      </trkpt>
      <trkpt lat="43.49971" lon="5.53109">
        <ele>304</ele>
        <time>2021-01-12T14:43:25Z</time>
      </trkpt>
      <trkpt lat="43.49971" lon="5.53105">
        <ele>302</ele>
        <time>2021-01-12T14:43:29Z</time>
      </trkpt>
      <trkpt lat="43.49971" lon="5.53102">
        <ele>302</ele>
        <time>2021-01-12T14:43:32Z</time>
      </trkpt>
      <trkpt lat="43.49971" lon="5.53097">
        <ele>302</ele>
        <time>2021-01-12T14:43:35Z</time>
      </trkpt>
      <trkpt lat="43.49971" lon="5.53095">
        <ele>301</ele>
        <time>2021-01-12T14:43:37Z</time>
      </trkpt>
      <trkpt lat="43.49971" lon="5.53091">
        <ele>302</ele>
        <time>2021-01-12T14:43:39Z</time>
      </trkpt>
      <trkpt lat="43.49972" lon="5.53088">
        <ele>302</ele>
        <time>2021-01-12T14:43:41Z</time>
      </trkpt>
      <trkpt lat="43.49972" lon="5.53086">
        <ele>302</ele>
        <time>2021-01-12T14:43:44Z</time>
      </trkpt>
      <trkpt lat="43.49974" lon="5.53085">
        <ele>301</ele>
        <time>2021-01-12T14:43:47Z</time>
      </trkpt>
      <trkpt lat="43.49975" lon="5.53082">
        <ele>301</ele>
        <time>2021-01-12T14:43:49Z</time>
      </trkpt>
      <trkpt lat="43.49975" lon="5.53078">
        <ele>302</ele>
        <time>2021-01-12T14:43:52Z</time>
      </trkpt>
      <trkpt lat="43.49975" lon="5.53075">
        <ele>302</ele>
        <time>2021-01-12T14:43:55Z</time>
      </trkpt>
      <trkpt lat="43.49976" lon="5.53073">
        <ele>302</ele>
        <time>2021-01-12T14:43:57Z</time>
      </trkpt>
      <trkpt lat="43.49976" lon="5.53069">
        <ele>303</ele>
        <time>2021-01-12T14:44:00Z</time>
      </trkpt>
      <trkpt lat="43.49976" lon="5.53066">
        <ele>302</ele>
        <time>2021-01-12T14:44:02Z</time>
      </trkpt>
      <trkpt lat="43.49976" lon="5.53064">
        <ele>302</ele>
        <time>2021-01-12T14:44:04Z</time>
      </trkpt>
      <trkpt lat="43.49976" lon="5.53061">
        <ele>302</ele>
        <time>2021-01-12T14:44:06Z</time>
      </trkpt>
      <trkpt lat="43.49976" lon="5.53059">
        <ele>302</ele>
        <time>2021-01-12T14:44:08Z</time>
      </trkpt>
      <trkpt lat="43.49976" lon="5.53056">
        <ele>302</ele>
        <time>2021-01-12T14:44:11Z</time>
      </trkpt>
      <trkpt lat="43.49976" lon="5.53053">
        <ele>302</ele>
        <time>2021-01-12T14:44:14Z</time>
      </trkpt>
      <trkpt lat="43.49976" lon="5.5305">
        <ele>302</ele>
        <time>2021-01-12T14:44:17Z</time>
      </trkpt>
      <trkpt lat="43.49976" lon="5.53047">
        <ele>303</ele>
        <time>2021-01-12T14:44:20Z</time>
      </trkpt>
      <trkpt lat="43.49976" lon="5.53044">
        <ele>303</ele>
        <time>2021-01-12T14:44:23Z</time>
      </trkpt>
      <trkpt lat="43.49976" lon="5.5304">
        <ele>303</ele>
        <time>2021-01-12T14:44:26Z</time>
      </trkpt>
      <trkpt lat="43.49976" lon="5.53037">
        <ele>303</ele>
        <time>2021-01-12T14:44:29Z</time>
      </trkpt>
      <trkpt lat="43.49976" lon="5.53033">
        <ele>301</ele>
        <time>2021-01-12T14:44:32Z</time>
      </trkpt>
      <trkpt lat="43.49976" lon="5.5303">
        <ele>300</ele>
        <time>2021-01-12T14:44:35Z</time>
      </trkpt>
      <trkpt lat="43.49976" lon="5.53027">
        <ele>301</ele>
        <time>2021-01-12T14:44:38Z</time>
      </trkpt>
      <trkpt lat="43.49977" lon="5.53024">
        <ele>300</ele>
        <time>2021-01-12T14:44:41Z</time>
      </trkpt>
      <trkpt lat="43.49977" lon="5.53021">
        <ele>300</ele>
        <time>2021-01-12T14:44:44Z</time>
      </trkpt>
      <trkpt lat="43.49977" lon="5.53019">
        <ele>300</ele>
        <time>2021-01-12T14:44:46Z</time>
      </trkpt>
      <trkpt lat="43.49976" lon="5.53015">
        <ele>301</ele>
        <time>2021-01-12T14:44:49Z</time>
      </trkpt>
      <trkpt lat="43.49977" lon="5.53012">
        <ele>301</ele>
        <time>2021-01-12T14:44:52Z</time>
      </trkpt>
      <trkpt lat="43.49976" lon="5.53009">
        <ele>302</ele>
        <time>2021-01-12T14:44:56Z</time>
      </trkpt>
      <trkpt lat="43.49977" lon="5.53006">
        <ele>300</ele>
        <time>2021-01-12T14:45:00Z</time>
      </trkpt>
      <trkpt lat="43.49977" lon="5.53003">
        <ele>300</ele>
        <time>2021-01-12T14:45:03Z</time>
      </trkpt>
      <trkpt lat="43.49978" lon="5.53">
        <ele>300</ele>
        <time>2021-01-12T14:45:06Z</time>
      </trkpt>
      <trkpt lat="43.49979" lon="5.52997">
        <ele>301</ele>
        <time>2021-01-12T14:45:08Z</time>
      </trkpt>
      <trkpt lat="43.49979" lon="5.52993">
        <ele>300</ele>
        <time>2021-01-12T14:45:11Z</time>
      </trkpt>
      <trkpt lat="43.49978" lon="5.52991">
        <ele>300</ele>
        <time>2021-01-12T14:45:13Z</time>
      </trkpt>
      <trkpt lat="43.49978" lon="5.52988">
        <ele>300</ele>
        <time>2021-01-12T14:45:15Z</time>
      </trkpt>
      <trkpt lat="43.49979" lon="5.52984">
        <ele>299</ele>
        <time>2021-01-12T14:45:18Z</time>
      </trkpt>
      <trkpt lat="43.49979" lon="5.52981">
        <ele>299</ele>
        <time>2021-01-12T14:45:21Z</time>
      </trkpt>
      <trkpt lat="43.4998" lon="5.52978">
        <ele>300</ele>
        <time>2021-01-12T14:45:24Z</time>
      </trkpt>
      <trkpt lat="43.49981" lon="5.52976">
        <ele>300</ele>
        <time>2021-01-12T14:45:26Z</time>
      </trkpt>
      <trkpt lat="43.49981" lon="5.52973">
        <ele>301</ele>
        <time>2021-01-12T14:45:28Z</time>
      </trkpt>
      <trkpt lat="43.4998" lon="5.52969">
        <ele>302</ele>
        <time>2021-01-12T14:45:30Z</time>
      </trkpt>
      <trkpt lat="43.4998" lon="5.52966">
        <ele>301</ele>
        <time>2021-01-12T14:45:33Z</time>
      </trkpt>
      <trkpt lat="43.4998" lon="5.52962">
        <ele>301</ele>
        <time>2021-01-12T14:45:36Z</time>
      </trkpt>
      <trkpt lat="43.4998" lon="5.52959">
        <ele>300</ele>
        <time>2021-01-12T14:45:39Z</time>
      </trkpt>
      <trkpt lat="43.4998" lon="5.52956">
        <ele>301</ele>
        <time>2021-01-12T14:45:42Z</time>
      </trkpt>
      <trkpt lat="43.4998" lon="5.52952">
        <ele>301</ele>
        <time>2021-01-12T14:45:45Z</time>
      </trkpt>
      <trkpt lat="43.4998" lon="5.52948">
        <ele>300</ele>
        <time>2021-01-12T14:45:50Z</time>
      </trkpt>
      <trkpt lat="43.49979" lon="5.52946">
        <ele>299</ele>
        <time>2021-01-12T14:45:53Z</time>
      </trkpt>
      <trkpt lat="43.49977" lon="5.52943">
        <ele>299</ele>
        <time>2021-01-12T14:45:55Z</time>
      </trkpt>
      <trkpt lat="43.49978" lon="5.52939">
        <ele>300</ele>
        <time>2021-01-12T14:45:58Z</time>
      </trkpt>
      <trkpt lat="43.49978" lon="5.52936">
        <ele>300</ele>
        <time>2021-01-12T14:46:00Z</time>
      </trkpt>
      <trkpt lat="43.49977" lon="5.52934">
        <ele>301</ele>
        <time>2021-01-12T14:46:02Z</time>
      </trkpt>
      <trkpt lat="43.49977" lon="5.52932">
        <ele>301</ele>
        <time>2021-01-12T14:46:04Z</time>
      </trkpt>
      <trkpt lat="43.49976" lon="5.52928">
        <ele>302</ele>
        <time>2021-01-12T14:46:08Z</time>
      </trkpt>
      <trkpt lat="43.49976" lon="5.52925">
        <ele>302</ele>
        <time>2021-01-12T14:46:10Z</time>
      </trkpt>
      <trkpt lat="43.49975" lon="5.52922">
        <ele>301</ele>
        <time>2021-01-12T14:46:15Z</time>
      </trkpt>
      <trkpt lat="43.49974" lon="5.52919">
        <ele>302</ele>
        <time>2021-01-12T14:46:17Z</time>
      </trkpt>
      <trkpt lat="43.49974" lon="5.52915">
        <ele>303</ele>
        <time>2021-01-12T14:46:21Z</time>
      </trkpt>
      <trkpt lat="43.49974" lon="5.52912">
        <ele>303</ele>
        <time>2021-01-12T14:46:24Z</time>
      </trkpt>
      <trkpt lat="43.49973" lon="5.5291">
        <ele>303</ele>
        <time>2021-01-12T14:46:26Z</time>
      </trkpt>
      <trkpt lat="43.49971" lon="5.52907">
        <ele>302</ele>
        <time>2021-01-12T14:46:29Z</time>
      </trkpt>
      <trkpt lat="43.49971" lon="5.52904">
        <ele>302</ele>
        <time>2021-01-12T14:46:31Z</time>
      </trkpt>
      <trkpt lat="43.4997" lon="5.52901">
        <ele>302</ele>
        <time>2021-01-12T14:46:33Z</time>
      </trkpt>
      <trkpt lat="43.49969" lon="5.52898">
        <ele>302</ele>
        <time>2021-01-12T14:46:35Z</time>
      </trkpt>
      <trkpt lat="43.49968" lon="5.52896">
        <ele>301</ele>
        <time>2021-01-12T14:46:38Z</time>
      </trkpt>
      <trkpt lat="43.49968" lon="5.52894">
        <ele>301</ele>
        <time>2021-01-12T14:46:42Z</time>
      </trkpt>
      <trkpt lat="43.49967" lon="5.52891">
        <ele>300</ele>
        <time>2021-01-12T14:46:44Z</time>
      </trkpt>
      <trkpt lat="43.49967" lon="5.52888">
        <ele>300</ele>
        <time>2021-01-12T14:46:46Z</time>
      </trkpt>
      <trkpt lat="43.49967" lon="5.52885">
        <ele>300</ele>
        <time>2021-01-12T14:46:48Z</time>
      </trkpt>
      <trkpt lat="43.49966" lon="5.52882">
        <ele>300</ele>
        <time>2021-01-12T14:46:50Z</time>
      </trkpt>
      <trkpt lat="43.49964" lon="5.52879">
        <ele>299</ele>
        <time>2021-01-12T14:46:52Z</time>
      </trkpt>
      <trkpt lat="43.49963" lon="5.52876">
        <ele>299</ele>
        <time>2021-01-12T14:46:54Z</time>
      </trkpt>
      <trkpt lat="43.49962" lon="5.52874">
        <ele>299</ele>
        <time>2021-01-12T14:46:56Z</time>
      </trkpt>
      <trkpt lat="43.49962" lon="5.52871">
        <ele>299</ele>
        <time>2021-01-12T14:46:58Z</time>
      </trkpt>
      <trkpt lat="43.49961" lon="5.52868">
        <ele>299</ele>
        <time>2021-01-12T14:47:00Z</time>
      </trkpt>
      <trkpt lat="43.4996" lon="5.52865">
        <ele>299</ele>
        <time>2021-01-12T14:47:02Z</time>
      </trkpt>
      <trkpt lat="43.4996" lon="5.52862">
        <ele>299</ele>
        <time>2021-01-12T14:47:04Z</time>
      </trkpt>
      <trkpt lat="43.4996" lon="5.52859">
        <ele>299</ele>
        <time>2021-01-12T14:47:06Z</time>
      </trkpt>
      <trkpt lat="43.4996" lon="5.52856">
        <ele>300</ele>
        <time>2021-01-12T14:47:08Z</time>
      </trkpt>
      <trkpt lat="43.4996" lon="5.52853">
        <ele>300</ele>
        <time>2021-01-12T14:47:10Z</time>
      </trkpt>
      <trkpt lat="43.4996" lon="5.5285">
        <ele>300</ele>
        <time>2021-01-12T14:47:12Z</time>
      </trkpt>
      <trkpt lat="43.4996" lon="5.52847">
        <ele>300</ele>
        <time>2021-01-12T14:47:14Z</time>
      </trkpt>
      <trkpt lat="43.49959" lon="5.52845">
        <ele>299</ele>
        <time>2021-01-12T14:47:16Z</time>
      </trkpt>
      <trkpt lat="43.49959" lon="5.52842">
        <ele>299</ele>
        <time>2021-01-12T14:47:18Z</time>
      </trkpt>
      <trkpt lat="43.49959" lon="5.52839">
        <ele>299</ele>
        <time>2021-01-12T14:47:20Z</time>
      </trkpt>
      <trkpt lat="43.4996" lon="5.52835">
        <ele>300</ele>
        <time>2021-01-12T14:47:23Z</time>
      </trkpt>
      <trkpt lat="43.4996" lon="5.52833">
        <ele>301</ele>
        <time>2021-01-12T14:47:25Z</time>
      </trkpt>
      <trkpt lat="43.4996" lon="5.52828">
        <ele>300</ele>
        <time>2021-01-12T14:47:29Z</time>
      </trkpt>
      <trkpt lat="43.4996" lon="5.52825">
        <ele>300</ele>
        <time>2021-01-12T14:47:31Z</time>
      </trkpt>
      <trkpt lat="43.4996" lon="5.52822">
        <ele>299</ele>
        <time>2021-01-12T14:47:33Z</time>
      </trkpt>
      <trkpt lat="43.49961" lon="5.52818">
        <ele>300</ele>
        <time>2021-01-12T14:47:36Z</time>
      </trkpt>
      <trkpt lat="43.49961" lon="5.52814">
        <ele>300</ele>
        <time>2021-01-12T14:47:38Z</time>
      </trkpt>
      <trkpt lat="43.49961" lon="5.52811">
        <ele>301</ele>
        <time>2021-01-12T14:47:40Z</time>
      </trkpt>
      <trkpt lat="43.49961" lon="5.52808">
        <ele>301</ele>
        <time>2021-01-12T14:47:42Z</time>
      </trkpt>
      <trkpt lat="43.49961" lon="5.52805">
        <ele>301</ele>
        <time>2021-01-12T14:47:44Z</time>
      </trkpt>
      <trkpt lat="43.4996" lon="5.52803">
        <ele>301</ele>
        <time>2021-01-12T14:47:46Z</time>
      </trkpt>
      <trkpt lat="43.49961" lon="5.528">
        <ele>300</ele>
        <time>2021-01-12T14:47:48Z</time>
      </trkpt>
      <trkpt lat="43.4996" lon="5.52796">
        <ele>300</ele>
        <time>2021-01-12T14:47:51Z</time>
      </trkpt>
      <trkpt lat="43.4996" lon="5.52793">
        <ele>300</ele>
        <time>2021-01-12T14:47:53Z</time>
      </trkpt>
      <trkpt lat="43.4996" lon="5.52791">
        <ele>300</ele>
        <time>2021-01-12T14:47:55Z</time>
      </trkpt>
      <trkpt lat="43.4996" lon="5.52788">
        <ele>300</ele>
        <time>2021-01-12T14:47:57Z</time>
      </trkpt>
      <trkpt lat="43.4996" lon="5.52785">
        <ele>299</ele>
        <time>2021-01-12T14:47:59Z</time>
      </trkpt>
      <trkpt lat="43.49959" lon="5.52782">
        <ele>299</ele>
        <time>2021-01-12T14:48:01Z</time>
      </trkpt>
      <trkpt lat="43.49959" lon="5.52779">
        <ele>298</ele>
        <time>2021-01-12T14:48:03Z</time>
      </trkpt>
      <trkpt lat="43.49958" lon="5.52775">
        <ele>298</ele>
        <time>2021-01-12T14:48:06Z</time>
      </trkpt>
      <trkpt lat="43.49958" lon="5.52772">
        <ele>298</ele>
        <time>2021-01-12T14:48:09Z</time>
      </trkpt>
      <trkpt lat="43.49959" lon="5.52769">
        <ele>300</ele>
        <time>2021-01-12T14:48:12Z</time>
      </trkpt>
      <trkpt lat="43.49959" lon="5.52765">
        <ele>301</ele>
        <time>2021-01-12T14:48:15Z</time>
      </trkpt>
      <trkpt lat="43.49959" lon="5.52762">
        <ele>301</ele>
        <time>2021-01-12T14:48:17Z</time>
      </trkpt>
      <trkpt lat="43.4996" lon="5.52759">
        <ele>301</ele>
        <time>2021-01-12T14:48:20Z</time>
      </trkpt>
      <trkpt lat="43.49961" lon="5.52756">
        <ele>300</ele>
        <time>2021-01-12T14:48:22Z</time>
      </trkpt>
      <trkpt lat="43.49962" lon="5.52753">
        <ele>301</ele>
        <time>2021-01-12T14:48:24Z</time>
      </trkpt>
      <trkpt lat="43.49963" lon="5.5275">
        <ele>301</ele>
        <time>2021-01-12T14:48:26Z</time>
      </trkpt>
      <trkpt lat="43.49964" lon="5.52747">
        <ele>301</ele>
        <time>2021-01-12T14:48:28Z</time>
      </trkpt>
      <trkpt lat="43.49964" lon="5.52744">
        <ele>301</ele>
        <time>2021-01-12T14:48:30Z</time>
      </trkpt>
      <trkpt lat="43.49965" lon="5.52741">
        <ele>301</ele>
        <time>2021-01-12T14:48:32Z</time>
      </trkpt>
      <trkpt lat="43.49966" lon="5.52738">
        <ele>301</ele>
        <time>2021-01-12T14:48:34Z</time>
      </trkpt>
      <trkpt lat="43.49966" lon="5.52734">
        <ele>301</ele>
        <time>2021-01-12T14:48:37Z</time>
      </trkpt>
      <trkpt lat="43.49966" lon="5.52731">
        <ele>300</ele>
        <time>2021-01-12T14:48:39Z</time>
      </trkpt>
      <trkpt lat="43.49966" lon="5.52728">
        <ele>299</ele>
        <time>2021-01-12T14:48:42Z</time>
      </trkpt>
      <trkpt lat="43.49967" lon="5.52726">
        <ele>299</ele>
        <time>2021-01-12T14:48:44Z</time>
      </trkpt>
      <trkpt lat="43.49967" lon="5.52723">
        <ele>299</ele>
        <time>2021-01-12T14:48:47Z</time>
      </trkpt>
      <trkpt lat="43.49967" lon="5.52721">
        <ele>299</ele>
        <time>2021-01-12T14:48:49Z</time>
      </trkpt>
      <trkpt lat="43.49968" lon="5.52717">
        <ele>299</ele>
        <time>2021-01-12T14:48:51Z</time>
      </trkpt>
      <trkpt lat="43.49968" lon="5.52714">
        <ele>299</ele>
        <time>2021-01-12T14:48:54Z</time>
      </trkpt>
      <trkpt lat="43.49968" lon="5.52711">
        <ele>299</ele>
        <time>2021-01-12T14:48:56Z</time>
      </trkpt>
      <trkpt lat="43.49968" lon="5.52706">
        <ele>299</ele>
        <time>2021-01-12T14:48:59Z</time>
      </trkpt>
      <trkpt lat="43.49967" lon="5.52703">
        <ele>299</ele>
        <time>2021-01-12T14:49:01Z</time>
      </trkpt>
      <trkpt lat="43.49967" lon="5.527">
        <ele>299</ele>
        <time>2021-01-12T14:49:03Z</time>
      </trkpt>
      <trkpt lat="43.49967" lon="5.52698">
        <ele>299</ele>
        <time>2021-01-12T14:49:05Z</time>
      </trkpt>
      <trkpt lat="43.49966" lon="5.52695">
        <ele>299</ele>
        <time>2021-01-12T14:49:08Z</time>
      </trkpt>
      <trkpt lat="43.49966" lon="5.52692">
        <ele>298</ele>
        <time>2021-01-12T14:49:10Z</time>
      </trkpt>
      <trkpt lat="43.49967" lon="5.52689">
        <ele>297</ele>
        <time>2021-01-12T14:49:13Z</time>
      </trkpt>
      <trkpt lat="43.49967" lon="5.52686">
        <ele>297</ele>
        <time>2021-01-12T14:49:16Z</time>
      </trkpt>
      <trkpt lat="43.49967" lon="5.52682">
        <ele>297</ele>
        <time>2021-01-12T14:49:19Z</time>
      </trkpt>
      <trkpt lat="43.49967" lon="5.5268">
        <ele>298</ele>
        <time>2021-01-12T14:49:21Z</time>
      </trkpt>
      <trkpt lat="43.49967" lon="5.52676">
        <ele>297</ele>
        <time>2021-01-12T14:49:25Z</time>
      </trkpt>
      <trkpt lat="43.49966" lon="5.52673">
        <ele>297</ele>
        <time>2021-01-12T14:49:27Z</time>
      </trkpt>
      <trkpt lat="43.49966" lon="5.5267">
        <ele>297</ele>
        <time>2021-01-12T14:49:29Z</time>
      </trkpt>
      <trkpt lat="43.49965" lon="5.52667">
        <ele>298</ele>
        <time>2021-01-12T14:49:32Z</time>
      </trkpt>
      <trkpt lat="43.49965" lon="5.52664">
        <ele>298</ele>
        <time>2021-01-12T14:49:34Z</time>
      </trkpt>
      <trkpt lat="43.49965" lon="5.5266">
        <ele>298</ele>
        <time>2021-01-12T14:49:36Z</time>
      </trkpt>
      <trkpt lat="43.49965" lon="5.52657">
        <ele>297</ele>
        <time>2021-01-12T14:49:38Z</time>
      </trkpt>
      <trkpt lat="43.49965" lon="5.52653">
        <ele>297</ele>
        <time>2021-01-12T14:49:40Z</time>
      </trkpt>
      <trkpt lat="43.49965" lon="5.52649">
        <ele>296</ele>
        <time>2021-01-12T14:49:43Z</time>
      </trkpt>
      <trkpt lat="43.49964" lon="5.52645">
        <ele>296</ele>
        <time>2021-01-12T14:49:45Z</time>
      </trkpt>
      <trkpt lat="43.49964" lon="5.52642">
        <ele>295</ele>
        <time>2021-01-12T14:49:47Z</time>
      </trkpt>
      <trkpt lat="43.49964" lon="5.52639">
        <ele>294</ele>
        <time>2021-01-12T14:49:49Z</time>
      </trkpt>
      <trkpt lat="43.49964" lon="5.52635">
        <ele>294</ele>
        <time>2021-01-12T14:49:51Z</time>
      </trkpt>
      <trkpt lat="43.49964" lon="5.52632">
        <ele>295</ele>
        <time>2021-01-12T14:49:54Z</time>
      </trkpt>
      <trkpt lat="43.49964" lon="5.52629">
        <ele>295</ele>
        <time>2021-01-12T14:49:57Z</time>
      </trkpt>
      <trkpt lat="43.49964" lon="5.52626">
        <ele>295</ele>
        <time>2021-01-12T14:49:59Z</time>
      </trkpt>
      <trkpt lat="43.49964" lon="5.52623">
        <ele>295</ele>
        <time>2021-01-12T14:50:01Z</time>
      </trkpt>
      <trkpt lat="43.49964" lon="5.52621">
        <ele>296</ele>
        <time>2021-01-12T14:50:03Z</time>
      </trkpt>
      <trkpt lat="43.49965" lon="5.52618">
        <ele>296</ele>
        <time>2021-01-12T14:50:05Z</time>
      </trkpt>
      <trkpt lat="43.49964" lon="5.52615">
        <ele>296</ele>
        <time>2021-01-12T14:50:07Z</time>
      </trkpt>
      <trkpt lat="43.49964" lon="5.52612">
        <ele>296</ele>
        <time>2021-01-12T14:50:10Z</time>
      </trkpt>
      <trkpt lat="43.49964" lon="5.52609">
        <ele>297</ele>
        <time>2021-01-12T14:50:13Z</time>
      </trkpt>
      <trkpt lat="43.49965" lon="5.52606">
        <ele>296</ele>
        <time>2021-01-12T14:50:16Z</time>
      </trkpt>
      <trkpt lat="43.49966" lon="5.52603">
        <ele>296</ele>
        <time>2021-01-12T14:50:19Z</time>
      </trkpt>
      <trkpt lat="43.49966" lon="5.526">
        <ele>296</ele>
        <time>2021-01-12T14:50:21Z</time>
      </trkpt>
      <trkpt lat="43.49966" lon="5.52597">
        <ele>295</ele>
        <time>2021-01-12T14:50:23Z</time>
      </trkpt>
      <trkpt lat="43.49966" lon="5.52594">
        <ele>294</ele>
        <time>2021-01-12T14:50:25Z</time>
      </trkpt>
      <trkpt lat="43.49967" lon="5.52591">
        <ele>293</ele>
        <time>2021-01-12T14:50:28Z</time>
      </trkpt>
      <trkpt lat="43.49967" lon="5.52588">
        <ele>294</ele>
        <time>2021-01-12T14:50:30Z</time>
      </trkpt>
      <trkpt lat="43.49968" lon="5.52586">
        <ele>294</ele>
        <time>2021-01-12T14:50:32Z</time>
      </trkpt>
      <trkpt lat="43.49968" lon="5.52583">
        <ele>294</ele>
        <time>2021-01-12T14:50:34Z</time>
      </trkpt>
      <trkpt lat="43.49968" lon="5.5258">
        <ele>294</ele>
        <time>2021-01-12T14:50:36Z</time>
      </trkpt>
      <trkpt lat="43.49968" lon="5.52577">
        <ele>293</ele>
        <time>2021-01-12T14:50:38Z</time>
      </trkpt>
      <trkpt lat="43.49969" lon="5.52574">
        <ele>292</ele>
        <time>2021-01-12T14:50:40Z</time>
      </trkpt>
      <trkpt lat="43.49969" lon="5.52572">
        <ele>292</ele>
        <time>2021-01-12T14:50:42Z</time>
      </trkpt>
      <trkpt lat="43.4997" lon="5.52569">
        <ele>292</ele>
        <time>2021-01-12T14:50:44Z</time>
      </trkpt>
      <trkpt lat="43.49969" lon="5.52566">
        <ele>291</ele>
        <time>2021-01-12T14:50:47Z</time>
      </trkpt>
      <trkpt lat="43.49969" lon="5.52563">
        <ele>290</ele>
        <time>2021-01-12T14:50:49Z</time>
      </trkpt>
      <trkpt lat="43.49969" lon="5.52559">
        <ele>290</ele>
        <time>2021-01-12T14:50:52Z</time>
      </trkpt>
      <trkpt lat="43.49968" lon="5.52556">
        <ele>290</ele>
        <time>2021-01-12T14:50:54Z</time>
      </trkpt>
      <trkpt lat="43.49968" lon="5.52554">
        <ele>290</ele>
        <time>2021-01-12T14:50:56Z</time>
      </trkpt>
      <trkpt lat="43.49968" lon="5.5255">
        <ele>291</ele>
        <time>2021-01-12T14:50:59Z</time>
      </trkpt>
      <trkpt lat="43.49968" lon="5.52547">
        <ele>291</ele>
        <time>2021-01-12T14:51:02Z</time>
      </trkpt>
      <trkpt lat="43.49968" lon="5.52544">
        <ele>292</ele>
        <time>2021-01-12T14:51:04Z</time>
      </trkpt>
      <trkpt lat="43.49968" lon="5.52541">
        <ele>292</ele>
        <time>2021-01-12T14:51:06Z</time>
      </trkpt>
      <trkpt lat="43.49969" lon="5.52539">
        <ele>292</ele>
        <time>2021-01-12T14:51:09Z</time>
      </trkpt>
      <trkpt lat="43.4997" lon="5.52537">
        <ele>292</ele>
        <time>2021-01-12T14:51:11Z</time>
      </trkpt>
      <trkpt lat="43.49969" lon="5.52533">
        <ele>292</ele>
        <time>2021-01-12T14:51:14Z</time>
      </trkpt>
      <trkpt lat="43.49971" lon="5.5253">
        <ele>293</ele>
        <time>2021-01-12T14:51:17Z</time>
      </trkpt>
      <trkpt lat="43.49971" lon="5.52527">
        <ele>292</ele>
        <time>2021-01-12T14:51:19Z</time>
      </trkpt>
      <trkpt lat="43.49971" lon="5.52525">
        <ele>292</ele>
        <time>2021-01-12T14:51:21Z</time>
      </trkpt>
      <trkpt lat="43.49972" lon="5.52522">
        <ele>292</ele>
        <time>2021-01-12T14:51:23Z</time>
      </trkpt>
      <trkpt lat="43.49973" lon="5.52519">
        <ele>292</ele>
        <time>2021-01-12T14:51:26Z</time>
      </trkpt>
      <trkpt lat="43.49972" lon="5.52516">
        <ele>291</ele>
        <time>2021-01-12T14:51:28Z</time>
      </trkpt>
      <trkpt lat="43.49973" lon="5.52513">
        <ele>291</ele>
        <time>2021-01-12T14:51:30Z</time>
      </trkpt>
      <trkpt lat="43.49974" lon="5.5251">
        <ele>291</ele>
        <time>2021-01-12T14:51:33Z</time>
      </trkpt>
      <trkpt lat="43.49973" lon="5.52507">
        <ele>292</ele>
        <time>2021-01-12T14:51:36Z</time>
      </trkpt>
      <trkpt lat="43.49973" lon="5.52504">
        <ele>292</ele>
        <time>2021-01-12T14:51:39Z</time>
      </trkpt>
      <trkpt lat="43.49973" lon="5.52501">
        <ele>292</ele>
        <time>2021-01-12T14:51:42Z</time>
      </trkpt>
      <trkpt lat="43.49972" lon="5.52499">
        <ele>290</ele>
        <time>2021-01-12T14:51:45Z</time>
      </trkpt>
      <trkpt lat="43.49972" lon="5.52496">
        <ele>290</ele>
        <time>2021-01-12T14:51:48Z</time>
      </trkpt>
      <trkpt lat="43.49972" lon="5.52493">
        <ele>290</ele>
        <time>2021-01-12T14:51:50Z</time>
      </trkpt>
      <trkpt lat="43.49973" lon="5.52489">
        <ele>291</ele>
        <time>2021-01-12T14:51:53Z</time>
      </trkpt>
      <trkpt lat="43.49973" lon="5.52486">
        <ele>291</ele>
        <time>2021-01-12T14:51:55Z</time>
      </trkpt>
      <trkpt lat="43.49975" lon="5.52483">
        <ele>291</ele>
        <time>2021-01-12T14:51:58Z</time>
      </trkpt>
      <trkpt lat="43.49976" lon="5.5248">
        <ele>291</ele>
        <time>2021-01-12T14:52:01Z</time>
      </trkpt>
      <trkpt lat="43.49975" lon="5.52478">
        <ele>291</ele>
        <time>2021-01-12T14:52:03Z</time>
      </trkpt>
      <trkpt lat="43.49976" lon="5.52475">
        <ele>290</ele>
        <time>2021-01-12T14:52:05Z</time>
      </trkpt>
      <trkpt lat="43.49977" lon="5.52473">
        <ele>290</ele>
        <time>2021-01-12T14:52:07Z</time>
      </trkpt>
      <trkpt lat="43.49978" lon="5.5247">
        <ele>290</ele>
        <time>2021-01-12T14:52:10Z</time>
      </trkpt>
      <trkpt lat="43.49979" lon="5.52466">
        <ele>289</ele>
        <time>2021-01-12T14:52:13Z</time>
      </trkpt>
      <trkpt lat="43.49979" lon="5.52464">
        <ele>288</ele>
        <time>2021-01-12T14:52:15Z</time>
      </trkpt>
      <trkpt lat="43.4998" lon="5.52461">
        <ele>288</ele>
        <time>2021-01-12T14:52:18Z</time>
      </trkpt>
      <trkpt lat="43.4998" lon="5.52458">
        <ele>287</ele>
        <time>2021-01-12T14:52:21Z</time>
      </trkpt>
      <trkpt lat="43.49978" lon="5.52457">
        <ele>285</ele>
        <time>2021-01-12T14:53:01Z</time>
      </trkpt>
      <trkpt lat="43.49978" lon="5.5246">
        <ele>288</ele>
        <time>2021-01-12T14:54:09Z</time>
      </trkpt>
      <trkpt lat="43.49979" lon="5.52462">
        <ele>288</ele>
        <time>2021-01-12T14:54:26Z</time>
      </trkpt>
      <trkpt lat="43.49978" lon="5.52465">
        <ele>287</ele>
        <time>2021-01-12T14:54:30Z</time>
      </trkpt>
      <trkpt lat="43.49978" lon="5.52469">
        <ele>287</ele>
        <time>2021-01-12T14:54:34Z</time>
      </trkpt>
      <trkpt lat="43.49978" lon="5.52472">
        <ele>287</ele>
        <time>2021-01-12T14:54:37Z</time>
      </trkpt>
      <trkpt lat="43.49977" lon="5.52475">
        <ele>287</ele>
        <time>2021-01-12T14:54:40Z</time>
      </trkpt>
      <trkpt lat="43.49975" lon="5.52477">
        <ele>287</ele>
        <time>2021-01-12T14:54:42Z</time>
      </trkpt>
      <trkpt lat="43.49975" lon="5.5248">
        <ele>287</ele>
        <time>2021-01-12T14:54:44Z</time>
      </trkpt>
      <trkpt lat="43.49975" lon="5.52483">
        <ele>288</ele>
        <time>2021-01-12T14:54:47Z</time>
      </trkpt>
      <trkpt lat="43.49974" lon="5.52486">
        <ele>287</ele>
        <time>2021-01-12T14:54:50Z</time>
      </trkpt>
      <trkpt lat="43.49974" lon="5.52489">
        <ele>287</ele>
        <time>2021-01-12T14:54:53Z</time>
      </trkpt>
      <trkpt lat="43.49972" lon="5.52491">
        <ele>287</ele>
        <time>2021-01-12T14:54:56Z</time>
      </trkpt>
      <trkpt lat="43.49971" lon="5.52494">
        <ele>287</ele>
        <time>2021-01-12T14:54:58Z</time>
      </trkpt>
      <trkpt lat="43.4997" lon="5.52496">
        <ele>289</ele>
        <time>2021-01-12T14:55:01Z</time>
      </trkpt>
      <trkpt lat="43.4997" lon="5.525">
        <ele>288</ele>
        <time>2021-01-12T14:55:04Z</time>
      </trkpt>
      <trkpt lat="43.49969" lon="5.52502">
        <ele>289</ele>
        <time>2021-01-12T14:55:07Z</time>
      </trkpt>
      <trkpt lat="43.4997" lon="5.52505">
        <ele>289</ele>
        <time>2021-01-12T14:55:10Z</time>
      </trkpt>
      <trkpt lat="43.4997" lon="5.52508">
        <ele>289</ele>
        <time>2021-01-12T14:55:13Z</time>
      </trkpt>
      <trkpt lat="43.4997" lon="5.5251">
        <ele>288</ele>
        <time>2021-01-12T14:55:16Z</time>
      </trkpt>
      <trkpt lat="43.4997" lon="5.52514">
        <ele>289</ele>
        <time>2021-01-12T14:55:20Z</time>
      </trkpt>
      <trkpt lat="43.4997" lon="5.52517">
        <ele>289</ele>
        <time>2021-01-12T14:55:22Z</time>
      </trkpt>
      <trkpt lat="43.49969" lon="5.5252">
        <ele>288</ele>
        <time>2021-01-12T14:55:24Z</time>
      </trkpt>
      <trkpt lat="43.49969" lon="5.52523">
        <ele>289</ele>
        <time>2021-01-12T14:55:27Z</time>
      </trkpt>
      <trkpt lat="43.49969" lon="5.52526">
        <ele>290</ele>
        <time>2021-01-12T14:55:29Z</time>
      </trkpt>
      <trkpt lat="43.49967" lon="5.52529">
        <ele>290</ele>
        <time>2021-01-12T14:55:32Z</time>
      </trkpt>
      <trkpt lat="43.49967" lon="5.52533">
        <ele>291</ele>
        <time>2021-01-12T14:55:35Z</time>
      </trkpt>
      <trkpt lat="43.49968" lon="5.52535">
        <ele>291</ele>
        <time>2021-01-12T14:55:38Z</time>
      </trkpt>
      <trkpt lat="43.49968" lon="5.52538">
        <ele>291</ele>
        <time>2021-01-12T14:55:40Z</time>
      </trkpt>
      <trkpt lat="43.49968" lon="5.52542">
        <ele>291</ele>
        <time>2021-01-12T14:55:43Z</time>
      </trkpt>
      <trkpt lat="43.49967" lon="5.52544">
        <ele>291</ele>
        <time>2021-01-12T14:55:45Z</time>
      </trkpt>
      <trkpt lat="43.49967" lon="5.52547">
        <ele>292</ele>
        <time>2021-01-12T14:55:47Z</time>
      </trkpt>
      <trkpt lat="43.49968" lon="5.5255">
        <ele>291</ele>
        <time>2021-01-12T14:55:49Z</time>
      </trkpt>
      <trkpt lat="43.49968" lon="5.52554">
        <ele>291</ele>
        <time>2021-01-12T14:55:53Z</time>
      </trkpt>
      <trkpt lat="43.49969" lon="5.52557">
        <ele>291</ele>
        <time>2021-01-12T14:55:55Z</time>
      </trkpt>
      <trkpt lat="43.49969" lon="5.5256">
        <ele>292</ele>
        <time>2021-01-12T14:55:58Z</time>
      </trkpt>
      <trkpt lat="43.49969" lon="5.52563">
        <ele>291</ele>
        <time>2021-01-12T14:56:01Z</time>
      </trkpt>
      <trkpt lat="43.49968" lon="5.52566">
        <ele>292</ele>
        <time>2021-01-12T14:56:04Z</time>
      </trkpt>
      <trkpt lat="43.49967" lon="5.52568">
        <ele>292</ele>
        <time>2021-01-12T14:56:06Z</time>
      </trkpt>
      <trkpt lat="43.49967" lon="5.52572">
        <ele>292</ele>
        <time>2021-01-12T14:56:09Z</time>
      </trkpt>
      <trkpt lat="43.49967" lon="5.52574">
        <ele>292</ele>
        <time>2021-01-12T14:56:11Z</time>
      </trkpt>
      <trkpt lat="43.49966" lon="5.52577">
        <ele>292</ele>
        <time>2021-01-12T14:56:13Z</time>
      </trkpt>
      <trkpt lat="43.49966" lon="5.5258">
        <ele>292</ele>
        <time>2021-01-12T14:56:15Z</time>
      </trkpt>
      <trkpt lat="43.49966" lon="5.52583">
        <ele>291</ele>
        <time>2021-01-12T14:56:18Z</time>
      </trkpt>
      <trkpt lat="43.49966" lon="5.52586">
        <ele>292</ele>
        <time>2021-01-12T14:56:21Z</time>
      </trkpt>
      <trkpt lat="43.49965" lon="5.5259">
        <ele>291</ele>
        <time>2021-01-12T14:56:24Z</time>
      </trkpt>
      <trkpt lat="43.49964" lon="5.52592">
        <ele>292</ele>
        <time>2021-01-12T14:56:26Z</time>
      </trkpt>
      <trkpt lat="43.49964" lon="5.52595">
        <ele>291</ele>
        <time>2021-01-12T14:56:29Z</time>
      </trkpt>
      <trkpt lat="43.49964" lon="5.52598">
        <ele>291</ele>
        <time>2021-01-12T14:56:31Z</time>
      </trkpt>
      <trkpt lat="43.49963" lon="5.52601">
        <ele>291</ele>
        <time>2021-01-12T14:56:33Z</time>
      </trkpt>
      <trkpt lat="43.49963" lon="5.52603">
        <ele>291</ele>
        <time>2021-01-12T14:56:35Z</time>
      </trkpt>
      <trkpt lat="43.49962" lon="5.52606">
        <ele>291</ele>
        <time>2021-01-12T14:56:37Z</time>
      </trkpt>
      <trkpt lat="43.49962" lon="5.52609">
        <ele>291</ele>
        <time>2021-01-12T14:56:39Z</time>
      </trkpt>
      <trkpt lat="43.49961" lon="5.52611">
        <ele>291</ele>
        <time>2021-01-12T14:56:42Z</time>
      </trkpt>
      <trkpt lat="43.49961" lon="5.52615">
        <ele>290</ele>
        <time>2021-01-12T14:56:45Z</time>
      </trkpt>
      <trkpt lat="43.4996" lon="5.52618">
        <ele>291</ele>
        <time>2021-01-12T14:56:47Z</time>
      </trkpt>
      <trkpt lat="43.4996" lon="5.52621">
        <ele>291</ele>
        <time>2021-01-12T14:56:49Z</time>
      </trkpt>
      <trkpt lat="43.4996" lon="5.52624">
        <ele>292</ele>
        <time>2021-01-12T14:56:51Z</time>
      </trkpt>
      <trkpt lat="43.4996" lon="5.52627">
        <ele>291</ele>
        <time>2021-01-12T14:56:53Z</time>
      </trkpt>
      <trkpt lat="43.4996" lon="5.5263">
        <ele>292</ele>
        <time>2021-01-12T14:56:55Z</time>
      </trkpt>
      <trkpt lat="43.49959" lon="5.52633">
        <ele>292</ele>
        <time>2021-01-12T14:56:57Z</time>
      </trkpt>
      <trkpt lat="43.49959" lon="5.52637">
        <ele>293</ele>
        <time>2021-01-12T14:57:00Z</time>
      </trkpt>
      <trkpt lat="43.49959" lon="5.5264">
        <ele>293</ele>
        <time>2021-01-12T14:57:02Z</time>
      </trkpt>
      <trkpt lat="43.49958" lon="5.52644">
        <ele>293</ele>
        <time>2021-01-12T14:57:05Z</time>
      </trkpt>
      <trkpt lat="43.49958" lon="5.52647">
        <ele>293</ele>
        <time>2021-01-12T14:57:07Z</time>
      </trkpt>
      <trkpt lat="43.49957" lon="5.5265">
        <ele>293</ele>
        <time>2021-01-12T14:57:10Z</time>
      </trkpt>
      <trkpt lat="43.49957" lon="5.52653">
        <ele>293</ele>
        <time>2021-01-12T14:57:12Z</time>
      </trkpt>
      <trkpt lat="43.49957" lon="5.52656">
        <ele>293</ele>
        <time>2021-01-12T14:57:14Z</time>
      </trkpt>
      <trkpt lat="43.49958" lon="5.52659">
        <ele>292</ele>
        <time>2021-01-12T14:57:16Z</time>
      </trkpt>
      <trkpt lat="43.49958" lon="5.52662">
        <ele>292</ele>
        <time>2021-01-12T14:57:18Z</time>
      </trkpt>
      <trkpt lat="43.49958" lon="5.52665">
        <ele>292</ele>
        <time>2021-01-12T14:57:20Z</time>
      </trkpt>
      <trkpt lat="43.49958" lon="5.52668">
        <ele>292</ele>
        <time>2021-01-12T14:57:22Z</time>
      </trkpt>
      <trkpt lat="43.49958" lon="5.52671">
        <ele>293</ele>
        <time>2021-01-12T14:57:24Z</time>
      </trkpt>
      <trkpt lat="43.49959" lon="5.52674">
        <ele>293</ele>
        <time>2021-01-12T14:57:26Z</time>
      </trkpt>
      <trkpt lat="43.49958" lon="5.52678">
        <ele>293</ele>
        <time>2021-01-12T14:57:29Z</time>
      </trkpt>
      <trkpt lat="43.49959" lon="5.5268">
        <ele>293</ele>
        <time>2021-01-12T14:57:31Z</time>
      </trkpt>
      <trkpt lat="43.49959" lon="5.52683">
        <ele>293</ele>
        <time>2021-01-12T14:57:33Z</time>
      </trkpt>
      <trkpt lat="43.49959" lon="5.52686">
        <ele>293</ele>
        <time>2021-01-12T14:57:35Z</time>
      </trkpt>
      <trkpt lat="43.49959" lon="5.52688">
        <ele>293</ele>
        <time>2021-01-12T14:57:37Z</time>
      </trkpt>
      <trkpt lat="43.4996" lon="5.52691">
        <ele>293</ele>
        <time>2021-01-12T14:57:39Z</time>
      </trkpt>
      <trkpt lat="43.4996" lon="5.52693">
        <ele>293</ele>
        <time>2021-01-12T14:57:41Z</time>
      </trkpt>
      <trkpt lat="43.49961" lon="5.52696">
        <ele>292</ele>
        <time>2021-01-12T14:57:43Z</time>
      </trkpt>
      <trkpt lat="43.49961" lon="5.52699">
        <ele>292</ele>
        <time>2021-01-12T14:57:45Z</time>
      </trkpt>
      <trkpt lat="43.49961" lon="5.52702">
        <ele>293</ele>
        <time>2021-01-12T14:57:47Z</time>
      </trkpt>
      <trkpt lat="43.4996" lon="5.52705">
        <ele>294</ele>
        <time>2021-01-12T14:57:50Z</time>
      </trkpt>
      <trkpt lat="43.4996" lon="5.52708">
        <ele>294</ele>
        <time>2021-01-12T14:57:53Z</time>
      </trkpt>
      <trkpt lat="43.49959" lon="5.52711">
        <ele>294</ele>
        <time>2021-01-12T14:57:55Z</time>
      </trkpt>
      <trkpt lat="43.49959" lon="5.52713">
        <ele>294</ele>
        <time>2021-01-12T14:57:57Z</time>
      </trkpt>
      <trkpt lat="43.49957" lon="5.52716">
        <ele>294</ele>
        <time>2021-01-12T14:57:59Z</time>
      </trkpt>
      <trkpt lat="43.49957" lon="5.52719">
        <ele>293</ele>
        <time>2021-01-12T14:58:01Z</time>
      </trkpt>
      <trkpt lat="43.49956" lon="5.52722">
        <ele>294</ele>
        <time>2021-01-12T14:58:03Z</time>
      </trkpt>
      <trkpt lat="43.49956" lon="5.52724">
        <ele>293</ele>
        <time>2021-01-12T14:58:05Z</time>
      </trkpt>
      <trkpt lat="43.49955" lon="5.52727">
        <ele>293</ele>
        <time>2021-01-12T14:58:07Z</time>
      </trkpt>
      <trkpt lat="43.49955" lon="5.5273">
        <ele>294</ele>
        <time>2021-01-12T14:58:10Z</time>
      </trkpt>
      <trkpt lat="43.49956" lon="5.52733">
        <ele>293</ele>
        <time>2021-01-12T14:58:13Z</time>
      </trkpt>
      <trkpt lat="43.49955" lon="5.52736">
        <ele>293</ele>
        <time>2021-01-12T14:58:15Z</time>
      </trkpt>
      <trkpt lat="43.49955" lon="5.52739">
        <ele>293</ele>
        <time>2021-01-12T14:58:17Z</time>
      </trkpt>
      <trkpt lat="43.49955" lon="5.52743">
        <ele>294</ele>
        <time>2021-01-12T14:58:20Z</time>
      </trkpt>
      <trkpt lat="43.49954" lon="5.52745">
        <ele>294</ele>
        <time>2021-01-12T14:58:22Z</time>
      </trkpt>
      <trkpt lat="43.49954" lon="5.52749">
        <ele>293</ele>
        <time>2021-01-12T14:58:24Z</time>
      </trkpt>
      <trkpt lat="43.49953" lon="5.52752">
        <ele>294</ele>
        <time>2021-01-12T14:58:26Z</time>
      </trkpt>
      <trkpt lat="43.49953" lon="5.52754">
        <ele>295</ele>
        <time>2021-01-12T14:58:28Z</time>
      </trkpt>
      <trkpt lat="43.49953" lon="5.52757">
        <ele>296</ele>
        <time>2021-01-12T14:58:31Z</time>
      </trkpt>
      <trkpt lat="43.49953" lon="5.5276">
        <ele>295</ele>
        <time>2021-01-12T14:58:33Z</time>
      </trkpt>
      <trkpt lat="43.49952" lon="5.52763">
        <ele>296</ele>
        <time>2021-01-12T14:58:36Z</time>
      </trkpt>
      <trkpt lat="43.49952" lon="5.52766">
        <ele>296</ele>
        <time>2021-01-12T14:58:39Z</time>
      </trkpt>
      <trkpt lat="43.49952" lon="5.52769">
        <ele>295</ele>
        <time>2021-01-12T14:58:41Z</time>
      </trkpt>
      <trkpt lat="43.49951" lon="5.52771">
        <ele>295</ele>
        <time>2021-01-12T14:58:43Z</time>
      </trkpt>
      <trkpt lat="43.49951" lon="5.52774">
        <ele>296</ele>
        <time>2021-01-12T14:58:45Z</time>
      </trkpt>
      <trkpt lat="43.49951" lon="5.52778">
        <ele>295</ele>
        <time>2021-01-12T14:58:48Z</time>
      </trkpt>
      <trkpt lat="43.49951" lon="5.52781">
        <ele>295</ele>
        <time>2021-01-12T14:58:50Z</time>
      </trkpt>
      <trkpt lat="43.49951" lon="5.52784">
        <ele>295</ele>
        <time>2021-01-12T14:58:53Z</time>
      </trkpt>
      <trkpt lat="43.49951" lon="5.52788">
        <ele>296</ele>
        <time>2021-01-12T14:58:56Z</time>
      </trkpt>
      <trkpt lat="43.49951" lon="5.52791">
        <ele>297</ele>
        <time>2021-01-12T14:58:58Z</time>
      </trkpt>
      <trkpt lat="43.4995" lon="5.52793">
        <ele>298</ele>
        <time>2021-01-12T14:59:00Z</time>
      </trkpt>
      <trkpt lat="43.49951" lon="5.52796">
        <ele>298</ele>
        <time>2021-01-12T14:59:03Z</time>
      </trkpt>
      <trkpt lat="43.49951" lon="5.52799">
        <ele>298</ele>
        <time>2021-01-12T14:59:05Z</time>
      </trkpt>
      <trkpt lat="43.49951" lon="5.52802">
        <ele>298</ele>
        <time>2021-01-12T14:59:07Z</time>
      </trkpt>
      <trkpt lat="43.49951" lon="5.52805">
        <ele>296</ele>
        <time>2021-01-12T14:59:09Z</time>
      </trkpt>
      <trkpt lat="43.49951" lon="5.52808">
        <ele>296</ele>
        <time>2021-01-12T14:59:11Z</time>
      </trkpt>
      <trkpt lat="43.49952" lon="5.52811">
        <ele>296</ele>
        <time>2021-01-12T14:59:14Z</time>
      </trkpt>
      <trkpt lat="43.49952" lon="5.52815">
        <ele>297</ele>
        <time>2021-01-12T14:59:17Z</time>
      </trkpt>
      <trkpt lat="43.49952" lon="5.52817">
        <ele>296</ele>
        <time>2021-01-12T14:59:19Z</time>
      </trkpt>
      <trkpt lat="43.49951" lon="5.5282">
        <ele>296</ele>
        <time>2021-01-12T14:59:21Z</time>
      </trkpt>
      <trkpt lat="43.49951" lon="5.52822">
        <ele>295</ele>
        <time>2021-01-12T14:59:23Z</time>
      </trkpt>
      <trkpt lat="43.4995" lon="5.52825">
        <ele>295</ele>
        <time>2021-01-12T14:59:25Z</time>
      </trkpt>
      <trkpt lat="43.4995" lon="5.52828">
        <ele>295</ele>
        <time>2021-01-12T14:59:27Z</time>
      </trkpt>
      <trkpt lat="43.4995" lon="5.52831">
        <ele>295</ele>
        <time>2021-01-12T14:59:29Z</time>
      </trkpt>
      <trkpt lat="43.4995" lon="5.52834">
        <ele>295</ele>
        <time>2021-01-12T14:59:32Z</time>
      </trkpt>
      <trkpt lat="43.4995" lon="5.52837">
        <ele>295</ele>
        <time>2021-01-12T14:59:34Z</time>
      </trkpt>
      <trkpt lat="43.4995" lon="5.52842">
        <ele>294</ele>
        <time>2021-01-12T14:59:37Z</time>
      </trkpt>
      <trkpt lat="43.4995" lon="5.52844">
        <ele>293</ele>
        <time>2021-01-12T14:59:39Z</time>
      </trkpt>
      <trkpt lat="43.4995" lon="5.52847">
        <ele>294</ele>
        <time>2021-01-12T14:59:41Z</time>
      </trkpt>
      <trkpt lat="43.4995" lon="5.5285">
        <ele>294</ele>
        <time>2021-01-12T14:59:43Z</time>
      </trkpt>
      <trkpt lat="43.4995" lon="5.52853">
        <ele>294</ele>
        <time>2021-01-12T14:59:45Z</time>
      </trkpt>
      <trkpt lat="43.49951" lon="5.52856">
        <ele>293</ele>
        <time>2021-01-12T14:59:47Z</time>
      </trkpt>
      <trkpt lat="43.49951" lon="5.52859">
        <ele>293</ele>
        <time>2021-01-12T14:59:49Z</time>
      </trkpt>
      <trkpt lat="43.49951" lon="5.52862">
        <ele>293</ele>
        <time>2021-01-12T14:59:51Z</time>
      </trkpt>
      <trkpt lat="43.49951" lon="5.52865">
        <ele>293</ele>
        <time>2021-01-12T14:59:53Z</time>
      </trkpt>
      <trkpt lat="43.49952" lon="5.52867">
        <ele>293</ele>
        <time>2021-01-12T14:59:55Z</time>
      </trkpt>
      <trkpt lat="43.49952" lon="5.5287">
        <ele>294</ele>
        <time>2021-01-12T14:59:58Z</time>
      </trkpt>
      <trkpt lat="43.49952" lon="5.52874">
        <ele>294</ele>
        <time>2021-01-12T15:00:01Z</time>
      </trkpt>
      <trkpt lat="43.49953" lon="5.52878">
        <ele>293</ele>
        <time>2021-01-12T15:00:04Z</time>
      </trkpt>
      <trkpt lat="43.49954" lon="5.5288">
        <ele>293</ele>
        <time>2021-01-12T15:00:06Z</time>
      </trkpt>
      <trkpt lat="43.49954" lon="5.52883">
        <ele>293</ele>
        <time>2021-01-12T15:00:08Z</time>
      </trkpt>
      <trkpt lat="43.49955" lon="5.52886">
        <ele>293</ele>
        <time>2021-01-12T15:00:10Z</time>
      </trkpt>
      <trkpt lat="43.49956" lon="5.52888">
        <ele>293</ele>
        <time>2021-01-12T15:00:12Z</time>
      </trkpt>
      <trkpt lat="43.49956" lon="5.52891">
        <ele>292</ele>
        <time>2021-01-12T15:00:14Z</time>
      </trkpt>
      <trkpt lat="43.49958" lon="5.52894">
        <ele>292</ele>
        <time>2021-01-12T15:00:16Z</time>
      </trkpt>
      <trkpt lat="43.49958" lon="5.52898">
        <ele>291</ele>
        <time>2021-01-12T15:00:19Z</time>
      </trkpt>
      <trkpt lat="43.49959" lon="5.529">
        <ele>291</ele>
        <time>2021-01-12T15:00:21Z</time>
      </trkpt>
      <trkpt lat="43.49962" lon="5.52903">
        <ele>291</ele>
        <time>2021-01-12T15:00:24Z</time>
      </trkpt>
      <trkpt lat="43.49963" lon="5.52904">
        <ele>291</ele>
        <time>2021-01-12T15:00:26Z</time>
      </trkpt>
      <trkpt lat="43.49966" lon="5.52904">
        <ele>291</ele>
        <time>2021-01-12T15:00:28Z</time>
      </trkpt>
      <trkpt lat="43.49968" lon="5.52905">
        <ele>291</ele>
        <time>2021-01-12T15:00:30Z</time>
      </trkpt>
      <trkpt lat="43.4997" lon="5.52906">
        <ele>290</ele>
        <time>2021-01-12T15:00:33Z</time>
      </trkpt>
      <trkpt lat="43.4997" lon="5.52909">
        <ele>290</ele>
        <time>2021-01-12T15:00:35Z</time>
      </trkpt>
      <trkpt lat="43.4997" lon="5.52912">
        <ele>290</ele>
        <time>2021-01-12T15:00:37Z</time>
      </trkpt>
      <trkpt lat="43.4997" lon="5.52915">
        <ele>291</ele>
        <time>2021-01-12T15:00:39Z</time>
      </trkpt>
      <trkpt lat="43.4997" lon="5.52917">
        <ele>291</ele>
        <time>2021-01-12T15:00:41Z</time>
      </trkpt>
      <trkpt lat="43.4997" lon="5.52921">
        <ele>291</ele>
        <time>2021-01-12T15:00:44Z</time>
      </trkpt>
      <trkpt lat="43.49971" lon="5.52924">
        <ele>291</ele>
        <time>2021-01-12T15:00:46Z</time>
      </trkpt>
      <trkpt lat="43.49972" lon="5.52928">
        <ele>292</ele>
        <time>2021-01-12T15:00:49Z</time>
      </trkpt>
      <trkpt lat="43.49973" lon="5.5293">
        <ele>293</ele>
        <time>2021-01-12T15:00:51Z</time>
      </trkpt>
      <trkpt lat="43.49973" lon="5.52933">
        <ele>292</ele>
        <time>2021-01-12T15:00:54Z</time>
      </trkpt>
      <trkpt lat="43.49973" lon="5.52936">
        <ele>292</ele>
        <time>2021-01-12T15:00:56Z</time>
      </trkpt>
      <trkpt lat="43.49974" lon="5.52939">
        <ele>292</ele>
        <time>2021-01-12T15:00:58Z</time>
      </trkpt>
      <trkpt lat="43.49974" lon="5.52942">
        <ele>292</ele>
        <time>2021-01-12T15:01:00Z</time>
      </trkpt>
      <trkpt lat="43.49975" lon="5.52945">
        <ele>293</ele>
        <time>2021-01-12T15:01:03Z</time>
      </trkpt>
      <trkpt lat="43.49975" lon="5.52948">
        <ele>292</ele>
        <time>2021-01-12T15:01:05Z</time>
      </trkpt>
      <trkpt lat="43.49975" lon="5.52951">
        <ele>293</ele>
        <time>2021-01-12T15:01:08Z</time>
      </trkpt>
      <trkpt lat="43.49975" lon="5.52954">
        <ele>293</ele>
        <time>2021-01-12T15:01:10Z</time>
      </trkpt>
      <trkpt lat="43.49976" lon="5.52957">
        <ele>293</ele>
        <time>2021-01-12T15:01:12Z</time>
      </trkpt>
      <trkpt lat="43.49976" lon="5.52961">
        <ele>294</ele>
        <time>2021-01-12T15:01:15Z</time>
      </trkpt>
      <trkpt lat="43.49976" lon="5.52964">
        <ele>295</ele>
        <time>2021-01-12T15:01:17Z</time>
      </trkpt>
      <trkpt lat="43.49975" lon="5.52967">
        <ele>296</ele>
        <time>2021-01-12T15:01:20Z</time>
      </trkpt>
      <trkpt lat="43.49975" lon="5.5297">
        <ele>296</ele>
        <time>2021-01-12T15:01:22Z</time>
      </trkpt>
      <trkpt lat="43.49977" lon="5.52975">
        <ele>297</ele>
        <time>2021-01-12T15:01:35Z</time>
      </trkpt>
      <trkpt lat="43.49976" lon="5.52978">
        <ele>298</ele>
        <time>2021-01-12T15:01:39Z</time>
      </trkpt>
      <trkpt lat="43.49976" lon="5.52982">
        <ele>297</ele>
        <time>2021-01-12T15:01:42Z</time>
      </trkpt>
      <trkpt lat="43.49976" lon="5.52985">
        <ele>297</ele>
        <time>2021-01-12T15:01:45Z</time>
      </trkpt>
      <trkpt lat="43.49976" lon="5.52988">
        <ele>296</ele>
        <time>2021-01-12T15:01:48Z</time>
      </trkpt>
      <trkpt lat="43.49975" lon="5.52991">
        <ele>297</ele>
        <time>2021-01-12T15:01:51Z</time>
      </trkpt>
      <trkpt lat="43.49975" lon="5.52994">
        <ele>298</ele>
        <time>2021-01-12T15:01:55Z</time>
      </trkpt>
      <trkpt lat="43.49976" lon="5.52996">
        <ele>299</ele>
        <time>2021-01-12T15:01:57Z</time>
      </trkpt>
      <trkpt lat="43.49975" lon="5.52999">
        <ele>300</ele>
        <time>2021-01-12T15:01:59Z</time>
      </trkpt>
      <trkpt lat="43.49975" lon="5.53002">
        <ele>299</ele>
        <time>2021-01-12T15:02:02Z</time>
      </trkpt>
      <trkpt lat="43.49976" lon="5.53005">
        <ele>299</ele>
        <time>2021-01-12T15:02:05Z</time>
      </trkpt>
      <trkpt lat="43.49976" lon="5.53008">
        <ele>299</ele>
        <time>2021-01-12T15:02:07Z</time>
      </trkpt>
      <trkpt lat="43.49976" lon="5.53011">
        <ele>298</ele>
        <time>2021-01-12T15:02:10Z</time>
      </trkpt>
      <trkpt lat="43.49976" lon="5.53014">
        <ele>298</ele>
        <time>2021-01-12T15:02:13Z</time>
      </trkpt>
      <trkpt lat="43.49975" lon="5.53017">
        <ele>298</ele>
        <time>2021-01-12T15:02:17Z</time>
      </trkpt>
      <trkpt lat="43.49975" lon="5.5302">
        <ele>298</ele>
        <time>2021-01-12T15:02:20Z</time>
      </trkpt>
      <trkpt lat="43.49974" lon="5.53023">
        <ele>298</ele>
        <time>2021-01-12T15:02:23Z</time>
      </trkpt>
      <trkpt lat="43.49974" lon="5.53026">
        <ele>298</ele>
        <time>2021-01-12T15:02:25Z</time>
      </trkpt>
      <trkpt lat="43.49974" lon="5.53029">
        <ele>298</ele>
        <time>2021-01-12T15:02:27Z</time>
      </trkpt>
      <trkpt lat="43.49974" lon="5.53031">
        <ele>299</ele>
        <time>2021-01-12T15:02:29Z</time>
      </trkpt>
      <trkpt lat="43.49974" lon="5.53034">
        <ele>299</ele>
        <time>2021-01-12T15:02:32Z</time>
      </trkpt>
      <trkpt lat="43.49974" lon="5.53037">
        <ele>299</ele>
        <time>2021-01-12T15:02:35Z</time>
      </trkpt>
      <trkpt lat="43.49974" lon="5.53041">
        <ele>298</ele>
        <time>2021-01-12T15:02:38Z</time>
      </trkpt>
      <trkpt lat="43.49974" lon="5.53045">
        <ele>298</ele>
        <time>2021-01-12T15:02:41Z</time>
      </trkpt>
      <trkpt lat="43.49974" lon="5.53048">
        <ele>299</ele>
        <time>2021-01-12T15:02:44Z</time>
      </trkpt>
      <trkpt lat="43.49974" lon="5.53051">
        <ele>299</ele>
        <time>2021-01-12T15:02:46Z</time>
      </trkpt>
      <trkpt lat="43.49974" lon="5.53054">
        <ele>299</ele>
        <time>2021-01-12T15:02:49Z</time>
      </trkpt>
      <trkpt lat="43.49973" lon="5.53056">
        <ele>298</ele>
        <time>2021-01-12T15:02:51Z</time>
      </trkpt>
      <trkpt lat="43.49972" lon="5.5306">
        <ele>298</ele>
        <time>2021-01-12T15:02:54Z</time>
      </trkpt>
      <trkpt lat="43.49971" lon="5.53062">
        <ele>298</ele>
        <time>2021-01-12T15:02:56Z</time>
      </trkpt>
      <trkpt lat="43.49971" lon="5.53066">
        <ele>298</ele>
        <time>2021-01-12T15:02:59Z</time>
      </trkpt>
      <trkpt lat="43.49972" lon="5.53068">
        <ele>297</ele>
        <time>2021-01-12T15:03:02Z</time>
      </trkpt>
      <trkpt lat="43.49971" lon="5.53071">
        <ele>297</ele>
        <time>2021-01-12T15:03:04Z</time>
      </trkpt>
      <trkpt lat="43.49972" lon="5.53073">
        <ele>297</ele>
        <time>2021-01-12T15:03:06Z</time>
      </trkpt>
      <trkpt lat="43.49971" lon="5.53077">
        <ele>297</ele>
        <time>2021-01-12T15:03:09Z</time>
      </trkpt>
      <trkpt lat="43.49971" lon="5.5308">
        <ele>298</ele>
        <time>2021-01-12T15:03:11Z</time>
      </trkpt>
      <trkpt lat="43.49971" lon="5.53083">
        <ele>298</ele>
        <time>2021-01-12T15:03:14Z</time>
      </trkpt>
      <trkpt lat="43.4997" lon="5.53086">
        <ele>298</ele>
        <time>2021-01-12T15:03:16Z</time>
      </trkpt>
      <trkpt lat="43.4997" lon="5.5309">
        <ele>298</ele>
        <time>2021-01-12T15:03:19Z</time>
      </trkpt>
      <trkpt lat="43.49969" lon="5.53093">
        <ele>298</ele>
        <time>2021-01-12T15:03:22Z</time>
      </trkpt>
      <trkpt lat="43.49969" lon="5.53096">
        <ele>298</ele>
        <time>2021-01-12T15:03:25Z</time>
      </trkpt>
      <trkpt lat="43.49969" lon="5.531">
        <ele>298</ele>
        <time>2021-01-12T15:03:28Z</time>
      </trkpt>
      <trkpt lat="43.49969" lon="5.53103">
        <ele>298</ele>
        <time>2021-01-12T15:03:31Z</time>
      </trkpt>
      <trkpt lat="43.49969" lon="5.53105">
        <ele>298</ele>
        <time>2021-01-12T15:03:33Z</time>
      </trkpt>
      <trkpt lat="43.49969" lon="5.53109">
        <ele>299</ele>
        <time>2021-01-12T15:03:36Z</time>
      </trkpt>
      <trkpt lat="43.4997" lon="5.53111">
        <ele>299</ele>
        <time>2021-01-12T15:03:38Z</time>
      </trkpt>
      <trkpt lat="43.49969" lon="5.53115">
        <ele>300</ele>
        <time>2021-01-12T15:03:41Z</time>
      </trkpt>
      <trkpt lat="43.49969" lon="5.53118">
        <ele>300</ele>
        <time>2021-01-12T15:03:43Z</time>
      </trkpt>
      <trkpt lat="43.49969" lon="5.5312">
        <ele>299</ele>
        <time>2021-01-12T15:03:46Z</time>
      </trkpt>
      <trkpt lat="43.49969" lon="5.53123">
        <ele>298</ele>
        <time>2021-01-12T15:03:49Z</time>
      </trkpt>
      <trkpt lat="43.4997" lon="5.53126">
        <ele>298</ele>
        <time>2021-01-12T15:03:51Z</time>
      </trkpt>
      <trkpt lat="43.4997" lon="5.53128">
        <ele>297</ele>
        <time>2021-01-12T15:03:53Z</time>
      </trkpt>
      <trkpt lat="43.49969" lon="5.53131">
        <ele>297</ele>
        <time>2021-01-12T15:03:55Z</time>
      </trkpt>
      <trkpt lat="43.49969" lon="5.53135">
        <ele>298</ele>
        <time>2021-01-12T15:03:58Z</time>
      </trkpt>
      <trkpt lat="43.49969" lon="5.53137">
        <ele>298</ele>
        <time>2021-01-12T15:04:00Z</time>
      </trkpt>
      <trkpt lat="43.49969" lon="5.53141">
        <ele>298</ele>
        <time>2021-01-12T15:04:03Z</time>
      </trkpt>
      <trkpt lat="43.49969" lon="5.53144">
        <ele>299</ele>
        <time>2021-01-12T15:04:06Z</time>
      </trkpt>
      <trkpt lat="43.49969" lon="5.53147">
        <ele>299</ele>
        <time>2021-01-12T15:04:08Z</time>
      </trkpt>
      <trkpt lat="43.49969" lon="5.5315">
        <ele>299</ele>
        <time>2021-01-12T15:04:11Z</time>
      </trkpt>
      <trkpt lat="43.49969" lon="5.53153">
        <ele>298</ele>
        <time>2021-01-12T15:04:14Z</time>
      </trkpt>
      <trkpt lat="43.49968" lon="5.53156">
        <ele>297</ele>
        <time>2021-01-12T15:04:16Z</time>
      </trkpt>
      <trkpt lat="43.49968" lon="5.53158">
        <ele>297</ele>
        <time>2021-01-12T15:04:18Z</time>
      </trkpt>
      <trkpt lat="43.49967" lon="5.53162">
        <ele>297</ele>
        <time>2021-01-12T15:04:20Z</time>
      </trkpt>
      <trkpt lat="43.49966" lon="5.53164">
        <ele>298</ele>
        <time>2021-01-12T15:04:22Z</time>
      </trkpt>
      <trkpt lat="43.49965" lon="5.53168">
        <ele>299</ele>
        <time>2021-01-12T15:04:25Z</time>
      </trkpt>
      <trkpt lat="43.49964" lon="5.5317">
        <ele>299</ele>
        <time>2021-01-12T15:04:27Z</time>
      </trkpt>
      <trkpt lat="43.49963" lon="5.53172">
        <ele>299</ele>
        <time>2021-01-12T15:04:29Z</time>
      </trkpt>
      <trkpt lat="43.49962" lon="5.53175">
        <ele>300</ele>
        <time>2021-01-12T15:04:32Z</time>
      </trkpt>
      <trkpt lat="43.49961" lon="5.53178">
        <ele>301</ele>
        <time>2021-01-12T15:04:34Z</time>
      </trkpt>
      <trkpt lat="43.49961" lon="5.53181">
        <ele>300</ele>
        <time>2021-01-12T15:04:36Z</time>
      </trkpt>
      <trkpt lat="43.4996" lon="5.53183">
        <ele>300</ele>
        <time>2021-01-12T15:04:38Z</time>
      </trkpt>
      <trkpt lat="43.49959" lon="5.53186">
        <ele>301</ele>
        <time>2021-01-12T15:04:40Z</time>
      </trkpt>
      <trkpt lat="43.49958" lon="5.53189">
        <ele>301</ele>
        <time>2021-01-12T15:04:42Z</time>
      </trkpt>
      <trkpt lat="43.49958" lon="5.53191">
        <ele>301</ele>
        <time>2021-01-12T15:04:44Z</time>
      </trkpt>
      <trkpt lat="43.49957" lon="5.53194">
        <ele>301</ele>
        <time>2021-01-12T15:04:47Z</time>
      </trkpt>
      <trkpt lat="43.49955" lon="5.53197">
        <ele>301</ele>
        <time>2021-01-12T15:04:49Z</time>
      </trkpt>
      <trkpt lat="43.49954" lon="5.53199">
        <ele>300</ele>
        <time>2021-01-12T15:04:51Z</time>
      </trkpt>
      <trkpt lat="43.49954" lon="5.53202">
        <ele>300</ele>
        <time>2021-01-12T15:04:53Z</time>
      </trkpt>
      <trkpt lat="43.49953" lon="5.53205">
        <ele>301</ele>
        <time>2021-01-12T15:04:55Z</time>
      </trkpt>
      <trkpt lat="43.49953" lon="5.53209">
        <ele>301</ele>
        <time>2021-01-12T15:04:58Z</time>
      </trkpt>
      <trkpt lat="43.49952" lon="5.53211">
        <ele>302</ele>
        <time>2021-01-12T15:05:00Z</time>
      </trkpt>
      <trkpt lat="43.49951" lon="5.53215">
        <ele>302</ele>
        <time>2021-01-12T15:05:03Z</time>
      </trkpt>
      <trkpt lat="43.49951" lon="5.53218">
        <ele>302</ele>
        <time>2021-01-12T15:05:05Z</time>
      </trkpt>
      <trkpt lat="43.4995" lon="5.5322">
        <ele>302</ele>
        <time>2021-01-12T15:05:07Z</time>
      </trkpt>
      <trkpt lat="43.49949" lon="5.53223">
        <ele>303</ele>
        <time>2021-01-12T15:05:09Z</time>
      </trkpt>
      <trkpt lat="43.49949" lon="5.53226">
        <ele>304</ele>
        <time>2021-01-12T15:05:12Z</time>
      </trkpt>
      <trkpt lat="43.49948" lon="5.53229">
        <ele>303</ele>
        <time>2021-01-12T15:05:14Z</time>
      </trkpt>
      <trkpt lat="43.49947" lon="5.53231">
        <ele>303</ele>
        <time>2021-01-12T15:05:16Z</time>
      </trkpt>
      <trkpt lat="43.49947" lon="5.53235">
        <ele>302</ele>
        <time>2021-01-12T15:05:19Z</time>
      </trkpt>
      <trkpt lat="43.49945" lon="5.53238">
        <ele>302</ele>
        <time>2021-01-12T15:05:22Z</time>
      </trkpt>
      <trkpt lat="43.49944" lon="5.5324">
        <ele>302</ele>
        <time>2021-01-12T15:05:24Z</time>
      </trkpt>
      <trkpt lat="43.49943" lon="5.53243">
        <ele>301</ele>
        <time>2021-01-12T15:05:27Z</time>
      </trkpt>
      <trkpt lat="43.49941" lon="5.53246">
        <ele>301</ele>
        <time>2021-01-12T15:05:29Z</time>
      </trkpt>
      <trkpt lat="43.4994" lon="5.53249">
        <ele>301</ele>
        <time>2021-01-12T15:05:32Z</time>
      </trkpt>
      <trkpt lat="43.49939" lon="5.53251">
        <ele>301</ele>
        <time>2021-01-12T15:05:34Z</time>
      </trkpt>
      <trkpt lat="43.49939" lon="5.53253">
        <ele>300</ele>
        <time>2021-01-12T15:05:36Z</time>
      </trkpt>
      <trkpt lat="43.49937" lon="5.53256">
        <ele>301</ele>
        <time>2021-01-12T15:05:39Z</time>
      </trkpt>
      <trkpt lat="43.49936" lon="5.5326">
        <ele>302</ele>
        <time>2021-01-12T15:05:42Z</time>
      </trkpt>
      <trkpt lat="43.49935" lon="5.53262">
        <ele>302</ele>
        <time>2021-01-12T15:05:44Z</time>
      </trkpt>
      <trkpt lat="43.49934" lon="5.53265">
        <ele>302</ele>
        <time>2021-01-12T15:05:47Z</time>
      </trkpt>
      <trkpt lat="43.49933" lon="5.53269">
        <ele>302</ele>
        <time>2021-01-12T15:05:55Z</time>
      </trkpt>
      <trkpt lat="43.49932" lon="5.53272">
        <ele>302</ele>
        <time>2021-01-12T15:05:57Z</time>
      </trkpt>
      <trkpt lat="43.49931" lon="5.53274">
        <ele>302</ele>
        <time>2021-01-12T15:05:59Z</time>
      </trkpt>
      <trkpt lat="43.49929" lon="5.53277">
        <ele>301</ele>
        <time>2021-01-12T15:06:02Z</time>
      </trkpt>
      <trkpt lat="43.49928" lon="5.53279">
        <ele>301</ele>
        <time>2021-01-12T15:06:04Z</time>
      </trkpt>
      <trkpt lat="43.49927" lon="5.53282">
        <ele>302</ele>
        <time>2021-01-12T15:06:07Z</time>
      </trkpt>
      <trkpt lat="43.49926" lon="5.53285">
        <ele>301</ele>
        <time>2021-01-12T15:06:10Z</time>
      </trkpt>
      <trkpt lat="43.49925" lon="5.53288">
        <ele>301</ele>
        <time>2021-01-12T15:06:12Z</time>
      </trkpt>
      <trkpt lat="43.49924" lon="5.5329">
        <ele>301</ele>
        <time>2021-01-12T15:06:14Z</time>
      </trkpt>
      <trkpt lat="43.49922" lon="5.53293">
        <ele>301</ele>
        <time>2021-01-12T15:06:17Z</time>
      </trkpt>
      <trkpt lat="43.49921" lon="5.53297">
        <ele>301</ele>
        <time>2021-01-12T15:06:20Z</time>
      </trkpt>
      <trkpt lat="43.4992" lon="5.533">
        <ele>301</ele>
        <time>2021-01-12T15:06:22Z</time>
      </trkpt>
      <trkpt lat="43.49919" lon="5.53302">
        <ele>301</ele>
        <time>2021-01-12T15:06:24Z</time>
      </trkpt>
      <trkpt lat="43.49918" lon="5.53306">
        <ele>301</ele>
        <time>2021-01-12T15:06:26Z</time>
      </trkpt>
      <trkpt lat="43.49917" lon="5.53308">
        <ele>302</ele>
        <time>2021-01-12T15:06:28Z</time>
      </trkpt>
      <trkpt lat="43.49917" lon="5.53311">
        <ele>302</ele>
        <time>2021-01-12T15:06:30Z</time>
      </trkpt>
      <trkpt lat="43.49916" lon="5.53313">
        <ele>302</ele>
        <time>2021-01-12T15:06:32Z</time>
      </trkpt>
      <trkpt lat="43.49916" lon="5.53316">
        <ele>302</ele>
        <time>2021-01-12T15:06:34Z</time>
      </trkpt>
      <trkpt lat="43.49915" lon="5.53319">
        <ele>302</ele>
        <time>2021-01-12T15:06:37Z</time>
      </trkpt>
      <trkpt lat="43.49914" lon="5.53322">
        <ele>302</ele>
        <time>2021-01-12T15:06:39Z</time>
      </trkpt>
      <trkpt lat="43.49913" lon="5.53325">
        <ele>302</ele>
        <time>2021-01-12T15:06:42Z</time>
      </trkpt>
      <trkpt lat="43.49913" lon="5.53328">
        <ele>302</ele>
        <time>2021-01-12T15:06:44Z</time>
      </trkpt>
      <trkpt lat="43.49912" lon="5.53331">
        <ele>302</ele>
        <time>2021-01-12T15:06:46Z</time>
      </trkpt>
      <trkpt lat="43.49911" lon="5.53333">
        <ele>302</ele>
        <time>2021-01-12T15:06:48Z</time>
      </trkpt>
      <trkpt lat="43.49911" lon="5.53336">
        <ele>302</ele>
        <time>2021-01-12T15:06:50Z</time>
      </trkpt>
      <trkpt lat="43.4991" lon="5.53339">
        <ele>302</ele>
        <time>2021-01-12T15:06:52Z</time>
      </trkpt>
      <trkpt lat="43.4991" lon="5.53341">
        <ele>302</ele>
        <time>2021-01-12T15:06:54Z</time>
      </trkpt>
      <trkpt lat="43.49909" lon="5.53344">
        <ele>304</ele>
        <time>2021-01-12T15:06:56Z</time>
      </trkpt>
      <trkpt lat="43.49909" lon="5.53347">
        <ele>304</ele>
        <time>2021-01-12T15:06:58Z</time>
      </trkpt>
      <trkpt lat="43.49909" lon="5.5335">
        <ele>304</ele>
        <time>2021-01-12T15:07:00Z</time>
      </trkpt>
      <trkpt lat="43.49908" lon="5.53352">
        <ele>304</ele>
        <time>2021-01-12T15:07:02Z</time>
      </trkpt>
      <trkpt lat="43.49908" lon="5.53355">
        <ele>304</ele>
        <time>2021-01-12T15:07:04Z</time>
      </trkpt>
      <trkpt lat="43.49908" lon="5.53359">
        <ele>304</ele>
        <time>2021-01-12T15:07:07Z</time>
      </trkpt>
      <trkpt lat="43.49908" lon="5.53362">
        <ele>303</ele>
        <time>2021-01-12T15:07:10Z</time>
      </trkpt>
      <trkpt lat="43.49906" lon="5.53365">
        <ele>303</ele>
        <time>2021-01-12T15:07:13Z</time>
      </trkpt>
      <trkpt lat="43.49906" lon="5.53369">
        <ele>304</ele>
        <time>2021-01-12T15:07:16Z</time>
      </trkpt>
      <trkpt lat="43.49906" lon="5.53372">
        <ele>303</ele>
        <time>2021-01-12T15:07:18Z</time>
      </trkpt>
      <trkpt lat="43.49905" lon="5.53375">
        <ele>303</ele>
        <time>2021-01-12T15:07:20Z</time>
      </trkpt>
      <trkpt lat="43.49905" lon="5.53377">
        <ele>303</ele>
        <time>2021-01-12T15:07:22Z</time>
      </trkpt>
      <trkpt lat="43.49905" lon="5.5338">
        <ele>303</ele>
        <time>2021-01-12T15:07:24Z</time>
      </trkpt>
      <trkpt lat="43.49904" lon="5.53382">
        <ele>304</ele>
        <time>2021-01-12T15:07:26Z</time>
      </trkpt>
      <trkpt lat="43.49904" lon="5.53385">
        <ele>303</ele>
        <time>2021-01-12T15:07:28Z</time>
      </trkpt>
      <trkpt lat="43.49904" lon="5.53389">
        <ele>303</ele>
        <time>2021-01-12T15:07:31Z</time>
      </trkpt>
      <trkpt lat="43.49904" lon="5.53392">
        <ele>304</ele>
        <time>2021-01-12T15:07:33Z</time>
      </trkpt>
      <trkpt lat="43.49903" lon="5.53394">
        <ele>304</ele>
        <time>2021-01-12T15:07:35Z</time>
      </trkpt>
      <trkpt lat="43.49903" lon="5.53397">
        <ele>303</ele>
        <time>2021-01-12T15:07:37Z</time>
      </trkpt>
      <trkpt lat="43.49903" lon="5.534">
        <ele>303</ele>
        <time>2021-01-12T15:07:39Z</time>
      </trkpt>
      <trkpt lat="43.49902" lon="5.53403">
        <ele>304</ele>
        <time>2021-01-12T15:07:41Z</time>
      </trkpt>
      <trkpt lat="43.49902" lon="5.53405">
        <ele>304</ele>
        <time>2021-01-12T15:07:43Z</time>
      </trkpt>
      <trkpt lat="43.49902" lon="5.53408">
        <ele>304</ele>
        <time>2021-01-12T15:07:45Z</time>
      </trkpt>
      <trkpt lat="43.49902" lon="5.5341">
        <ele>305</ele>
        <time>2021-01-12T15:07:47Z</time>
      </trkpt>
      <trkpt lat="43.49902" lon="5.53413">
        <ele>305</ele>
        <time>2021-01-12T15:07:49Z</time>
      </trkpt>
      <trkpt lat="43.49902" lon="5.53416">
        <ele>304</ele>
        <time>2021-01-12T15:07:51Z</time>
      </trkpt>
      <trkpt lat="43.49901" lon="5.53419">
        <ele>305</ele>
        <time>2021-01-12T15:07:53Z</time>
      </trkpt>
      <trkpt lat="43.49901" lon="5.53421">
        <ele>304</ele>
        <time>2021-01-12T15:07:55Z</time>
      </trkpt>
      <trkpt lat="43.49901" lon="5.53424">
        <ele>305</ele>
        <time>2021-01-12T15:07:58Z</time>
      </trkpt>
      <trkpt lat="43.499" lon="5.53427">
        <ele>304</ele>
        <time>2021-01-12T15:08:01Z</time>
      </trkpt>
      <trkpt lat="43.49901" lon="5.53431">
        <ele>305</ele>
        <time>2021-01-12T15:08:04Z</time>
      </trkpt>
      <trkpt lat="43.49901" lon="5.53434">
        <ele>305</ele>
        <time>2021-01-12T15:08:07Z</time>
      </trkpt>
      <trkpt lat="43.499" lon="5.53437">
        <ele>304</ele>
        <time>2021-01-12T15:08:09Z</time>
      </trkpt>
      <trkpt lat="43.499" lon="5.53441">
        <ele>304</ele>
        <time>2021-01-12T15:08:12Z</time>
      </trkpt>
      <trkpt lat="43.499" lon="5.53443">
        <ele>304</ele>
        <time>2021-01-12T15:08:14Z</time>
      </trkpt>
      <trkpt lat="43.499" lon="5.53447">
        <ele>304</ele>
        <time>2021-01-12T15:08:17Z</time>
      </trkpt>
      <trkpt lat="43.49899" lon="5.5345">
        <ele>304</ele>
        <time>2021-01-12T15:08:20Z</time>
      </trkpt>
      <trkpt lat="43.499" lon="5.53453">
        <ele>305</ele>
        <time>2021-01-12T15:08:22Z</time>
      </trkpt>
      <trkpt lat="43.499" lon="5.53456">
        <ele>305</ele>
        <time>2021-01-12T15:08:24Z</time>
      </trkpt>
      <trkpt lat="43.499" lon="5.53459">
        <ele>306</ele>
        <time>2021-01-12T15:08:27Z</time>
      </trkpt>
      <trkpt lat="43.499" lon="5.53462">
        <ele>306</ele>
        <time>2021-01-12T15:08:30Z</time>
      </trkpt>
      <trkpt lat="43.49901" lon="5.53465">
        <ele>305</ele>
        <time>2021-01-12T15:08:32Z</time>
      </trkpt>
      <trkpt lat="43.499" lon="5.53468">
        <ele>305</ele>
        <time>2021-01-12T15:08:34Z</time>
      </trkpt>
      <trkpt lat="43.49901" lon="5.53471">
        <ele>305</ele>
        <time>2021-01-12T15:08:36Z</time>
      </trkpt>
      <trkpt lat="43.49901" lon="5.53474">
        <ele>305</ele>
        <time>2021-01-12T15:08:39Z</time>
      </trkpt>
      <trkpt lat="43.49901" lon="5.53476">
        <ele>305</ele>
        <time>2021-01-12T15:08:41Z</time>
      </trkpt>
      <trkpt lat="43.49901" lon="5.5348">
        <ele>305</ele>
        <time>2021-01-12T15:08:44Z</time>
      </trkpt>
      <trkpt lat="43.49901" lon="5.53483">
        <ele>305</ele>
        <time>2021-01-12T15:08:46Z</time>
      </trkpt>
      <trkpt lat="43.49901" lon="5.53486">
        <ele>305</ele>
        <time>2021-01-12T15:08:49Z</time>
      </trkpt>
      <trkpt lat="43.499" lon="5.53491">
        <ele>306</ele>
        <time>2021-01-12T15:09:09Z</time>
      </trkpt>
      <trkpt lat="43.499" lon="5.53494">
        <ele>306</ele>
        <time>2021-01-12T15:09:11Z</time>
      </trkpt>
      <trkpt lat="43.49899" lon="5.53496">
        <ele>306</ele>
        <time>2021-01-12T15:09:13Z</time>
      </trkpt>
      <trkpt lat="43.49898" lon="5.53498">
        <ele>306</ele>
        <time>2021-01-12T15:09:15Z</time>
      </trkpt>
      <trkpt lat="43.49897" lon="5.53501">
        <ele>306</ele>
        <time>2021-01-12T15:09:18Z</time>
      </trkpt>
      <trkpt lat="43.49897" lon="5.53504">
        <ele>306</ele>
        <time>2021-01-12T15:09:20Z</time>
      </trkpt>
      <trkpt lat="43.49895" lon="5.53507">
        <ele>306</ele>
        <time>2021-01-12T15:09:23Z</time>
      </trkpt>
      <trkpt lat="43.49893" lon="5.53508">
        <ele>306</ele>
        <time>2021-01-12T15:09:25Z</time>
      </trkpt>
      <trkpt lat="43.49891" lon="5.53511">
        <ele>306</ele>
        <time>2021-01-12T15:09:28Z</time>
      </trkpt>
      <trkpt lat="43.4989" lon="5.53512">
        <ele>306</ele>
        <time>2021-01-12T15:09:30Z</time>
      </trkpt>
      <trkpt lat="43.49888" lon="5.53513">
        <ele>306</ele>
        <time>2021-01-12T15:09:33Z</time>
      </trkpt>
      <trkpt lat="43.49886" lon="5.53514">
        <ele>307</ele>
        <time>2021-01-12T15:09:35Z</time>
      </trkpt>
      <trkpt lat="43.49884" lon="5.53515">
        <ele>306</ele>
        <time>2021-01-12T15:09:37Z</time>
      </trkpt>
      <trkpt lat="43.49882" lon="5.53516">
        <ele>306</ele>
        <time>2021-01-12T15:09:39Z</time>
      </trkpt>
      <trkpt lat="43.49881" lon="5.53517">
        <ele>306</ele>
        <time>2021-01-12T15:09:41Z</time>
      </trkpt>
      <trkpt lat="43.49878" lon="5.53517">
        <ele>307</ele>
        <time>2021-01-12T15:09:44Z</time>
      </trkpt>
      <trkpt lat="43.49877" lon="5.53517">
        <ele>307</ele>
        <time>2021-01-12T15:09:46Z</time>
      </trkpt>
      <trkpt lat="43.49875" lon="5.53517">
        <ele>307</ele>
        <time>2021-01-12T15:09:48Z</time>
      </trkpt>
      <trkpt lat="43.49873" lon="5.53518">
        <ele>307</ele>
        <time>2021-01-12T15:09:50Z</time>
      </trkpt>
      <trkpt lat="43.4987" lon="5.53518">
        <ele>307</ele>
        <time>2021-01-12T15:09:52Z</time>
      </trkpt>
      <trkpt lat="43.49869" lon="5.53519">
        <ele>307</ele>
        <time>2021-01-12T15:09:54Z</time>
      </trkpt>
      <trkpt lat="43.49867" lon="5.5352">
        <ele>307</ele>
        <time>2021-01-12T15:09:56Z</time>
      </trkpt>
      <trkpt lat="43.49865" lon="5.5352">
        <ele>307</ele>
        <time>2021-01-12T15:09:58Z</time>
      </trkpt>
      <trkpt lat="43.49863" lon="5.53522">
        <ele>307</ele>
        <time>2021-01-12T15:10:01Z</time>
      </trkpt>
      <trkpt lat="43.4986" lon="5.53523">
        <ele>307</ele>
        <time>2021-01-12T15:10:04Z</time>
      </trkpt>
      <trkpt lat="43.49858" lon="5.53525">
        <ele>308</ele>
        <time>2021-01-12T15:10:07Z</time>
      </trkpt>
      <trkpt lat="43.49856" lon="5.53525">
        <ele>308</ele>
        <time>2021-01-12T15:10:11Z</time>
      </trkpt>
      <trkpt lat="43.49854" lon="5.53527">
        <ele>308</ele>
        <time>2021-01-12T15:10:13Z</time>
      </trkpt>
      <trkpt lat="43.49851" lon="5.53528">
        <ele>309</ele>
        <time>2021-01-12T15:10:16Z</time>
      </trkpt>
      <trkpt lat="43.49849" lon="5.5353">
        <ele>309</ele>
        <time>2021-01-12T15:10:19Z</time>
      </trkpt>
      <trkpt lat="43.49847" lon="5.53531">
        <ele>309</ele>
        <time>2021-01-12T15:10:22Z</time>
      </trkpt>
      <trkpt lat="43.49845" lon="5.53531">
        <ele>309</ele>
        <time>2021-01-12T15:10:24Z</time>
      </trkpt>
      <trkpt lat="43.49843" lon="5.53533">
        <ele>310</ele>
        <time>2021-01-12T15:10:27Z</time>
      </trkpt>
      <trkpt lat="43.49841" lon="5.53534">
        <ele>311</ele>
        <time>2021-01-12T15:10:30Z</time>
      </trkpt>
      <trkpt lat="43.49838" lon="5.53535">
        <ele>311</ele>
        <time>2021-01-12T15:10:33Z</time>
      </trkpt>
      <trkpt lat="43.49837" lon="5.53537">
        <ele>310</ele>
        <time>2021-01-12T15:10:35Z</time>
      </trkpt>
      <trkpt lat="43.49835" lon="5.53537">
        <ele>311</ele>
        <time>2021-01-12T15:10:37Z</time>
      </trkpt>
      <trkpt lat="43.49833" lon="5.53539">
        <ele>312</ele>
        <time>2021-01-12T15:10:40Z</time>
      </trkpt>
      <trkpt lat="43.4983" lon="5.53539">
        <ele>311</ele>
        <time>2021-01-12T15:10:43Z</time>
      </trkpt>
      <trkpt lat="43.49828" lon="5.53541">
        <ele>312</ele>
        <time>2021-01-12T15:10:45Z</time>
      </trkpt>
      <trkpt lat="43.49827" lon="5.53541">
        <ele>312</ele>
        <time>2021-01-12T15:10:47Z</time>
      </trkpt>
      <trkpt lat="43.49825" lon="5.53542">
        <ele>312</ele>
        <time>2021-01-12T15:10:49Z</time>
      </trkpt>
      <trkpt lat="43.49823" lon="5.53543">
        <ele>312</ele>
        <time>2021-01-12T15:10:52Z</time>
      </trkpt>
      <trkpt lat="43.49821" lon="5.53545">
        <ele>312</ele>
        <time>2021-01-12T15:10:55Z</time>
      </trkpt>
      <trkpt lat="43.49818" lon="5.53547">
        <ele>311</ele>
        <time>2021-01-12T15:10:58Z</time>
      </trkpt>
      <trkpt lat="43.49816" lon="5.53548">
        <ele>310</ele>
        <time>2021-01-12T15:11:01Z</time>
      </trkpt>
      <trkpt lat="43.49814" lon="5.53548">
        <ele>310</ele>
        <time>2021-01-12T15:11:03Z</time>
      </trkpt>
      <trkpt lat="43.49812" lon="5.53548">
        <ele>310</ele>
        <time>2021-01-12T15:11:05Z</time>
      </trkpt>
      <trkpt lat="43.49811" lon="5.53549">
        <ele>310</ele>
        <time>2021-01-12T15:11:07Z</time>
      </trkpt>
      <trkpt lat="43.49808" lon="5.53549">
        <ele>309</ele>
        <time>2021-01-12T15:11:10Z</time>
      </trkpt>
      <trkpt lat="43.49806" lon="5.53551">
        <ele>309</ele>
        <time>2021-01-12T15:11:16Z</time>
      </trkpt>
      <trkpt lat="43.49804" lon="5.53553">
        <ele>309</ele>
        <time>2021-01-12T15:11:18Z</time>
      </trkpt>
      <trkpt lat="43.49801" lon="5.53555">
        <ele>310</ele>
        <time>2021-01-12T15:11:21Z</time>
      </trkpt>
      <trkpt lat="43.49799" lon="5.53556">
        <ele>311</ele>
        <time>2021-01-12T15:11:23Z</time>
      </trkpt>
      <trkpt lat="43.49797" lon="5.53557">
        <ele>311</ele>
        <time>2021-01-12T15:11:25Z</time>
      </trkpt>
      <trkpt lat="43.49796" lon="5.53558">
        <ele>311</ele>
        <time>2021-01-12T15:11:27Z</time>
      </trkpt>
      <trkpt lat="43.49794" lon="5.5356">
        <ele>311</ele>
        <time>2021-01-12T15:11:29Z</time>
      </trkpt>
      <trkpt lat="43.49792" lon="5.53562">
        <ele>313</ele>
        <time>2021-01-12T15:11:32Z</time>
      </trkpt>
      <trkpt lat="43.4979" lon="5.53563">
        <ele>314</ele>
        <time>2021-01-12T15:11:34Z</time>
      </trkpt>
      <trkpt lat="43.49787" lon="5.53565">
        <ele>313</ele>
        <time>2021-01-12T15:11:36Z</time>
      </trkpt>
      <trkpt lat="43.49786" lon="5.53565">
        <ele>313</ele>
        <time>2021-01-12T15:11:38Z</time>
      </trkpt>
      <trkpt lat="43.49784" lon="5.53567">
        <ele>314</ele>
        <time>2021-01-12T15:11:41Z</time>
      </trkpt>
      <trkpt lat="43.49782" lon="5.53569">
        <ele>314</ele>
        <time>2021-01-12T15:11:44Z</time>
      </trkpt>
      <trkpt lat="43.4978" lon="5.53571">
        <ele>315</ele>
        <time>2021-01-12T15:11:47Z</time>
      </trkpt>
      <trkpt lat="43.49779" lon="5.53573">
        <ele>315</ele>
        <time>2021-01-12T15:11:49Z</time>
      </trkpt>
      <trkpt lat="43.49777" lon="5.53575">
        <ele>315</ele>
        <time>2021-01-12T15:11:51Z</time>
      </trkpt>
      <trkpt lat="43.49776" lon="5.53576">
        <ele>316</ele>
        <time>2021-01-12T15:11:53Z</time>
      </trkpt>
      <trkpt lat="43.49774" lon="5.53578">
        <ele>316</ele>
        <time>2021-01-12T15:11:55Z</time>
      </trkpt>
      <trkpt lat="43.49772" lon="5.5358">
        <ele>316</ele>
        <time>2021-01-12T15:11:58Z</time>
      </trkpt>
      <trkpt lat="43.49771" lon="5.53581">
        <ele>316</ele>
        <time>2021-01-12T15:12:00Z</time>
      </trkpt>
      <trkpt lat="43.49769" lon="5.53583">
        <ele>316</ele>
        <time>2021-01-12T15:12:02Z</time>
      </trkpt>
      <trkpt lat="43.49767" lon="5.53584">
        <ele>316</ele>
        <time>2021-01-12T15:12:05Z</time>
      </trkpt>
      <trkpt lat="43.49765" lon="5.53587">
        <ele>316</ele>
        <time>2021-01-12T15:12:08Z</time>
      </trkpt>
      <trkpt lat="43.49764" lon="5.53588">
        <ele>316</ele>
        <time>2021-01-12T15:12:10Z</time>
      </trkpt>
      <trkpt lat="43.49763" lon="5.53591">
        <ele>317</ele>
        <time>2021-01-12T15:12:12Z</time>
      </trkpt>
      <trkpt lat="43.49762" lon="5.53594">
        <ele>316</ele>
        <time>2021-01-12T15:12:15Z</time>
      </trkpt>
      <trkpt lat="43.49761" lon="5.53597">
        <ele>317</ele>
        <time>2021-01-12T15:12:18Z</time>
      </trkpt>
      <trkpt lat="43.4976" lon="5.53599">
        <ele>317</ele>
        <time>2021-01-12T15:12:20Z</time>
      </trkpt>
      <trkpt lat="43.49758" lon="5.53602">
        <ele>317</ele>
        <time>2021-01-12T15:12:23Z</time>
      </trkpt>
      <trkpt lat="43.49757" lon="5.53604">
        <ele>317</ele>
        <time>2021-01-12T15:12:26Z</time>
      </trkpt>
      <trkpt lat="43.49756" lon="5.53606">
        <ele>318</ele>
        <time>2021-01-12T15:12:29Z</time>
      </trkpt>
      <trkpt lat="43.49754" lon="5.53609">
        <ele>318</ele>
        <time>2021-01-12T15:12:32Z</time>
      </trkpt>
      <trkpt lat="43.49753" lon="5.53612">
        <ele>319</ele>
        <time>2021-01-12T15:12:35Z</time>
      </trkpt>
      <trkpt lat="43.49753" lon="5.53615">
        <ele>319</ele>
        <time>2021-01-12T15:12:39Z</time>
      </trkpt>
      <trkpt lat="43.49752" lon="5.53618">
        <ele>320</ele>
        <time>2021-01-12T15:12:43Z</time>
      </trkpt>
      <trkpt lat="43.49751" lon="5.53621">
        <ele>320</ele>
        <time>2021-01-12T15:12:48Z</time>
      </trkpt>
      <trkpt lat="43.49749" lon="5.53624">
        <ele>320</ele>
        <time>2021-01-12T15:12:51Z</time>
      </trkpt>
      <trkpt lat="43.49749" lon="5.53627">
        <ele>320</ele>
        <time>2021-01-12T15:12:54Z</time>
      </trkpt>
      <trkpt lat="43.49749" lon="5.5363">
        <ele>321</ele>
        <time>2021-01-12T15:12:57Z</time>
      </trkpt>
      <trkpt lat="43.49748" lon="5.53632">
        <ele>320</ele>
        <time>2021-01-12T15:12:59Z</time>
      </trkpt>
      <trkpt lat="43.49749" lon="5.53635">
        <ele>321</ele>
        <time>2021-01-12T15:13:02Z</time>
      </trkpt>
      <trkpt lat="43.49748" lon="5.53638">
        <ele>321</ele>
        <time>2021-01-12T15:13:05Z</time>
      </trkpt>
      <trkpt lat="43.49747" lon="5.5364">
        <ele>321</ele>
        <time>2021-01-12T15:13:13Z</time>
      </trkpt>
      <trkpt lat="43.49747" lon="5.53643">
        <ele>320</ele>
        <time>2021-01-12T15:13:16Z</time>
      </trkpt>
      <trkpt lat="43.49748" lon="5.53646">
        <ele>319</ele>
        <time>2021-01-12T15:13:20Z</time>
      </trkpt>
      <trkpt lat="43.49747" lon="5.53649">
        <ele>319</ele>
        <time>2021-01-12T15:13:23Z</time>
      </trkpt>
      <trkpt lat="43.49747" lon="5.53654">
        <ele>320</ele>
        <time>2021-01-12T15:13:28Z</time>
      </trkpt>
      <trkpt lat="43.49746" lon="5.53657">
        <ele>321</ele>
        <time>2021-01-12T15:13:31Z</time>
      </trkpt>
      <trkpt lat="43.49747" lon="5.5366">
        <ele>320</ele>
        <time>2021-01-12T15:13:34Z</time>
      </trkpt>
      <trkpt lat="43.49747" lon="5.53663">
        <ele>321</ele>
        <time>2021-01-12T15:13:37Z</time>
      </trkpt>
      <trkpt lat="43.49747" lon="5.53665">
        <ele>321</ele>
        <time>2021-01-12T15:13:40Z</time>
      </trkpt>
      <trkpt lat="43.49746" lon="5.5367">
        <ele>320</ele>
        <time>2021-01-12T15:13:46Z</time>
      </trkpt>
      <trkpt lat="43.49746" lon="5.53673">
        <ele>321</ele>
        <time>2021-01-12T15:13:50Z</time>
      </trkpt>
      <trkpt lat="43.49745" lon="5.53676">
        <ele>321</ele>
        <time>2021-01-12T15:13:53Z</time>
      </trkpt>
      <trkpt lat="43.49745" lon="5.53679">
        <ele>321</ele>
        <time>2021-01-12T15:13:57Z</time>
      </trkpt>
      <trkpt lat="43.49746" lon="5.53681">
        <ele>321</ele>
        <time>2021-01-12T15:14:05Z</time>
      </trkpt>
      <trkpt lat="43.49745" lon="5.53684">
        <ele>322</ele>
        <time>2021-01-12T15:14:09Z</time>
      </trkpt>
      <trkpt lat="43.49744" lon="5.53686">
        <ele>322</ele>
        <time>2021-01-12T15:14:12Z</time>
      </trkpt>
      <trkpt lat="43.49743" lon="5.53688">
        <ele>323</ele>
        <time>2021-01-12T15:14:16Z</time>
      </trkpt>
      <trkpt lat="43.49742" lon="5.53691">
        <ele>322</ele>
        <time>2021-01-12T15:14:20Z</time>
      </trkpt>
      <trkpt lat="43.49741" lon="5.53693">
        <ele>322</ele>
        <time>2021-01-12T15:14:23Z</time>
      </trkpt>
      <trkpt lat="43.49741" lon="5.53696">
        <ele>323</ele>
        <time>2021-01-12T15:14:28Z</time>
      </trkpt>
      <trkpt lat="43.4974" lon="5.537">
        <ele>322</ele>
        <time>2021-01-12T15:15:19Z</time>
      </trkpt>
      <trkpt lat="43.4974" lon="5.53702">
        <ele>323</ele>
        <time>2021-01-12T15:15:25Z</time>
      </trkpt>
      <trkpt lat="43.4974" lon="5.53705">
        <ele>323</ele>
        <time>2021-01-12T15:16:57Z</time>
      </trkpt>
      <trkpt lat="43.49739" lon="5.53708">
        <ele>322</ele>
        <time>2021-01-12T15:17:00Z</time>
      </trkpt>
      <trkpt lat="43.49738" lon="5.53711">
        <ele>323</ele>
        <time>2021-01-12T15:17:04Z</time>
      </trkpt>
      <trkpt lat="43.49738" lon="5.53714">
        <ele>324</ele>
        <time>2021-01-12T15:17:07Z</time>
      </trkpt>
      <trkpt lat="43.49738" lon="5.53717">
        <ele>323</ele>
        <time>2021-01-12T15:17:10Z</time>
      </trkpt>
      <trkpt lat="43.49739" lon="5.53719">
        <ele>323</ele>
        <time>2021-01-12T15:17:12Z</time>
      </trkpt>
      <trkpt lat="43.49738" lon="5.53723">
        <ele>323</ele>
        <time>2021-01-12T15:17:15Z</time>
      </trkpt>
      <trkpt lat="43.49737" lon="5.53726">
        <ele>323</ele>
        <time>2021-01-12T15:17:18Z</time>
      </trkpt>
      <trkpt lat="43.49737" lon="5.53728">
        <ele>323</ele>
        <time>2021-01-12T15:17:20Z</time>
      </trkpt>
      <trkpt lat="43.49737" lon="5.53732">
        <ele>323</ele>
        <time>2021-01-12T15:17:23Z</time>
      </trkpt>
      <trkpt lat="43.49736" lon="5.53735">
        <ele>322</ele>
        <time>2021-01-12T15:17:25Z</time>
      </trkpt>
      <trkpt lat="43.49736" lon="5.53738">
        <ele>323</ele>
        <time>2021-01-12T15:17:28Z</time>
      </trkpt>
      <trkpt lat="43.49735" lon="5.53741">
        <ele>323</ele>
        <time>2021-01-12T15:17:31Z</time>
      </trkpt>
      <trkpt lat="43.49735" lon="5.53744">
        <ele>323</ele>
        <time>2021-01-12T15:17:34Z</time>
      </trkpt>
      <trkpt lat="43.49734" lon="5.53747">
        <ele>323</ele>
        <time>2021-01-12T15:17:37Z</time>
      </trkpt>
      <trkpt lat="43.49734" lon="5.53749">
        <ele>323</ele>
        <time>2021-01-12T15:17:39Z</time>
      </trkpt>
      <trkpt lat="43.49734" lon="5.53752">
        <ele>323</ele>
        <time>2021-01-12T15:17:41Z</time>
      </trkpt>
      <trkpt lat="43.49733" lon="5.53755">
        <ele>324</ele>
        <time>2021-01-12T15:17:43Z</time>
      </trkpt>
      <trkpt lat="43.49733" lon="5.53757">
        <ele>324</ele>
        <time>2021-01-12T15:17:46Z</time>
      </trkpt>
      <trkpt lat="43.49732" lon="5.5376">
        <ele>324</ele>
        <time>2021-01-12T15:17:49Z</time>
      </trkpt>
      <trkpt lat="43.49732" lon="5.53764">
        <ele>324</ele>
        <time>2021-01-12T15:17:52Z</time>
      </trkpt>
      <trkpt lat="43.49732" lon="5.53768">
        <ele>323</ele>
        <time>2021-01-12T15:17:54Z</time>
      </trkpt>
      <trkpt lat="43.49732" lon="5.5377">
        <ele>322</ele>
        <time>2021-01-12T15:17:56Z</time>
      </trkpt>
      <trkpt lat="43.49732" lon="5.53774">
        <ele>322</ele>
        <time>2021-01-12T15:17:59Z</time>
      </trkpt>
      <trkpt lat="43.49732" lon="5.53776">
        <ele>322</ele>
        <time>2021-01-12T15:18:01Z</time>
      </trkpt>
      <trkpt lat="43.49731" lon="5.53779">
        <ele>322</ele>
        <time>2021-01-12T15:18:03Z</time>
      </trkpt>
      <trkpt lat="43.4973" lon="5.53781">
        <ele>321</ele>
        <time>2021-01-12T15:18:05Z</time>
      </trkpt>
      <trkpt lat="43.49729" lon="5.53784">
        <ele>322</ele>
        <time>2021-01-12T15:18:08Z</time>
      </trkpt>
      <trkpt lat="43.49728" lon="5.53786">
        <ele>321</ele>
        <time>2021-01-12T15:18:11Z</time>
      </trkpt>
      <trkpt lat="43.49728" lon="5.53789">
        <ele>322</ele>
        <time>2021-01-12T15:18:13Z</time>
      </trkpt>
      <trkpt lat="43.49727" lon="5.53792">
        <ele>323</ele>
        <time>2021-01-12T15:18:16Z</time>
      </trkpt>
      <trkpt lat="43.49727" lon="5.53795">
        <ele>322</ele>
        <time>2021-01-12T15:18:18Z</time>
      </trkpt>
      <trkpt lat="43.49726" lon="5.53798">
        <ele>322</ele>
        <time>2021-01-12T15:18:20Z</time>
      </trkpt>
      <trkpt lat="43.49725" lon="5.538">
        <ele>322</ele>
        <time>2021-01-12T15:18:22Z</time>
      </trkpt>
      <trkpt lat="43.49725" lon="5.53803">
        <ele>323</ele>
        <time>2021-01-12T15:18:24Z</time>
      </trkpt>
      <trkpt lat="43.49723" lon="5.53806">
        <ele>323</ele>
        <time>2021-01-12T15:18:27Z</time>
      </trkpt>
      <trkpt lat="43.49723" lon="5.53809">
        <ele>322</ele>
        <time>2021-01-12T15:18:29Z</time>
      </trkpt>
      <trkpt lat="43.49722" lon="5.53811">
        <ele>322</ele>
        <time>2021-01-12T15:18:31Z</time>
      </trkpt>
      <trkpt lat="43.49721" lon="5.53814">
        <ele>322</ele>
        <time>2021-01-12T15:18:34Z</time>
      </trkpt>
      <trkpt lat="43.49721" lon="5.53817">
        <ele>323</ele>
        <time>2021-01-12T15:18:37Z</time>
      </trkpt>
      <trkpt lat="43.4972" lon="5.5382">
        <ele>323</ele>
        <time>2021-01-12T15:18:41Z</time>
      </trkpt>
      <trkpt lat="43.4972" lon="5.53823">
        <ele>323</ele>
        <time>2021-01-12T15:18:44Z</time>
      </trkpt>
      <trkpt lat="43.49719" lon="5.53826">
        <ele>323</ele>
        <time>2021-01-12T15:18:47Z</time>
      </trkpt>
      <trkpt lat="43.49719" lon="5.53828">
        <ele>323</ele>
        <time>2021-01-12T15:18:49Z</time>
      </trkpt>
      <trkpt lat="43.49718" lon="5.53831">
        <ele>322</ele>
        <time>2021-01-12T15:18:51Z</time>
      </trkpt>
      <trkpt lat="43.49717" lon="5.53834">
        <ele>321</ele>
        <time>2021-01-12T15:18:55Z</time>
      </trkpt>
      <trkpt lat="43.49717" lon="5.53837">
        <ele>321</ele>
        <time>2021-01-12T15:18:58Z</time>
      </trkpt>
      <trkpt lat="43.49716" lon="5.5384">
        <ele>321</ele>
        <time>2021-01-12T15:19:00Z</time>
      </trkpt>
      <trkpt lat="43.49716" lon="5.53845">
        <ele>320</ele>
        <time>2021-01-12T15:19:05Z</time>
      </trkpt>
      <trkpt lat="43.49716" lon="5.53847">
        <ele>320</ele>
        <time>2021-01-12T15:19:08Z</time>
      </trkpt>
      <trkpt lat="43.49715" lon="5.5385">
        <ele>320</ele>
        <time>2021-01-12T15:19:10Z</time>
      </trkpt>
      <trkpt lat="43.49714" lon="5.53853">
        <ele>320</ele>
        <time>2021-01-12T15:19:13Z</time>
      </trkpt>
      <trkpt lat="43.49712" lon="5.53856">
        <ele>321</ele>
        <time>2021-01-12T15:19:16Z</time>
      </trkpt>
      <trkpt lat="43.49712" lon="5.53859">
        <ele>321</ele>
        <time>2021-01-12T15:19:18Z</time>
      </trkpt>
      <trkpt lat="43.49711" lon="5.53861">
        <ele>321</ele>
        <time>2021-01-12T15:19:20Z</time>
      </trkpt>
      <trkpt lat="43.4971" lon="5.53864">
        <ele>321</ele>
        <time>2021-01-12T15:19:23Z</time>
      </trkpt>
      <trkpt lat="43.4971" lon="5.53867">
        <ele>320</ele>
        <time>2021-01-12T15:19:25Z</time>
      </trkpt>
      <trkpt lat="43.49708" lon="5.5387">
        <ele>321</ele>
        <time>2021-01-12T15:19:28Z</time>
      </trkpt>
      <trkpt lat="43.49707" lon="5.53872">
        <ele>322</ele>
        <time>2021-01-12T15:19:31Z</time>
      </trkpt>
      <trkpt lat="43.49705" lon="5.53875">
        <ele>322</ele>
        <time>2021-01-12T15:19:34Z</time>
      </trkpt>
      <trkpt lat="43.49705" lon="5.53878">
        <ele>321</ele>
        <time>2021-01-12T15:19:36Z</time>
      </trkpt>
      <trkpt lat="43.49704" lon="5.53881">
        <ele>320</ele>
        <time>2021-01-12T15:19:38Z</time>
      </trkpt>
      <trkpt lat="43.49703" lon="5.53884">
        <ele>320</ele>
        <time>2021-01-12T15:19:41Z</time>
      </trkpt>
      <trkpt lat="43.49702" lon="5.53887">
        <ele>321</ele>
        <time>2021-01-12T15:19:44Z</time>
      </trkpt>
      <trkpt lat="43.49701" lon="5.5389">
        <ele>321</ele>
        <time>2021-01-12T15:19:46Z</time>
      </trkpt>
      <trkpt lat="43.49701" lon="5.53893">
        <ele>321</ele>
        <time>2021-01-12T15:19:49Z</time>
      </trkpt>
      <trkpt lat="43.497" lon="5.53895">
        <ele>321</ele>
        <time>2021-01-12T15:19:51Z</time>
      </trkpt>
      <trkpt lat="43.49699" lon="5.53898">
        <ele>322</ele>
        <time>2021-01-12T15:19:53Z</time>
      </trkpt>
      <trkpt lat="43.49698" lon="5.539">
        <ele>322</ele>
        <time>2021-01-12T15:19:55Z</time>
      </trkpt>
      <trkpt lat="43.49697" lon="5.53903">
        <ele>323</ele>
        <time>2021-01-12T15:19:57Z</time>
      </trkpt>
      <trkpt lat="43.49696" lon="5.53906">
        <ele>322</ele>
        <time>2021-01-12T15:19:59Z</time>
      </trkpt>
      <trkpt lat="43.49696" lon="5.53908">
        <ele>322</ele>
        <time>2021-01-12T15:20:01Z</time>
      </trkpt>
      <trkpt lat="43.49696" lon="5.53912">
        <ele>322</ele>
        <time>2021-01-12T15:20:04Z</time>
      </trkpt>
      <trkpt lat="43.49696" lon="5.53916">
        <ele>322</ele>
        <time>2021-01-12T15:20:07Z</time>
      </trkpt>
      <trkpt lat="43.49696" lon="5.53918">
        <ele>324</ele>
        <time>2021-01-12T15:20:09Z</time>
      </trkpt>
      <trkpt lat="43.49696" lon="5.53921">
        <ele>323</ele>
        <time>2021-01-12T15:20:11Z</time>
      </trkpt>
      <trkpt lat="43.49696" lon="5.53924">
        <ele>323</ele>
        <time>2021-01-12T15:20:14Z</time>
      </trkpt>
      <trkpt lat="43.49696" lon="5.53927">
        <ele>322</ele>
        <time>2021-01-12T15:20:18Z</time>
      </trkpt>
      <trkpt lat="43.49698" lon="5.53928">
        <ele>322</ele>
        <time>2021-01-12T15:20:20Z</time>
      </trkpt>
      <trkpt lat="43.49699" lon="5.53931">
        <ele>321</ele>
        <time>2021-01-12T15:20:22Z</time>
      </trkpt>
      <trkpt lat="43.497" lon="5.53934">
        <ele>321</ele>
        <time>2021-01-12T15:20:24Z</time>
      </trkpt>
      <trkpt lat="43.497" lon="5.53937">
        <ele>322</ele>
        <time>2021-01-12T15:20:27Z</time>
      </trkpt>
      <trkpt lat="43.49701" lon="5.5394">
        <ele>322</ele>
        <time>2021-01-12T15:20:29Z</time>
      </trkpt>
      <trkpt lat="43.49701" lon="5.53943">
        <ele>322</ele>
        <time>2021-01-12T15:20:31Z</time>
      </trkpt>
      <trkpt lat="43.49701" lon="5.53946">
        <ele>322</ele>
        <time>2021-01-12T15:20:33Z</time>
      </trkpt>
      <trkpt lat="43.49702" lon="5.53949">
        <ele>323</ele>
        <time>2021-01-12T15:20:35Z</time>
      </trkpt>
      <trkpt lat="43.49703" lon="5.53952">
        <ele>323</ele>
        <time>2021-01-12T15:20:37Z</time>
      </trkpt>
      <trkpt lat="43.49703" lon="5.53954">
        <ele>323</ele>
        <time>2021-01-12T15:20:39Z</time>
      </trkpt>
      <trkpt lat="43.49703" lon="5.53957">
        <ele>322</ele>
        <time>2021-01-12T15:20:41Z</time>
      </trkpt>
      <trkpt lat="43.49704" lon="5.53959">
        <ele>323</ele>
        <time>2021-01-12T15:20:43Z</time>
      </trkpt>
      <trkpt lat="43.49704" lon="5.53962">
        <ele>322</ele>
        <time>2021-01-12T15:20:45Z</time>
      </trkpt>
      <trkpt lat="43.49703" lon="5.53965">
        <ele>322</ele>
        <time>2021-01-12T15:20:47Z</time>
      </trkpt>
      <trkpt lat="43.49703" lon="5.53968">
        <ele>322</ele>
        <time>2021-01-12T15:20:49Z</time>
      </trkpt>
      <trkpt lat="43.49703" lon="5.5397">
        <ele>321</ele>
        <time>2021-01-12T15:20:51Z</time>
      </trkpt>
      <trkpt lat="43.49704" lon="5.53974">
        <ele>321</ele>
        <time>2021-01-12T15:20:54Z</time>
      </trkpt>
      <trkpt lat="43.49704" lon="5.53977">
        <ele>320</ele>
        <time>2021-01-12T15:20:57Z</time>
      </trkpt>
      <trkpt lat="43.49703" lon="5.5398">
        <ele>320</ele>
        <time>2021-01-12T15:20:59Z</time>
      </trkpt>
      <trkpt lat="43.49704" lon="5.53982">
        <ele>320</ele>
        <time>2021-01-12T15:21:01Z</time>
      </trkpt>
      <trkpt lat="43.49704" lon="5.53986">
        <ele>320</ele>
        <time>2021-01-12T15:21:04Z</time>
      </trkpt>
      <trkpt lat="43.49705" lon="5.53988">
        <ele>321</ele>
        <time>2021-01-12T15:21:06Z</time>
      </trkpt>
      <trkpt lat="43.49705" lon="5.53991">
        <ele>321</ele>
        <time>2021-01-12T15:21:08Z</time>
      </trkpt>
      <trkpt lat="43.49705" lon="5.53994">
        <ele>320</ele>
        <time>2021-01-12T15:21:11Z</time>
      </trkpt>
      <trkpt lat="43.49705" lon="5.53997">
        <ele>319</ele>
        <time>2021-01-12T15:21:13Z</time>
      </trkpt>
      <trkpt lat="43.49705" lon="5.53999">
        <ele>319</ele>
        <time>2021-01-12T15:21:15Z</time>
      </trkpt>
      <trkpt lat="43.49706" lon="5.54002">
        <ele>319</ele>
        <time>2021-01-12T15:21:17Z</time>
      </trkpt>
      <trkpt lat="43.49706" lon="5.54005">
        <ele>319</ele>
        <time>2021-01-12T15:21:20Z</time>
      </trkpt>
      <trkpt lat="43.49707" lon="5.54008">
        <ele>318</ele>
        <time>2021-01-12T15:21:22Z</time>
      </trkpt>
      <trkpt lat="43.49709" lon="5.54011">
        <ele>319</ele>
        <time>2021-01-12T15:21:25Z</time>
      </trkpt>
      <trkpt lat="43.4971" lon="5.54014">
        <ele>319</ele>
        <time>2021-01-12T15:21:28Z</time>
      </trkpt>
      <trkpt lat="43.4971" lon="5.54016">
        <ele>320</ele>
        <time>2021-01-12T15:21:32Z</time>
      </trkpt>
      <trkpt lat="43.4971" lon="5.54019">
        <ele>322</ele>
        <time>2021-01-12T15:21:42Z</time>
      </trkpt>
      <trkpt lat="43.49712" lon="5.54021">
        <ele>323</ele>
        <time>2021-01-12T15:21:53Z</time>
      </trkpt>
      <trkpt lat="43.49712" lon="5.54024">
        <ele>322</ele>
        <time>2021-01-12T15:21:57Z</time>
      </trkpt>
      <trkpt lat="43.49711" lon="5.54027">
        <ele>321</ele>
        <time>2021-01-12T15:22:00Z</time>
      </trkpt>
      <trkpt lat="43.4971" lon="5.54029">
        <ele>322</ele>
        <time>2021-01-12T15:22:02Z</time>
      </trkpt>
      <trkpt lat="43.4971" lon="5.54032">
        <ele>322</ele>
        <time>2021-01-12T15:22:05Z</time>
      </trkpt>
      <trkpt lat="43.4971" lon="5.54035">
        <ele>322</ele>
        <time>2021-01-12T15:22:08Z</time>
      </trkpt>
      <trkpt lat="43.4971" lon="5.54038">
        <ele>322</ele>
        <time>2021-01-12T15:22:10Z</time>
      </trkpt>
      <trkpt lat="43.4971" lon="5.54041">
        <ele>321</ele>
        <time>2021-01-12T15:22:14Z</time>
      </trkpt>
      <trkpt lat="43.49709" lon="5.54043">
        <ele>321</ele>
        <time>2021-01-12T15:22:18Z</time>
      </trkpt>
      <trkpt lat="43.49709" lon="5.54047">
        <ele>321</ele>
        <time>2021-01-12T15:22:23Z</time>
      </trkpt>
      <trkpt lat="43.49709" lon="5.54049">
        <ele>321</ele>
        <time>2021-01-12T15:22:26Z</time>
      </trkpt>
      <trkpt lat="43.49708" lon="5.54053">
        <ele>320</ele>
        <time>2021-01-12T15:22:30Z</time>
      </trkpt>
      <trkpt lat="43.49708" lon="5.54056">
        <ele>321</ele>
        <time>2021-01-12T15:22:33Z</time>
      </trkpt>
      <trkpt lat="43.49707" lon="5.54059">
        <ele>321</ele>
        <time>2021-01-12T15:22:36Z</time>
      </trkpt>
      <trkpt lat="43.49707" lon="5.54062">
        <ele>321</ele>
        <time>2021-01-12T15:22:39Z</time>
      </trkpt>
      <trkpt lat="43.49707" lon="5.54065">
        <ele>321</ele>
        <time>2021-01-12T15:22:42Z</time>
      </trkpt>
      <trkpt lat="43.49706" lon="5.54068">
        <ele>322</ele>
        <time>2021-01-12T15:22:45Z</time>
      </trkpt>
      <trkpt lat="43.49705" lon="5.54071">
        <ele>322</ele>
        <time>2021-01-12T15:22:48Z</time>
      </trkpt>
      <trkpt lat="43.49705" lon="5.54074">
        <ele>322</ele>
        <time>2021-01-12T15:22:51Z</time>
      </trkpt>
      <trkpt lat="43.49705" lon="5.54077">
        <ele>322</ele>
        <time>2021-01-12T15:22:53Z</time>
      </trkpt>
      <trkpt lat="43.49704" lon="5.5408">
        <ele>322</ele>
        <time>2021-01-12T15:22:56Z</time>
      </trkpt>
      <trkpt lat="43.49704" lon="5.54082">
        <ele>323</ele>
        <time>2021-01-12T15:22:59Z</time>
      </trkpt>
      <trkpt lat="43.49703" lon="5.54085">
        <ele>322</ele>
        <time>2021-01-12T15:23:02Z</time>
      </trkpt>
      <trkpt lat="43.49704" lon="5.54088">
        <ele>321</ele>
        <time>2021-01-12T15:23:06Z</time>
      </trkpt>
      <trkpt lat="43.49703" lon="5.54091">
        <ele>321</ele>
        <time>2021-01-12T15:23:09Z</time>
      </trkpt>
      <trkpt lat="43.49702" lon="5.54094">
        <ele>321</ele>
        <time>2021-01-12T15:23:11Z</time>
      </trkpt>
      <trkpt lat="43.49701" lon="5.54097">
        <ele>321</ele>
        <time>2021-01-12T15:23:15Z</time>
      </trkpt>
      <trkpt lat="43.49701" lon="5.541">
        <ele>321</ele>
        <time>2021-01-12T15:23:17Z</time>
      </trkpt>
      <trkpt lat="43.497" lon="5.54103">
        <ele>322</ele>
        <time>2021-01-12T15:23:20Z</time>
      </trkpt>
      <trkpt lat="43.49699" lon="5.54106">
        <ele>321</ele>
        <time>2021-01-12T15:23:22Z</time>
      </trkpt>
      <trkpt lat="43.49699" lon="5.54109">
        <ele>321</ele>
        <time>2021-01-12T15:23:25Z</time>
      </trkpt>
      <trkpt lat="43.49698" lon="5.54113">
        <ele>322</ele>
        <time>2021-01-12T15:23:28Z</time>
      </trkpt>
      <trkpt lat="43.49698" lon="5.54116">
        <ele>322</ele>
        <time>2021-01-12T15:23:31Z</time>
      </trkpt>
      <trkpt lat="43.49697" lon="5.54118">
        <ele>322</ele>
        <time>2021-01-12T15:23:33Z</time>
      </trkpt>
      <trkpt lat="43.49697" lon="5.54121">
        <ele>322</ele>
        <time>2021-01-12T15:23:35Z</time>
      </trkpt>
      <trkpt lat="43.49696" lon="5.54125">
        <ele>323</ele>
        <time>2021-01-12T15:23:39Z</time>
      </trkpt>
      <trkpt lat="43.49696" lon="5.54127">
        <ele>323</ele>
        <time>2021-01-12T15:23:41Z</time>
      </trkpt>
      <trkpt lat="43.49695" lon="5.5413">
        <ele>323</ele>
        <time>2021-01-12T15:23:43Z</time>
      </trkpt>
      <trkpt lat="43.49695" lon="5.54132">
        <ele>322</ele>
        <time>2021-01-12T15:23:45Z</time>
      </trkpt>
      <trkpt lat="43.49694" lon="5.54135">
        <ele>323</ele>
        <time>2021-01-12T15:23:48Z</time>
      </trkpt>
      <trkpt lat="43.49693" lon="5.54139">
        <ele>323</ele>
        <time>2021-01-12T15:23:51Z</time>
      </trkpt>
      <trkpt lat="43.49692" lon="5.54142">
        <ele>323</ele>
        <time>2021-01-12T15:23:54Z</time>
      </trkpt>
      <trkpt lat="43.49691" lon="5.54144">
        <ele>323</ele>
        <time>2021-01-12T15:23:56Z</time>
      </trkpt>
      <trkpt lat="43.4969" lon="5.54147">
        <ele>324</ele>
        <time>2021-01-12T15:23:58Z</time>
      </trkpt>
      <trkpt lat="43.49689" lon="5.5415">
        <ele>324</ele>
        <time>2021-01-12T15:24:00Z</time>
      </trkpt>
      <trkpt lat="43.49688" lon="5.54152">
        <ele>324</ele>
        <time>2021-01-12T15:24:03Z</time>
      </trkpt>
      <trkpt lat="43.49687" lon="5.54155">
        <ele>325</ele>
        <time>2021-01-12T15:24:05Z</time>
      </trkpt>
      <trkpt lat="43.49687" lon="5.54158">
        <ele>326</ele>
        <time>2021-01-12T15:24:08Z</time>
      </trkpt>
      <trkpt lat="43.49685" lon="5.5416">
        <ele>325</ele>
        <time>2021-01-12T15:24:11Z</time>
      </trkpt>
      <trkpt lat="43.49685" lon="5.54164">
        <ele>325</ele>
        <time>2021-01-12T15:24:14Z</time>
      </trkpt>
      <trkpt lat="43.49683" lon="5.54166">
        <ele>325</ele>
        <time>2021-01-12T15:24:17Z</time>
      </trkpt>
      <trkpt lat="43.49682" lon="5.54169">
        <ele>324</ele>
        <time>2021-01-12T15:24:19Z</time>
      </trkpt>
      <trkpt lat="43.4968" lon="5.54171">
        <ele>324</ele>
        <time>2021-01-12T15:24:21Z</time>
      </trkpt>
      <trkpt lat="43.49679" lon="5.54174">
        <ele>324</ele>
        <time>2021-01-12T15:24:24Z</time>
      </trkpt>
      <trkpt lat="43.49678" lon="5.54176">
        <ele>325</ele>
        <time>2021-01-12T15:24:27Z</time>
      </trkpt>
      <trkpt lat="43.49678" lon="5.5418">
        <ele>324</ele>
        <time>2021-01-12T15:24:30Z</time>
      </trkpt>
      <trkpt lat="43.49677" lon="5.54182">
        <ele>325</ele>
        <time>2021-01-12T15:24:33Z</time>
      </trkpt>
      <trkpt lat="43.49675" lon="5.54185">
        <ele>325</ele>
        <time>2021-01-12T15:24:36Z</time>
      </trkpt>
      <trkpt lat="43.49674" lon="5.54188">
        <ele>325</ele>
        <time>2021-01-12T15:24:38Z</time>
      </trkpt>
      <trkpt lat="43.49673" lon="5.54191">
        <ele>325</ele>
        <time>2021-01-12T15:24:41Z</time>
      </trkpt>
      <trkpt lat="43.49674" lon="5.54195">
        <ele>325</ele>
        <time>2021-01-12T15:24:44Z</time>
      </trkpt>
      <trkpt lat="43.49673" lon="5.54197">
        <ele>324</ele>
        <time>2021-01-12T15:24:46Z</time>
      </trkpt>
      <trkpt lat="43.49673" lon="5.54201">
        <ele>324</ele>
        <time>2021-01-12T15:24:49Z</time>
      </trkpt>
      <trkpt lat="43.49672" lon="5.54204">
        <ele>323</ele>
        <time>2021-01-12T15:24:52Z</time>
      </trkpt>
      <trkpt lat="43.49671" lon="5.54207">
        <ele>323</ele>
        <time>2021-01-12T15:24:55Z</time>
      </trkpt>
      <trkpt lat="43.49671" lon="5.5421">
        <ele>324</ele>
        <time>2021-01-12T15:24:58Z</time>
      </trkpt>
      <trkpt lat="43.49671" lon="5.54213">
        <ele>323</ele>
        <time>2021-01-12T15:25:01Z</time>
      </trkpt>
      <trkpt lat="43.49671" lon="5.54215">
        <ele>324</ele>
        <time>2021-01-12T15:25:04Z</time>
      </trkpt>
      <trkpt lat="43.49671" lon="5.54218">
        <ele>325</ele>
        <time>2021-01-12T15:25:07Z</time>
      </trkpt>
      <trkpt lat="43.49671" lon="5.54221">
        <ele>325</ele>
        <time>2021-01-12T15:25:09Z</time>
      </trkpt>
      <trkpt lat="43.49671" lon="5.54224">
        <ele>325</ele>
        <time>2021-01-12T15:25:11Z</time>
      </trkpt>
      <trkpt lat="43.4967" lon="5.54226">
        <ele>325</ele>
        <time>2021-01-12T15:25:13Z</time>
      </trkpt>
      <trkpt lat="43.4967" lon="5.54229">
        <ele>325</ele>
        <time>2021-01-12T15:25:15Z</time>
      </trkpt>
      <trkpt lat="43.4967" lon="5.54232">
        <ele>325</ele>
        <time>2021-01-12T15:25:17Z</time>
      </trkpt>
      <trkpt lat="43.4967" lon="5.54236">
        <ele>324</ele>
        <time>2021-01-12T15:25:20Z</time>
      </trkpt>
      <trkpt lat="43.4967" lon="5.54239">
        <ele>324</ele>
        <time>2021-01-12T15:25:23Z</time>
      </trkpt>
      <trkpt lat="43.4967" lon="5.54242">
        <ele>325</ele>
        <time>2021-01-12T15:25:26Z</time>
      </trkpt>
      <trkpt lat="43.4967" lon="5.54245">
        <ele>325</ele>
        <time>2021-01-12T15:25:28Z</time>
      </trkpt>
      <trkpt lat="43.4967" lon="5.54248">
        <ele>325</ele>
        <time>2021-01-12T15:25:31Z</time>
      </trkpt>
      <trkpt lat="43.4967" lon="5.54252">
        <ele>325</ele>
        <time>2021-01-12T15:25:34Z</time>
      </trkpt>
      <trkpt lat="43.49669" lon="5.54254">
        <ele>325</ele>
        <time>2021-01-12T15:25:36Z</time>
      </trkpt>
      <trkpt lat="43.49669" lon="5.54257">
        <ele>325</ele>
        <time>2021-01-12T15:25:39Z</time>
      </trkpt>
      <trkpt lat="43.49669" lon="5.5426">
        <ele>325</ele>
        <time>2021-01-12T15:25:41Z</time>
      </trkpt>
      <trkpt lat="43.49669" lon="5.54262">
        <ele>326</ele>
        <time>2021-01-12T15:25:43Z</time>
      </trkpt>
      <trkpt lat="43.4967" lon="5.54266">
        <ele>326</ele>
        <time>2021-01-12T15:25:46Z</time>
      </trkpt>
      <trkpt lat="43.4967" lon="5.54268">
        <ele>325</ele>
        <time>2021-01-12T15:25:48Z</time>
      </trkpt>
      <trkpt lat="43.49671" lon="5.54271">
        <ele>325</ele>
        <time>2021-01-12T15:25:50Z</time>
      </trkpt>
      <trkpt lat="43.49671" lon="5.54274">
        <ele>325</ele>
        <time>2021-01-12T15:25:52Z</time>
      </trkpt>
      <trkpt lat="43.49672" lon="5.54277">
        <ele>325</ele>
        <time>2021-01-12T15:25:55Z</time>
      </trkpt>
      <trkpt lat="43.49672" lon="5.5428">
        <ele>325</ele>
        <time>2021-01-12T15:25:58Z</time>
      </trkpt>
      <trkpt lat="43.49673" lon="5.54283">
        <ele>324</ele>
        <time>2021-01-12T15:26:01Z</time>
      </trkpt>
      <trkpt lat="43.49675" lon="5.54286">
        <ele>323</ele>
        <time>2021-01-12T15:26:04Z</time>
      </trkpt>
      <trkpt lat="43.49676" lon="5.54288">
        <ele>324</ele>
        <time>2021-01-12T15:26:06Z</time>
      </trkpt>
      <trkpt lat="43.49677" lon="5.54291">
        <ele>324</ele>
        <time>2021-01-12T15:26:09Z</time>
      </trkpt>
      <trkpt lat="43.49677" lon="5.54294">
        <ele>324</ele>
        <time>2021-01-12T15:26:11Z</time>
      </trkpt>
      <trkpt lat="43.49677" lon="5.54297">
        <ele>325</ele>
        <time>2021-01-12T15:26:13Z</time>
      </trkpt>
      <trkpt lat="43.49677" lon="5.54301">
        <ele>325</ele>
        <time>2021-01-12T15:26:15Z</time>
      </trkpt>
      <trkpt lat="43.49678" lon="5.54304">
        <ele>325</ele>
        <time>2021-01-12T15:26:18Z</time>
      </trkpt>
      <trkpt lat="43.49679" lon="5.54307">
        <ele>325</ele>
        <time>2021-01-12T15:26:20Z</time>
      </trkpt>
      <trkpt lat="43.49679" lon="5.5431">
        <ele>325</ele>
        <time>2021-01-12T15:26:22Z</time>
      </trkpt>
      <trkpt lat="43.4968" lon="5.54313">
        <ele>326</ele>
        <time>2021-01-12T15:26:25Z</time>
      </trkpt>
      <trkpt lat="43.4968" lon="5.54316">
        <ele>324</ele>
        <time>2021-01-12T15:26:28Z</time>
      </trkpt>
      <trkpt lat="43.4968" lon="5.54319">
        <ele>324</ele>
        <time>2021-01-12T15:26:30Z</time>
      </trkpt>
      <trkpt lat="43.49681" lon="5.54322">
        <ele>324</ele>
        <time>2021-01-12T15:26:33Z</time>
      </trkpt>
      <trkpt lat="43.49681" lon="5.54324">
        <ele>324</ele>
        <time>2021-01-12T15:26:35Z</time>
      </trkpt>
      <trkpt lat="43.49681" lon="5.54327">
        <ele>324</ele>
        <time>2021-01-12T15:26:37Z</time>
      </trkpt>
      <trkpt lat="43.49682" lon="5.5433">
        <ele>325</ele>
        <time>2021-01-12T15:26:39Z</time>
      </trkpt>
      <trkpt lat="43.49682" lon="5.54333">
        <ele>325</ele>
        <time>2021-01-12T15:26:41Z</time>
      </trkpt>
      <trkpt lat="43.49682" lon="5.54336">
        <ele>325</ele>
        <time>2021-01-12T15:26:43Z</time>
      </trkpt>
      <trkpt lat="43.49682" lon="5.54339">
        <ele>324</ele>
        <time>2021-01-12T15:26:45Z</time>
      </trkpt>
      <trkpt lat="43.49682" lon="5.54342">
        <ele>325</ele>
        <time>2021-01-12T15:26:47Z</time>
      </trkpt>
      <trkpt lat="43.49683" lon="5.54345">
        <ele>324</ele>
        <time>2021-01-12T15:26:49Z</time>
      </trkpt>
      <trkpt lat="43.49683" lon="5.54347">
        <ele>325</ele>
        <time>2021-01-12T15:26:51Z</time>
      </trkpt>
      <trkpt lat="43.49684" lon="5.5435">
        <ele>325</ele>
        <time>2021-01-12T15:26:53Z</time>
      </trkpt>
      <trkpt lat="43.49683" lon="5.54353">
        <ele>326</ele>
        <time>2021-01-12T15:26:56Z</time>
      </trkpt>
      <trkpt lat="43.49683" lon="5.54356">
        <ele>325</ele>
        <time>2021-01-12T15:26:58Z</time>
      </trkpt>
      <trkpt lat="43.49683" lon="5.54361">
        <ele>325</ele>
        <time>2021-01-12T15:27:03Z</time>
      </trkpt>
      <trkpt lat="43.49683" lon="5.54364">
        <ele>325</ele>
        <time>2021-01-12T15:27:05Z</time>
      </trkpt>
      <trkpt lat="43.49683" lon="5.54367">
        <ele>325</ele>
        <time>2021-01-12T15:27:07Z</time>
      </trkpt>
      <trkpt lat="43.49683" lon="5.5437">
        <ele>324</ele>
        <time>2021-01-12T15:27:09Z</time>
      </trkpt>
      <trkpt lat="43.49682" lon="5.54372">
        <ele>324</ele>
        <time>2021-01-12T15:27:11Z</time>
      </trkpt>
      <trkpt lat="43.49681" lon="5.54375">
        <ele>324</ele>
        <time>2021-01-12T15:27:14Z</time>
      </trkpt>
      <trkpt lat="43.4968" lon="5.54376">
        <ele>325</ele>
        <time>2021-01-12T15:27:16Z</time>
      </trkpt>
      <trkpt lat="43.49678" lon="5.54378">
        <ele>325</ele>
        <time>2021-01-12T15:27:18Z</time>
      </trkpt>
      <trkpt lat="43.49677" lon="5.5438">
        <ele>325</ele>
        <time>2021-01-12T15:27:21Z</time>
      </trkpt>
      <trkpt lat="43.49676" lon="5.54384">
        <ele>327</ele>
        <time>2021-01-12T15:27:24Z</time>
      </trkpt>
      <trkpt lat="43.49676" lon="5.54387">
        <ele>327</ele>
        <time>2021-01-12T15:27:27Z</time>
      </trkpt>
      <trkpt lat="43.49675" lon="5.54391">
        <ele>328</ele>
        <time>2021-01-12T15:27:31Z</time>
      </trkpt>
      <trkpt lat="43.49674" lon="5.54394">
        <ele>328</ele>
        <time>2021-01-12T15:27:34Z</time>
      </trkpt>
      <trkpt lat="43.49673" lon="5.54396">
        <ele>327</ele>
        <time>2021-01-12T15:27:36Z</time>
      </trkpt>
      <trkpt lat="43.49672" lon="5.544">
        <ele>326</ele>
        <time>2021-01-12T15:27:39Z</time>
      </trkpt>
      <trkpt lat="43.49672" lon="5.54402">
        <ele>326</ele>
        <time>2021-01-12T15:27:42Z</time>
      </trkpt>
      <trkpt lat="43.49671" lon="5.54406">
        <ele>324</ele>
        <time>2021-01-12T15:27:44Z</time>
      </trkpt>
      <trkpt lat="43.4967" lon="5.54409">
        <ele>324</ele>
        <time>2021-01-12T15:27:46Z</time>
      </trkpt>
      <trkpt lat="43.4967" lon="5.54411">
        <ele>324</ele>
        <time>2021-01-12T15:27:48Z</time>
      </trkpt>
      <trkpt lat="43.49669" lon="5.54415">
        <ele>325</ele>
        <time>2021-01-12T15:27:51Z</time>
      </trkpt>
      <trkpt lat="43.49669" lon="5.54418">
        <ele>324</ele>
        <time>2021-01-12T15:27:53Z</time>
      </trkpt>
      <trkpt lat="43.49669" lon="5.54421">
        <ele>325</ele>
        <time>2021-01-12T15:27:55Z</time>
      </trkpt>
      <trkpt lat="43.49668" lon="5.54423">
        <ele>325</ele>
        <time>2021-01-12T15:27:57Z</time>
      </trkpt>
      <trkpt lat="43.49668" lon="5.54426">
        <ele>325</ele>
        <time>2021-01-12T15:27:59Z</time>
      </trkpt>
      <trkpt lat="43.49668" lon="5.54428">
        <ele>325</ele>
        <time>2021-01-12T15:28:01Z</time>
      </trkpt>
      <trkpt lat="43.49667" lon="5.54431">
        <ele>326</ele>
        <time>2021-01-12T15:28:03Z</time>
      </trkpt>
      <trkpt lat="43.49667" lon="5.54435">
        <ele>327</ele>
        <time>2021-01-12T15:28:06Z</time>
      </trkpt>
      <trkpt lat="43.49667" lon="5.54437">
        <ele>328</ele>
        <time>2021-01-12T15:28:08Z</time>
      </trkpt>
      <trkpt lat="43.49665" lon="5.5444">
        <ele>328</ele>
        <time>2021-01-12T15:28:12Z</time>
      </trkpt>
      <trkpt lat="43.49664" lon="5.54442">
        <ele>328</ele>
        <time>2021-01-12T15:28:14Z</time>
      </trkpt>
      <trkpt lat="43.49664" lon="5.54446">
        <ele>330</ele>
        <time>2021-01-12T15:28:17Z</time>
      </trkpt>
      <trkpt lat="43.49663" lon="5.54449">
        <ele>330</ele>
        <time>2021-01-12T15:28:20Z</time>
      </trkpt>
      <trkpt lat="43.49663" lon="5.54452">
        <ele>329</ele>
        <time>2021-01-12T15:28:23Z</time>
      </trkpt>
      <trkpt lat="43.49663" lon="5.54456">
        <ele>329</ele>
        <time>2021-01-12T15:28:25Z</time>
      </trkpt>
      <trkpt lat="43.49663" lon="5.54458">
        <ele>329</ele>
        <time>2021-01-12T15:28:27Z</time>
      </trkpt>
      <trkpt lat="43.49663" lon="5.54461">
        <ele>330</ele>
        <time>2021-01-12T15:28:29Z</time>
      </trkpt>
      <trkpt lat="43.49662" lon="5.54464">
        <ele>330</ele>
        <time>2021-01-12T15:28:31Z</time>
      </trkpt>
      <trkpt lat="43.49662" lon="5.54467">
        <ele>330</ele>
        <time>2021-01-12T15:28:33Z</time>
      </trkpt>
      <trkpt lat="43.49662" lon="5.5447">
        <ele>330</ele>
        <time>2021-01-12T15:28:35Z</time>
      </trkpt>
      <trkpt lat="43.49662" lon="5.54472">
        <ele>330</ele>
        <time>2021-01-12T15:28:37Z</time>
      </trkpt>
      <trkpt lat="43.49662" lon="5.54475">
        <ele>329</ele>
        <time>2021-01-12T15:28:39Z</time>
      </trkpt>
      <trkpt lat="43.49661" lon="5.54478">
        <ele>329</ele>
        <time>2021-01-12T15:28:41Z</time>
      </trkpt>
      <trkpt lat="43.49662" lon="5.54482">
        <ele>329</ele>
        <time>2021-01-12T15:28:44Z</time>
      </trkpt>
      <trkpt lat="43.49663" lon="5.54484">
        <ele>329</ele>
        <time>2021-01-12T15:28:46Z</time>
      </trkpt>
      <trkpt lat="43.49664" lon="5.54486">
        <ele>329</ele>
        <time>2021-01-12T15:28:48Z</time>
      </trkpt>
      <trkpt lat="43.49665" lon="5.54489">
        <ele>330</ele>
        <time>2021-01-12T15:28:50Z</time>
      </trkpt>
      <trkpt lat="43.49665" lon="5.54492">
        <ele>330</ele>
        <time>2021-01-12T15:28:52Z</time>
      </trkpt>
      <trkpt lat="43.49667" lon="5.54494">
        <ele>330</ele>
        <time>2021-01-12T15:28:55Z</time>
      </trkpt>
      <trkpt lat="43.49667" lon="5.54498">
        <ele>330</ele>
        <time>2021-01-12T15:28:58Z</time>
      </trkpt>
      <trkpt lat="43.49667" lon="5.54501">
        <ele>330</ele>
        <time>2021-01-12T15:29:00Z</time>
      </trkpt>
      <trkpt lat="43.49667" lon="5.54504">
        <ele>330</ele>
        <time>2021-01-12T15:29:02Z</time>
      </trkpt>
      <trkpt lat="43.49667" lon="5.54507">
        <ele>330</ele>
        <time>2021-01-12T15:29:04Z</time>
      </trkpt>
      <trkpt lat="43.49667" lon="5.5451">
        <ele>330</ele>
        <time>2021-01-12T15:29:07Z</time>
      </trkpt>
      <trkpt lat="43.49668" lon="5.54513">
        <ele>329</ele>
        <time>2021-01-12T15:29:09Z</time>
      </trkpt>
      <trkpt lat="43.49668" lon="5.54517">
        <ele>329</ele>
        <time>2021-01-12T15:29:12Z</time>
      </trkpt>
      <trkpt lat="43.49668" lon="5.5452">
        <ele>329</ele>
        <time>2021-01-12T15:29:15Z</time>
      </trkpt>
      <trkpt lat="43.49668" lon="5.54523">
        <ele>330</ele>
        <time>2021-01-12T15:29:17Z</time>
      </trkpt>
      <trkpt lat="43.49667" lon="5.54526">
        <ele>330</ele>
        <time>2021-01-12T15:29:19Z</time>
      </trkpt>
      <trkpt lat="43.49667" lon="5.54529">
        <ele>329</ele>
        <time>2021-01-12T15:29:21Z</time>
      </trkpt>
      <trkpt lat="43.49667" lon="5.54532">
        <ele>329</ele>
        <time>2021-01-12T15:29:23Z</time>
      </trkpt>
      <trkpt lat="43.49667" lon="5.54534">
        <ele>330</ele>
        <time>2021-01-12T15:29:25Z</time>
      </trkpt>
      <trkpt lat="43.49667" lon="5.54538">
        <ele>330</ele>
        <time>2021-01-12T15:29:28Z</time>
      </trkpt>
      <trkpt lat="43.49667" lon="5.54541">
        <ele>330</ele>
        <time>2021-01-12T15:29:30Z</time>
      </trkpt>
      <trkpt lat="43.49667" lon="5.54545">
        <ele>329</ele>
        <time>2021-01-12T15:29:32Z</time>
      </trkpt>
      <trkpt lat="43.49667" lon="5.54548">
        <ele>330</ele>
        <time>2021-01-12T15:29:34Z</time>
      </trkpt>
      <trkpt lat="43.49666" lon="5.54551">
        <ele>330</ele>
        <time>2021-01-12T15:29:37Z</time>
      </trkpt>
      <trkpt lat="43.49666" lon="5.54554">
        <ele>330</ele>
        <time>2021-01-12T15:29:42Z</time>
      </trkpt>
      <trkpt lat="43.49666" lon="5.54558">
        <ele>331</ele>
        <time>2021-01-12T15:30:46Z</time>
      </trkpt>
      <trkpt lat="43.49668" lon="5.54561">
        <ele>330</ele>
        <time>2021-01-12T15:30:54Z</time>
      </trkpt>
      <trkpt lat="43.49669" lon="5.54563">
        <ele>329</ele>
        <time>2021-01-12T15:30:57Z</time>
      </trkpt>
      <trkpt lat="43.49668" lon="5.54566">
        <ele>328</ele>
        <time>2021-01-12T15:30:59Z</time>
      </trkpt>
      <trkpt lat="43.49669" lon="5.54569">
        <ele>328</ele>
        <time>2021-01-12T15:31:01Z</time>
      </trkpt>
      <trkpt lat="43.49671" lon="5.54572">
        <ele>328</ele>
        <time>2021-01-12T15:31:04Z</time>
      </trkpt>
      <trkpt lat="43.49671" lon="5.54574">
        <ele>328</ele>
        <time>2021-01-12T15:31:07Z</time>
      </trkpt>
      <trkpt lat="43.49672" lon="5.54576">
        <ele>328</ele>
        <time>2021-01-12T15:31:09Z</time>
      </trkpt>
      <trkpt lat="43.49674" lon="5.54579">
        <ele>327</ele>
        <time>2021-01-12T15:31:13Z</time>
      </trkpt>
      <trkpt lat="43.49675" lon="5.5458">
        <ele>327</ele>
        <time>2021-01-12T15:31:16Z</time>
      </trkpt>
      <trkpt lat="43.49677" lon="5.54583">
        <ele>327</ele>
        <time>2021-01-12T15:31:19Z</time>
      </trkpt>
      <trkpt lat="43.49678" lon="5.54585">
        <ele>328</ele>
        <time>2021-01-12T15:31:22Z</time>
      </trkpt>
      <trkpt lat="43.49679" lon="5.54587">
        <ele>328</ele>
        <time>2021-01-12T15:31:24Z</time>
      </trkpt>
      <trkpt lat="43.4968" lon="5.54589">
        <ele>328</ele>
        <time>2021-01-12T15:31:26Z</time>
      </trkpt>
      <trkpt lat="43.49682" lon="5.54592">
        <ele>328</ele>
        <time>2021-01-12T15:31:29Z</time>
      </trkpt>
      <trkpt lat="43.49683" lon="5.54594">
        <ele>327</ele>
        <time>2021-01-12T15:31:32Z</time>
      </trkpt>
      <trkpt lat="43.49684" lon="5.54596">
        <ele>326</ele>
        <time>2021-01-12T15:31:34Z</time>
      </trkpt>
      <trkpt lat="43.49685" lon="5.54599">
        <ele>325</ele>
        <time>2021-01-12T15:31:36Z</time>
      </trkpt>
      <trkpt lat="43.49687" lon="5.54602">
        <ele>325</ele>
        <time>2021-01-12T15:31:39Z</time>
      </trkpt>
      <trkpt lat="43.49689" lon="5.54603">
        <ele>325</ele>
        <time>2021-01-12T15:31:41Z</time>
      </trkpt>
      <trkpt lat="43.4969" lon="5.54607">
        <ele>323</ele>
        <time>2021-01-12T15:31:44Z</time>
      </trkpt>
      <trkpt lat="43.49692" lon="5.54608">
        <ele>324</ele>
        <time>2021-01-12T15:31:46Z</time>
      </trkpt>
      <trkpt lat="43.49693" lon="5.5461">
        <ele>323</ele>
        <time>2021-01-12T15:31:48Z</time>
      </trkpt>
      <trkpt lat="43.49695" lon="5.54611">
        <ele>324</ele>
        <time>2021-01-12T15:31:50Z</time>
      </trkpt>
      <trkpt lat="43.49697" lon="5.54613">
        <ele>324</ele>
        <time>2021-01-12T15:31:53Z</time>
      </trkpt>
      <trkpt lat="43.49698" lon="5.54616">
        <ele>324</ele>
        <time>2021-01-12T15:31:56Z</time>
      </trkpt>
      <trkpt lat="43.497" lon="5.54618">
        <ele>325</ele>
        <time>2021-01-12T15:31:58Z</time>
      </trkpt>
      <trkpt lat="43.49701" lon="5.5462">
        <ele>327</ele>
        <time>2021-01-12T15:32:00Z</time>
      </trkpt>
      <trkpt lat="43.49703" lon="5.54622">
        <ele>327</ele>
        <time>2021-01-12T15:32:02Z</time>
      </trkpt>
      <trkpt lat="43.49703" lon="5.54625">
        <ele>329</ele>
        <time>2021-01-12T15:32:06Z</time>
      </trkpt>
      <trkpt lat="43.49704" lon="5.54628">
        <ele>329</ele>
        <time>2021-01-12T15:32:09Z</time>
      </trkpt>
      <trkpt lat="43.49704" lon="5.54631">
        <ele>329</ele>
        <time>2021-01-12T15:32:11Z</time>
      </trkpt>
      <trkpt lat="43.49703" lon="5.54634">
        <ele>328</ele>
        <time>2021-01-12T15:32:13Z</time>
      </trkpt>
      <trkpt lat="43.49704" lon="5.54639">
        <ele>328</ele>
        <time>2021-01-12T15:32:15Z</time>
      </trkpt>
      <trkpt lat="43.49704" lon="5.54642">
        <ele>328</ele>
        <time>2021-01-12T15:32:17Z</time>
      </trkpt>
      <trkpt lat="43.49704" lon="5.54645">
        <ele>327</ele>
        <time>2021-01-12T15:32:20Z</time>
      </trkpt>
      <trkpt lat="43.49703" lon="5.54647">
        <ele>326</ele>
        <time>2021-01-12T15:32:22Z</time>
      </trkpt>
      <trkpt lat="43.49704" lon="5.54651">
        <ele>326</ele>
        <time>2021-01-12T15:32:25Z</time>
      </trkpt>
      <trkpt lat="43.49705" lon="5.54654">
        <ele>325</ele>
        <time>2021-01-12T15:32:28Z</time>
      </trkpt>
      <trkpt lat="43.49705" lon="5.54657">
        <ele>326</ele>
        <time>2021-01-12T15:32:31Z</time>
      </trkpt>
      <trkpt lat="43.49706" lon="5.54662">
        <ele>326</ele>
        <time>2021-01-12T15:32:36Z</time>
      </trkpt>
      <trkpt lat="43.49706" lon="5.54665">
        <ele>327</ele>
        <time>2021-01-12T15:32:39Z</time>
      </trkpt>
      <trkpt lat="43.49706" lon="5.54668">
        <ele>327</ele>
        <time>2021-01-12T15:32:42Z</time>
      </trkpt>
      <trkpt lat="43.49706" lon="5.54672">
        <ele>326</ele>
        <time>2021-01-12T15:32:45Z</time>
      </trkpt>
      <trkpt lat="43.49706" lon="5.54675">
        <ele>327</ele>
        <time>2021-01-12T15:32:48Z</time>
      </trkpt>
      <trkpt lat="43.49707" lon="5.54678">
        <ele>326</ele>
        <time>2021-01-12T15:32:52Z</time>
      </trkpt>
      <trkpt lat="43.49707" lon="5.54681">
        <ele>328</ele>
        <time>2021-01-12T15:32:54Z</time>
      </trkpt>
      <trkpt lat="43.49707" lon="5.54684">
        <ele>327</ele>
        <time>2021-01-12T15:32:57Z</time>
      </trkpt>
      <trkpt lat="43.49708" lon="5.54688">
        <ele>327</ele>
        <time>2021-01-12T15:33:00Z</time>
      </trkpt>
      <trkpt lat="43.49709" lon="5.54692">
        <ele>327</ele>
        <time>2021-01-12T15:33:03Z</time>
      </trkpt>
      <trkpt lat="43.4971" lon="5.54695">
        <ele>327</ele>
        <time>2021-01-12T15:33:06Z</time>
      </trkpt>
      <trkpt lat="43.49711" lon="5.54698">
        <ele>328</ele>
        <time>2021-01-12T15:33:09Z</time>
      </trkpt>
      <trkpt lat="43.49711" lon="5.54701">
        <ele>329</ele>
        <time>2021-01-12T15:33:12Z</time>
      </trkpt>
      <trkpt lat="43.49712" lon="5.54704">
        <ele>329</ele>
        <time>2021-01-12T15:33:15Z</time>
      </trkpt>
      <trkpt lat="43.49712" lon="5.54707">
        <ele>330</ele>
        <time>2021-01-12T15:33:18Z</time>
      </trkpt>
      <trkpt lat="43.49714" lon="5.54708">
        <ele>330</ele>
        <time>2021-01-12T15:33:20Z</time>
      </trkpt>
      <trkpt lat="43.49715" lon="5.54711">
        <ele>330</ele>
        <time>2021-01-12T15:33:23Z</time>
      </trkpt>
      <trkpt lat="43.49716" lon="5.54714">
        <ele>330</ele>
        <time>2021-01-12T15:33:26Z</time>
      </trkpt>
      <trkpt lat="43.49716" lon="5.54717">
        <ele>330</ele>
        <time>2021-01-12T15:33:29Z</time>
      </trkpt>
      <trkpt lat="43.49716" lon="5.5472">
        <ele>331</ele>
        <time>2021-01-12T15:33:32Z</time>
      </trkpt>
      <trkpt lat="43.49716" lon="5.54723">
        <ele>331</ele>
        <time>2021-01-12T15:33:34Z</time>
      </trkpt>
      <trkpt lat="43.49717" lon="5.54726">
        <ele>332</ele>
        <time>2021-01-12T15:33:37Z</time>
      </trkpt>
      <trkpt lat="43.49717" lon="5.54729">
        <ele>332</ele>
        <time>2021-01-12T15:33:40Z</time>
      </trkpt>
      <trkpt lat="43.49717" lon="5.54732">
        <ele>331</ele>
        <time>2021-01-12T15:33:42Z</time>
      </trkpt>
      <trkpt lat="43.49716" lon="5.54734">
        <ele>330</ele>
        <time>2021-01-12T15:33:44Z</time>
      </trkpt>
      <trkpt lat="43.49715" lon="5.54738">
        <ele>330</ele>
        <time>2021-01-12T15:33:47Z</time>
      </trkpt>
      <trkpt lat="43.49715" lon="5.54741">
        <ele>330</ele>
        <time>2021-01-12T15:33:51Z</time>
      </trkpt>
      <trkpt lat="43.49715" lon="5.54745">
        <ele>330</ele>
        <time>2021-01-12T15:33:54Z</time>
      </trkpt>
      <trkpt lat="43.49714" lon="5.54747">
        <ele>330</ele>
        <time>2021-01-12T15:33:56Z</time>
      </trkpt>
      <trkpt lat="43.49713" lon="5.5475">
        <ele>329</ele>
        <time>2021-01-12T15:33:58Z</time>
      </trkpt>
      <trkpt lat="43.49713" lon="5.54753">
        <ele>329</ele>
        <time>2021-01-12T15:34:01Z</time>
      </trkpt>
      <trkpt lat="43.49713" lon="5.54755">
        <ele>330</ele>
        <time>2021-01-12T15:34:03Z</time>
      </trkpt>
      <trkpt lat="43.49712" lon="5.54758">
        <ele>329</ele>
        <time>2021-01-12T15:34:05Z</time>
      </trkpt>
      <trkpt lat="43.49711" lon="5.54761">
        <ele>330</ele>
        <time>2021-01-12T15:34:08Z</time>
      </trkpt>
      <trkpt lat="43.4971" lon="5.54764">
        <ele>329</ele>
        <time>2021-01-12T15:34:11Z</time>
      </trkpt>
      <trkpt lat="43.49709" lon="5.54767">
        <ele>330</ele>
        <time>2021-01-12T15:34:14Z</time>
      </trkpt>
      <trkpt lat="43.49709" lon="5.5477">
        <ele>330</ele>
        <time>2021-01-12T15:34:17Z</time>
      </trkpt>
      <trkpt lat="43.49709" lon="5.54773">
        <ele>331</ele>
        <time>2021-01-12T15:34:20Z</time>
      </trkpt>
      <trkpt lat="43.49708" lon="5.54775">
        <ele>330</ele>
        <time>2021-01-12T15:34:22Z</time>
      </trkpt>
      <trkpt lat="43.49708" lon="5.54779">
        <ele>331</ele>
        <time>2021-01-12T15:34:25Z</time>
      </trkpt>
      <trkpt lat="43.49707" lon="5.54782">
        <ele>331</ele>
        <time>2021-01-12T15:34:27Z</time>
      </trkpt>
      <trkpt lat="43.49707" lon="5.54784">
        <ele>330</ele>
        <time>2021-01-12T15:34:29Z</time>
      </trkpt>
      <trkpt lat="43.49707" lon="5.54788">
        <ele>330</ele>
        <time>2021-01-12T15:34:32Z</time>
      </trkpt>
      <trkpt lat="43.49707" lon="5.54791">
        <ele>330</ele>
        <time>2021-01-12T15:34:34Z</time>
      </trkpt>
      <trkpt lat="43.49706" lon="5.54794">
        <ele>329</ele>
        <time>2021-01-12T15:34:37Z</time>
      </trkpt>
      <trkpt lat="43.49705" lon="5.54798">
        <ele>330</ele>
        <time>2021-01-12T15:34:40Z</time>
      </trkpt>
      <trkpt lat="43.49704" lon="5.548">
        <ele>330</ele>
        <time>2021-01-12T15:34:42Z</time>
      </trkpt>
      <trkpt lat="43.49704" lon="5.54803">
        <ele>331</ele>
        <time>2021-01-12T15:34:44Z</time>
      </trkpt>
      <trkpt lat="43.49703" lon="5.54806">
        <ele>331</ele>
        <time>2021-01-12T15:34:47Z</time>
      </trkpt>
      <trkpt lat="43.49703" lon="5.54809">
        <ele>332</ele>
        <time>2021-01-12T15:34:50Z</time>
      </trkpt>
      <trkpt lat="43.49704" lon="5.54811">
        <ele>332</ele>
        <time>2021-01-12T15:34:52Z</time>
      </trkpt>
      <trkpt lat="43.49703" lon="5.54816">
        <ele>333</ele>
        <time>2021-01-12T15:34:58Z</time>
      </trkpt>
      <trkpt lat="43.49702" lon="5.54819">
        <ele>333</ele>
        <time>2021-01-12T15:35:00Z</time>
      </trkpt>
      <trkpt lat="43.49702" lon="5.54822">
        <ele>331</ele>
        <time>2021-01-12T15:35:03Z</time>
      </trkpt>
      <trkpt lat="43.49701" lon="5.54825">
        <ele>330</ele>
        <time>2021-01-12T15:35:06Z</time>
      </trkpt>
      <trkpt lat="43.49701" lon="5.54828">
        <ele>331</ele>
        <time>2021-01-12T15:35:08Z</time>
      </trkpt>
      <trkpt lat="43.49701" lon="5.54831">
        <ele>332</ele>
        <time>2021-01-12T15:35:10Z</time>
      </trkpt>
      <trkpt lat="43.49701" lon="5.54834">
        <ele>332</ele>
        <time>2021-01-12T15:35:13Z</time>
      </trkpt>
      <trkpt lat="43.497" lon="5.54836">
        <ele>332</ele>
        <time>2021-01-12T15:35:15Z</time>
      </trkpt>
      <trkpt lat="43.497" lon="5.54839">
        <ele>332</ele>
        <time>2021-01-12T15:35:18Z</time>
      </trkpt>
      <trkpt lat="43.497" lon="5.54843">
        <ele>331</ele>
        <time>2021-01-12T15:35:21Z</time>
      </trkpt>
      <trkpt lat="43.497" lon="5.54846">
        <ele>331</ele>
        <time>2021-01-12T15:35:24Z</time>
      </trkpt>
      <trkpt lat="43.497" lon="5.54848">
        <ele>330</ele>
        <time>2021-01-12T15:35:26Z</time>
      </trkpt>
      <trkpt lat="43.497" lon="5.54852">
        <ele>330</ele>
        <time>2021-01-12T15:35:29Z</time>
      </trkpt>
      <trkpt lat="43.497" lon="5.54855">
        <ele>330</ele>
        <time>2021-01-12T15:35:32Z</time>
      </trkpt>
      <trkpt lat="43.497" lon="5.54858">
        <ele>330</ele>
        <time>2021-01-12T15:35:35Z</time>
      </trkpt>
      <trkpt lat="43.49701" lon="5.5486">
        <ele>331</ele>
        <time>2021-01-12T15:35:37Z</time>
      </trkpt>
      <trkpt lat="43.49701" lon="5.54864">
        <ele>331</ele>
        <time>2021-01-12T15:35:40Z</time>
      </trkpt>
      <trkpt lat="43.49701" lon="5.54867">
        <ele>330</ele>
        <time>2021-01-12T15:35:42Z</time>
      </trkpt>
      <trkpt lat="43.49701" lon="5.54869">
        <ele>330</ele>
        <time>2021-01-12T15:35:44Z</time>
      </trkpt>
      <trkpt lat="43.49702" lon="5.54872">
        <ele>330</ele>
        <time>2021-01-12T15:35:46Z</time>
      </trkpt>
      <trkpt lat="43.49701" lon="5.54875">
        <ele>329</ele>
        <time>2021-01-12T15:35:48Z</time>
      </trkpt>
      <trkpt lat="43.49701" lon="5.54878">
        <ele>330</ele>
        <time>2021-01-12T15:35:50Z</time>
      </trkpt>
      <trkpt lat="43.497" lon="5.5488">
        <ele>330</ele>
        <time>2021-01-12T15:35:52Z</time>
      </trkpt>
      <trkpt lat="43.497" lon="5.54883">
        <ele>330</ele>
        <time>2021-01-12T15:35:54Z</time>
      </trkpt>
      <trkpt lat="43.49699" lon="5.54885">
        <ele>331</ele>
        <time>2021-01-12T15:35:56Z</time>
      </trkpt>
      <trkpt lat="43.49699" lon="5.54889">
        <ele>331</ele>
        <time>2021-01-12T15:35:58Z</time>
      </trkpt>
      <trkpt lat="43.49698" lon="5.54891">
        <ele>332</ele>
        <time>2021-01-12T15:36:00Z</time>
      </trkpt>
      <trkpt lat="43.49697" lon="5.54894">
        <ele>331</ele>
        <time>2021-01-12T15:36:02Z</time>
      </trkpt>
      <trkpt lat="43.49697" lon="5.54898">
        <ele>332</ele>
        <time>2021-01-12T15:36:05Z</time>
      </trkpt>
      <trkpt lat="43.49696" lon="5.549">
        <ele>331</ele>
        <time>2021-01-12T15:36:07Z</time>
      </trkpt>
      <trkpt lat="43.49696" lon="5.54903">
        <ele>331</ele>
        <time>2021-01-12T15:36:09Z</time>
      </trkpt>
      <trkpt lat="43.49696" lon="5.54906">
        <ele>331</ele>
        <time>2021-01-12T15:36:12Z</time>
      </trkpt>
      <trkpt lat="43.49695" lon="5.5491">
        <ele>332</ele>
        <time>2021-01-12T15:36:15Z</time>
      </trkpt>
      <trkpt lat="43.49695" lon="5.54914">
        <ele>332</ele>
        <time>2021-01-12T15:36:17Z</time>
      </trkpt>
      <trkpt lat="43.49695" lon="5.54917">
        <ele>332</ele>
        <time>2021-01-12T15:36:19Z</time>
      </trkpt>
      <trkpt lat="43.49694" lon="5.54919">
        <ele>331</ele>
        <time>2021-01-12T15:36:21Z</time>
      </trkpt>
      <trkpt lat="43.49695" lon="5.54923">
        <ele>331</ele>
        <time>2021-01-12T15:36:24Z</time>
      </trkpt>
      <trkpt lat="43.49694" lon="5.54925">
        <ele>332</ele>
        <time>2021-01-12T15:36:27Z</time>
      </trkpt>
      <trkpt lat="43.49694" lon="5.54928">
        <ele>332</ele>
        <time>2021-01-12T15:36:29Z</time>
      </trkpt>
      <trkpt lat="43.49695" lon="5.54931">
        <ele>333</ele>
        <time>2021-01-12T15:36:32Z</time>
      </trkpt>
      <trkpt lat="43.49696" lon="5.54933">
        <ele>333</ele>
        <time>2021-01-12T15:36:34Z</time>
      </trkpt>
      <trkpt lat="43.49696" lon="5.54937">
        <ele>333</ele>
        <time>2021-01-12T15:36:37Z</time>
      </trkpt>
      <trkpt lat="43.49696" lon="5.5494">
        <ele>333</ele>
        <time>2021-01-12T15:36:39Z</time>
      </trkpt>
      <trkpt lat="43.49696" lon="5.54943">
        <ele>333</ele>
        <time>2021-01-12T15:36:41Z</time>
      </trkpt>
      <trkpt lat="43.49696" lon="5.54946">
        <ele>333</ele>
        <time>2021-01-12T15:36:43Z</time>
      </trkpt>
      <trkpt lat="43.49696" lon="5.54949">
        <ele>333</ele>
        <time>2021-01-12T15:36:45Z</time>
      </trkpt>
      <trkpt lat="43.49696" lon="5.54951">
        <ele>333</ele>
        <time>2021-01-12T15:36:47Z</time>
      </trkpt>
      <trkpt lat="43.49696" lon="5.54954">
        <ele>333</ele>
        <time>2021-01-12T15:36:49Z</time>
      </trkpt>
      <trkpt lat="43.49695" lon="5.54958">
        <ele>333</ele>
        <time>2021-01-12T15:36:52Z</time>
      </trkpt>
      <trkpt lat="43.49695" lon="5.54961">
        <ele>333</ele>
        <time>2021-01-12T15:36:54Z</time>
      </trkpt>
      <trkpt lat="43.49695" lon="5.54964">
        <ele>333</ele>
        <time>2021-01-12T15:36:56Z</time>
      </trkpt>
      <trkpt lat="43.49695" lon="5.54967">
        <ele>333</ele>
        <time>2021-01-12T15:36:59Z</time>
      </trkpt>
      <trkpt lat="43.49694" lon="5.5497">
        <ele>332</ele>
        <time>2021-01-12T15:37:01Z</time>
      </trkpt>
      <trkpt lat="43.49695" lon="5.54973">
        <ele>331</ele>
        <time>2021-01-12T15:37:03Z</time>
      </trkpt>
      <trkpt lat="43.49695" lon="5.54975">
        <ele>331</ele>
        <time>2021-01-12T15:37:05Z</time>
      </trkpt>
      <trkpt lat="43.49696" lon="5.54978">
        <ele>331</ele>
        <time>2021-01-12T15:37:07Z</time>
      </trkpt>
      <trkpt lat="43.49697" lon="5.54981">
        <ele>331</ele>
        <time>2021-01-12T15:37:09Z</time>
      </trkpt>
      <trkpt lat="43.49697" lon="5.54983">
        <ele>330</ele>
        <time>2021-01-12T15:37:11Z</time>
      </trkpt>
      <trkpt lat="43.49697" lon="5.54987">
        <ele>330</ele>
        <time>2021-01-12T15:37:14Z</time>
      </trkpt>
      <trkpt lat="43.49698" lon="5.5499">
        <ele>331</ele>
        <time>2021-01-12T15:37:16Z</time>
      </trkpt>
      <trkpt lat="43.49698" lon="5.54993">
        <ele>331</ele>
        <time>2021-01-12T15:37:19Z</time>
      </trkpt>
      <trkpt lat="43.49698" lon="5.54997">
        <ele>331</ele>
        <time>2021-01-12T15:37:22Z</time>
      </trkpt>
      <trkpt lat="43.49699" lon="5.55">
        <ele>330</ele>
        <time>2021-01-12T15:37:24Z</time>
      </trkpt>
      <trkpt lat="43.49699" lon="5.55003">
        <ele>329</ele>
        <time>2021-01-12T15:37:26Z</time>
      </trkpt>
      <trkpt lat="43.49699" lon="5.55006">
        <ele>329</ele>
        <time>2021-01-12T15:37:28Z</time>
      </trkpt>
      <trkpt lat="43.497" lon="5.55008">
        <ele>330</ele>
        <time>2021-01-12T15:37:30Z</time>
      </trkpt>
      <trkpt lat="43.49701" lon="5.55011">
        <ele>330</ele>
        <time>2021-01-12T15:37:32Z</time>
      </trkpt>
      <trkpt lat="43.49701" lon="5.55014">
        <ele>331</ele>
        <time>2021-01-12T15:37:34Z</time>
      </trkpt>
      <trkpt lat="43.49701" lon="5.55017">
        <ele>331</ele>
        <time>2021-01-12T15:37:37Z</time>
      </trkpt>
      <trkpt lat="43.49702" lon="5.5502">
        <ele>332</ele>
        <time>2021-01-12T15:37:39Z</time>
      </trkpt>
      <trkpt lat="43.49702" lon="5.55023">
        <ele>332</ele>
        <time>2021-01-12T15:37:42Z</time>
      </trkpt>
      <trkpt lat="43.49702" lon="5.55026">
        <ele>333</ele>
        <time>2021-01-12T15:37:44Z</time>
      </trkpt>
      <trkpt lat="43.49703" lon="5.55029">
        <ele>332</ele>
        <time>2021-01-12T15:37:46Z</time>
      </trkpt>
      <trkpt lat="43.49703" lon="5.55032">
        <ele>332</ele>
        <time>2021-01-12T15:37:48Z</time>
      </trkpt>
      <trkpt lat="43.49703" lon="5.55035">
        <ele>331</ele>
        <time>2021-01-12T15:37:50Z</time>
      </trkpt>
      <trkpt lat="43.49704" lon="5.55038">
        <ele>331</ele>
        <time>2021-01-12T15:37:52Z</time>
      </trkpt>
      <trkpt lat="43.49704" lon="5.55041">
        <ele>331</ele>
        <time>2021-01-12T15:37:54Z</time>
      </trkpt>
      <trkpt lat="43.49704" lon="5.55044">
        <ele>332</ele>
        <time>2021-01-12T15:37:57Z</time>
      </trkpt>
      <trkpt lat="43.49704" lon="5.55046">
        <ele>332</ele>
        <time>2021-01-12T15:38:00Z</time>
      </trkpt>
      <trkpt lat="43.49705" lon="5.55049">
        <ele>332</ele>
        <time>2021-01-12T15:38:03Z</time>
      </trkpt>
      <trkpt lat="43.49705" lon="5.55051">
        <ele>332</ele>
        <time>2021-01-12T15:38:05Z</time>
      </trkpt>
      <trkpt lat="43.49705" lon="5.55054">
        <ele>332</ele>
        <time>2021-01-12T15:38:07Z</time>
      </trkpt>
      <trkpt lat="43.49705" lon="5.55057">
        <ele>332</ele>
        <time>2021-01-12T15:38:09Z</time>
      </trkpt>
      <trkpt lat="43.49705" lon="5.5506">
        <ele>333</ele>
        <time>2021-01-12T15:38:11Z</time>
      </trkpt>
      <trkpt lat="43.49706" lon="5.55063">
        <ele>333</ele>
        <time>2021-01-12T15:38:14Z</time>
      </trkpt>
      <trkpt lat="43.49707" lon="5.55066">
        <ele>333</ele>
        <time>2021-01-12T15:38:16Z</time>
      </trkpt>
      <trkpt lat="43.49707" lon="5.55069">
        <ele>332</ele>
        <time>2021-01-12T15:38:18Z</time>
      </trkpt>
      <trkpt lat="43.49706" lon="5.55072">
        <ele>332</ele>
        <time>2021-01-12T15:38:20Z</time>
      </trkpt>
      <trkpt lat="43.49706" lon="5.55075">
        <ele>332</ele>
        <time>2021-01-12T15:38:22Z</time>
      </trkpt>
      <trkpt lat="43.49706" lon="5.55077">
        <ele>333</ele>
        <time>2021-01-12T15:38:24Z</time>
      </trkpt>
      <trkpt lat="43.49706" lon="5.5508">
        <ele>333</ele>
        <time>2021-01-12T15:38:26Z</time>
      </trkpt>
      <trkpt lat="43.49707" lon="5.55084">
        <ele>333</ele>
        <time>2021-01-12T15:38:29Z</time>
      </trkpt>
      <trkpt lat="43.49707" lon="5.55087">
        <ele>332</ele>
        <time>2021-01-12T15:38:31Z</time>
      </trkpt>
      <trkpt lat="43.49707" lon="5.5509">
        <ele>333</ele>
        <time>2021-01-12T15:38:34Z</time>
      </trkpt>
      <trkpt lat="43.49707" lon="5.55093">
        <ele>332</ele>
        <time>2021-01-12T15:38:37Z</time>
      </trkpt>
      <trkpt lat="43.49707" lon="5.55096">
        <ele>332</ele>
        <time>2021-01-12T15:38:39Z</time>
      </trkpt>
      <trkpt lat="43.49706" lon="5.55099">
        <ele>332</ele>
        <time>2021-01-12T15:38:42Z</time>
      </trkpt>
      <trkpt lat="43.49705" lon="5.55102">
        <ele>331</ele>
        <time>2021-01-12T15:38:44Z</time>
      </trkpt>
      <trkpt lat="43.49704" lon="5.55105">
        <ele>332</ele>
        <time>2021-01-12T15:38:46Z</time>
      </trkpt>
      <trkpt lat="43.49704" lon="5.55107">
        <ele>332</ele>
        <time>2021-01-12T15:38:48Z</time>
      </trkpt>
      <trkpt lat="43.49704" lon="5.5511">
        <ele>332</ele>
        <time>2021-01-12T15:38:51Z</time>
      </trkpt>
      <trkpt lat="43.49703" lon="5.55113">
        <ele>332</ele>
        <time>2021-01-12T15:38:53Z</time>
      </trkpt>
      <trkpt lat="43.49702" lon="5.55116">
        <ele>332</ele>
        <time>2021-01-12T15:38:55Z</time>
      </trkpt>
      <trkpt lat="43.49701" lon="5.55119">
        <ele>332</ele>
        <time>2021-01-12T15:38:58Z</time>
      </trkpt>
      <trkpt lat="43.497" lon="5.55121">
        <ele>332</ele>
        <time>2021-01-12T15:39:00Z</time>
      </trkpt>
      <trkpt lat="43.49699" lon="5.55124">
        <ele>333</ele>
        <time>2021-01-12T15:39:02Z</time>
      </trkpt>
      <trkpt lat="43.49698" lon="5.55126">
        <ele>333</ele>
        <time>2021-01-12T15:39:04Z</time>
      </trkpt>
      <trkpt lat="43.49697" lon="5.55129">
        <ele>332</ele>
        <time>2021-01-12T15:39:07Z</time>
      </trkpt>
      <trkpt lat="43.49695" lon="5.55131">
        <ele>333</ele>
        <time>2021-01-12T15:39:09Z</time>
      </trkpt>
      <trkpt lat="43.49694" lon="5.55134">
        <ele>333</ele>
        <time>2021-01-12T15:39:11Z</time>
      </trkpt>
      <trkpt lat="43.49693" lon="5.55137">
        <ele>333</ele>
        <time>2021-01-12T15:39:13Z</time>
      </trkpt>
      <trkpt lat="43.49692" lon="5.5514">
        <ele>333</ele>
        <time>2021-01-12T15:39:16Z</time>
      </trkpt>
      <trkpt lat="43.49691" lon="5.55142">
        <ele>333</ele>
        <time>2021-01-12T15:39:18Z</time>
      </trkpt>
      <trkpt lat="43.4969" lon="5.55146">
        <ele>333</ele>
        <time>2021-01-12T15:39:21Z</time>
      </trkpt>
      <trkpt lat="43.49689" lon="5.55149">
        <ele>334</ele>
        <time>2021-01-12T15:39:24Z</time>
      </trkpt>
      <trkpt lat="43.49688" lon="5.55152">
        <ele>333</ele>
        <time>2021-01-12T15:39:27Z</time>
      </trkpt>
      <trkpt lat="43.49687" lon="5.55154">
        <ele>333</ele>
        <time>2021-01-12T15:39:30Z</time>
      </trkpt>
      <trkpt lat="43.49685" lon="5.55157">
        <ele>333</ele>
        <time>2021-01-12T15:39:33Z</time>
      </trkpt>
      <trkpt lat="43.49683" lon="5.5516">
        <ele>334</ele>
        <time>2021-01-12T15:39:36Z</time>
      </trkpt>
      <trkpt lat="43.49682" lon="5.55162">
        <ele>333</ele>
        <time>2021-01-12T15:39:38Z</time>
      </trkpt>
      <trkpt lat="43.49682" lon="5.55165">
        <ele>333</ele>
        <time>2021-01-12T15:39:41Z</time>
      </trkpt>
      <trkpt lat="43.49681" lon="5.55169">
        <ele>332</ele>
        <time>2021-01-12T15:39:44Z</time>
      </trkpt>
      <trkpt lat="43.4968" lon="5.55171">
        <ele>332</ele>
        <time>2021-01-12T15:39:46Z</time>
      </trkpt>
      <trkpt lat="43.49679" lon="5.55174">
        <ele>332</ele>
        <time>2021-01-12T15:39:49Z</time>
      </trkpt>
      <trkpt lat="43.49679" lon="5.55178">
        <ele>332</ele>
        <time>2021-01-12T15:39:52Z</time>
      </trkpt>
      <trkpt lat="43.49679" lon="5.55181">
        <ele>333</ele>
        <time>2021-01-12T15:39:55Z</time>
      </trkpt>
      <trkpt lat="43.49679" lon="5.55185">
        <ele>333</ele>
        <time>2021-01-12T15:39:58Z</time>
      </trkpt>
      <trkpt lat="43.49678" lon="5.55187">
        <ele>333</ele>
        <time>2021-01-12T15:40:00Z</time>
      </trkpt>
      <trkpt lat="43.49678" lon="5.5519">
        <ele>334</ele>
        <time>2021-01-12T15:40:02Z</time>
      </trkpt>
      <trkpt lat="43.49678" lon="5.55192">
        <ele>334</ele>
        <time>2021-01-12T15:40:04Z</time>
      </trkpt>
      <trkpt lat="43.49677" lon="5.55195">
        <ele>334</ele>
        <time>2021-01-12T15:40:06Z</time>
      </trkpt>
      <trkpt lat="43.49677" lon="5.55198">
        <ele>334</ele>
        <time>2021-01-12T15:40:08Z</time>
      </trkpt>
      <trkpt lat="43.49676" lon="5.55201">
        <ele>334</ele>
        <time>2021-01-12T15:40:11Z</time>
      </trkpt>
      <trkpt lat="43.49676" lon="5.55204">
        <ele>333</ele>
        <time>2021-01-12T15:40:13Z</time>
      </trkpt>
      <trkpt lat="43.49675" lon="5.55207">
        <ele>333</ele>
        <time>2021-01-12T15:40:16Z</time>
      </trkpt>
      <trkpt lat="43.49675" lon="5.5521">
        <ele>333</ele>
        <time>2021-01-12T15:40:18Z</time>
      </trkpt>
      <trkpt lat="43.49675" lon="5.55212">
        <ele>333</ele>
        <time>2021-01-12T15:40:20Z</time>
      </trkpt>
      <trkpt lat="43.49675" lon="5.55215">
        <ele>332</ele>
        <time>2021-01-12T15:40:22Z</time>
      </trkpt>
      <trkpt lat="43.49674" lon="5.55218">
        <ele>332</ele>
        <time>2021-01-12T15:40:25Z</time>
      </trkpt>
      <trkpt lat="43.49673" lon="5.55222">
        <ele>332</ele>
        <time>2021-01-12T15:40:28Z</time>
      </trkpt>
      <trkpt lat="43.49672" lon="5.55224">
        <ele>333</ele>
        <time>2021-01-12T15:40:31Z</time>
      </trkpt>
      <trkpt lat="43.4967" lon="5.55227">
        <ele>333</ele>
        <time>2021-01-12T15:40:33Z</time>
      </trkpt>
      <trkpt lat="43.49668" lon="5.55228">
        <ele>333</ele>
        <time>2021-01-12T15:40:35Z</time>
      </trkpt>
      <trkpt lat="43.49667" lon="5.5523">
        <ele>334</ele>
        <time>2021-01-12T15:40:37Z</time>
      </trkpt>
      <trkpt lat="43.49666" lon="5.55233">
        <ele>334</ele>
        <time>2021-01-12T15:40:40Z</time>
      </trkpt>
      <trkpt lat="43.49665" lon="5.55236">
        <ele>334</ele>
        <time>2021-01-12T15:40:42Z</time>
      </trkpt>
      <trkpt lat="43.49664" lon="5.55238">
        <ele>333</ele>
        <time>2021-01-12T15:40:45Z</time>
      </trkpt>
      <trkpt lat="43.49663" lon="5.55241">
        <ele>335</ele>
        <time>2021-01-12T15:40:47Z</time>
      </trkpt>
      <trkpt lat="43.49662" lon="5.55244">
        <ele>335</ele>
        <time>2021-01-12T15:40:49Z</time>
      </trkpt>
      <trkpt lat="43.49661" lon="5.55246">
        <ele>335</ele>
        <time>2021-01-12T15:40:51Z</time>
      </trkpt>
      <trkpt lat="43.4966" lon="5.55249">
        <ele>335</ele>
        <time>2021-01-12T15:40:53Z</time>
      </trkpt>
      <trkpt lat="43.4966" lon="5.55251">
        <ele>335</ele>
        <time>2021-01-12T15:40:55Z</time>
      </trkpt>
      <trkpt lat="43.4966" lon="5.55254">
        <ele>336</ele>
        <time>2021-01-12T15:40:57Z</time>
      </trkpt>
      <trkpt lat="43.4966" lon="5.55256">
        <ele>335</ele>
        <time>2021-01-12T15:40:59Z</time>
      </trkpt>
      <trkpt lat="43.49659" lon="5.5526">
        <ele>335</ele>
        <time>2021-01-12T15:41:02Z</time>
      </trkpt>
      <trkpt lat="43.49659" lon="5.55262">
        <ele>335</ele>
        <time>2021-01-12T15:41:04Z</time>
      </trkpt>
      <trkpt lat="43.49659" lon="5.55265">
        <ele>335</ele>
        <time>2021-01-12T15:41:06Z</time>
      </trkpt>
      <trkpt lat="43.49658" lon="5.55268">
        <ele>335</ele>
        <time>2021-01-12T15:41:08Z</time>
      </trkpt>
      <trkpt lat="43.49658" lon="5.55271">
        <ele>336</ele>
        <time>2021-01-12T15:41:11Z</time>
      </trkpt>
      <trkpt lat="43.49659" lon="5.55274">
        <ele>336</ele>
        <time>2021-01-12T15:41:13Z</time>
      </trkpt>
      <trkpt lat="43.49659" lon="5.55277">
        <ele>336</ele>
        <time>2021-01-12T15:41:16Z</time>
      </trkpt>
      <trkpt lat="43.49659" lon="5.5528">
        <ele>338</ele>
        <time>2021-01-12T15:41:32Z</time>
      </trkpt>
      <trkpt lat="43.4966" lon="5.55282">
        <ele>338</ele>
        <time>2021-01-12T15:41:35Z</time>
      </trkpt>
      <trkpt lat="43.4966" lon="5.55286">
        <ele>338</ele>
        <time>2021-01-12T15:41:40Z</time>
      </trkpt>
      <trkpt lat="43.49662" lon="5.55289">
        <ele>338</ele>
        <time>2021-01-12T15:41:43Z</time>
      </trkpt>
      <trkpt lat="43.49662" lon="5.55292">
        <ele>338</ele>
        <time>2021-01-12T15:41:46Z</time>
      </trkpt>
      <trkpt lat="43.49663" lon="5.55295">
        <ele>338</ele>
        <time>2021-01-12T15:41:50Z</time>
      </trkpt>
      <trkpt lat="43.49665" lon="5.55297">
        <ele>337</ele>
        <time>2021-01-12T15:41:53Z</time>
      </trkpt>
      <trkpt lat="43.49666" lon="5.553">
        <ele>337</ele>
        <time>2021-01-12T15:41:56Z</time>
      </trkpt>
      <trkpt lat="43.49667" lon="5.55303">
        <ele>336</ele>
        <time>2021-01-12T15:41:59Z</time>
      </trkpt>
      <trkpt lat="43.49669" lon="5.55305">
        <ele>336</ele>
        <time>2021-01-12T15:42:02Z</time>
      </trkpt>
      <trkpt lat="43.4967" lon="5.55307">
        <ele>335</ele>
        <time>2021-01-12T15:42:05Z</time>
      </trkpt>
      <trkpt lat="43.49671" lon="5.5531">
        <ele>335</ele>
        <time>2021-01-12T15:42:08Z</time>
      </trkpt>
      <trkpt lat="43.49672" lon="5.55314">
        <ele>335</ele>
        <time>2021-01-12T15:42:11Z</time>
      </trkpt>
      <trkpt lat="43.49674" lon="5.55316">
        <ele>335</ele>
        <time>2021-01-12T15:42:13Z</time>
      </trkpt>
      <trkpt lat="43.49675" lon="5.55319">
        <ele>335</ele>
        <time>2021-01-12T15:42:16Z</time>
      </trkpt>
      <trkpt lat="43.49676" lon="5.55322">
        <ele>336</ele>
        <time>2021-01-12T15:42:19Z</time>
      </trkpt>
      <trkpt lat="43.49676" lon="5.55326">
        <ele>334</ele>
        <time>2021-01-12T15:42:23Z</time>
      </trkpt>
      <trkpt lat="43.49677" lon="5.55328">
        <ele>334</ele>
        <time>2021-01-12T15:42:25Z</time>
      </trkpt>
      <trkpt lat="43.49677" lon="5.55332">
        <ele>333</ele>
        <time>2021-01-12T15:42:28Z</time>
      </trkpt>
      <trkpt lat="43.49678" lon="5.55334">
        <ele>333</ele>
        <time>2021-01-12T15:42:30Z</time>
      </trkpt>
      <trkpt lat="43.49679" lon="5.55336">
        <ele>334</ele>
        <time>2021-01-12T15:42:32Z</time>
      </trkpt>
      <trkpt lat="43.4968" lon="5.55338">
        <ele>333</ele>
        <time>2021-01-12T15:42:34Z</time>
      </trkpt>
      <trkpt lat="43.49682" lon="5.55341">
        <ele>334</ele>
        <time>2021-01-12T15:42:36Z</time>
      </trkpt>
      <trkpt lat="43.49683" lon="5.55343">
        <ele>333</ele>
        <time>2021-01-12T15:42:38Z</time>
      </trkpt>
      <trkpt lat="43.49683" lon="5.55346">
        <ele>332</ele>
        <time>2021-01-12T15:42:40Z</time>
      </trkpt>
      <trkpt lat="43.49684" lon="5.55349">
        <ele>331</ele>
        <time>2021-01-12T15:42:43Z</time>
      </trkpt>
      <trkpt lat="43.49685" lon="5.55351">
        <ele>333</ele>
        <time>2021-01-12T15:42:46Z</time>
      </trkpt>
      <trkpt lat="43.49686" lon="5.55354">
        <ele>334</ele>
        <time>2021-01-12T15:42:48Z</time>
      </trkpt>
      <trkpt lat="43.49686" lon="5.55357">
        <ele>333</ele>
        <time>2021-01-12T15:42:51Z</time>
      </trkpt>
      <trkpt lat="43.49686" lon="5.55359">
        <ele>333</ele>
        <time>2021-01-12T15:42:53Z</time>
      </trkpt>
      <trkpt lat="43.49687" lon="5.55363">
        <ele>333</ele>
        <time>2021-01-12T15:42:55Z</time>
      </trkpt>
      <trkpt lat="43.49687" lon="5.55366">
        <ele>332</ele>
        <time>2021-01-12T15:42:58Z</time>
      </trkpt>
      <trkpt lat="43.49687" lon="5.55369">
        <ele>332</ele>
        <time>2021-01-12T15:43:01Z</time>
      </trkpt>
      <trkpt lat="43.49688" lon="5.55372">
        <ele>332</ele>
        <time>2021-01-12T15:43:04Z</time>
      </trkpt>
      <trkpt lat="43.49689" lon="5.55376">
        <ele>332</ele>
        <time>2021-01-12T15:43:07Z</time>
      </trkpt>
      <trkpt lat="43.4969" lon="5.55379">
        <ele>332</ele>
        <time>2021-01-12T15:43:10Z</time>
      </trkpt>
      <trkpt lat="43.4969" lon="5.55382">
        <ele>332</ele>
        <time>2021-01-12T15:43:13Z</time>
      </trkpt>
      <trkpt lat="43.4969" lon="5.55385">
        <ele>331</ele>
        <time>2021-01-12T15:43:16Z</time>
      </trkpt>
      <trkpt lat="43.4969" lon="5.55387">
        <ele>330</ele>
        <time>2021-01-12T15:43:18Z</time>
      </trkpt>
      <trkpt lat="43.49692" lon="5.55391">
        <ele>329</ele>
        <time>2021-01-12T15:43:21Z</time>
      </trkpt>
      <trkpt lat="43.49692" lon="5.55393">
        <ele>328</ele>
        <time>2021-01-12T15:43:23Z</time>
      </trkpt>
      <trkpt lat="43.49693" lon="5.55396">
        <ele>328</ele>
        <time>2021-01-12T15:43:26Z</time>
      </trkpt>
      <trkpt lat="43.49693" lon="5.554">
        <ele>329</ele>
        <time>2021-01-12T15:43:29Z</time>
      </trkpt>
      <trkpt lat="43.49693" lon="5.55403">
        <ele>328</ele>
        <time>2021-01-12T15:43:32Z</time>
      </trkpt>
      <trkpt lat="43.49693" lon="5.55406">
        <ele>328</ele>
        <time>2021-01-12T15:43:34Z</time>
      </trkpt>
      <trkpt lat="43.49693" lon="5.55409">
        <ele>329</ele>
        <time>2021-01-12T15:43:36Z</time>
      </trkpt>
      <trkpt lat="43.49693" lon="5.55412">
        <ele>329</ele>
        <time>2021-01-12T15:43:38Z</time>
      </trkpt>
      <trkpt lat="43.49694" lon="5.55415">
        <ele>329</ele>
        <time>2021-01-12T15:43:41Z</time>
      </trkpt>
      <trkpt lat="43.49693" lon="5.55418">
        <ele>329</ele>
        <time>2021-01-12T15:43:43Z</time>
      </trkpt>
      <trkpt lat="43.49693" lon="5.55421">
        <ele>329</ele>
        <time>2021-01-12T15:43:46Z</time>
      </trkpt>
      <trkpt lat="43.49694" lon="5.55424">
        <ele>329</ele>
        <time>2021-01-12T15:43:48Z</time>
      </trkpt>
      <trkpt lat="43.49694" lon="5.55427">
        <ele>329</ele>
        <time>2021-01-12T15:43:51Z</time>
      </trkpt>
      <trkpt lat="43.49694" lon="5.55431">
        <ele>329</ele>
        <time>2021-01-12T15:43:54Z</time>
      </trkpt>
      <trkpt lat="43.49694" lon="5.55434">
        <ele>329</ele>
        <time>2021-01-12T15:43:57Z</time>
      </trkpt>
      <trkpt lat="43.49695" lon="5.55437">
        <ele>329</ele>
        <time>2021-01-12T15:44:00Z</time>
      </trkpt>
      <trkpt lat="43.49695" lon="5.5544">
        <ele>329</ele>
        <time>2021-01-12T15:44:02Z</time>
      </trkpt>
      <trkpt lat="43.49695" lon="5.55443">
        <ele>330</ele>
        <time>2021-01-12T15:44:04Z</time>
      </trkpt>
      <trkpt lat="43.49695" lon="5.55446">
        <ele>330</ele>
        <time>2021-01-12T15:44:07Z</time>
      </trkpt>
      <trkpt lat="43.49695" lon="5.5545">
        <ele>329</ele>
        <time>2021-01-12T15:44:12Z</time>
      </trkpt>
      <trkpt lat="43.49696" lon="5.55454">
        <ele>329</ele>
        <time>2021-01-12T15:44:15Z</time>
      </trkpt>
      <trkpt lat="43.49696" lon="5.55456">
        <ele>329</ele>
        <time>2021-01-12T15:44:17Z</time>
      </trkpt>
      <trkpt lat="43.49695" lon="5.5546">
        <ele>328</ele>
        <time>2021-01-12T15:44:21Z</time>
      </trkpt>
      <trkpt lat="43.49694" lon="5.55463">
        <ele>328</ele>
        <time>2021-01-12T15:44:24Z</time>
      </trkpt>
      <trkpt lat="43.49693" lon="5.55466">
        <ele>328</ele>
        <time>2021-01-12T15:44:27Z</time>
      </trkpt>
      <trkpt lat="43.49692" lon="5.55469">
        <ele>328</ele>
        <time>2021-01-12T15:44:30Z</time>
      </trkpt>
      <trkpt lat="43.49691" lon="5.55472">
        <ele>328</ele>
        <time>2021-01-12T15:44:32Z</time>
      </trkpt>
      <trkpt lat="43.49691" lon="5.55474">
        <ele>329</ele>
        <time>2021-01-12T15:44:34Z</time>
      </trkpt>
      <trkpt lat="43.49691" lon="5.55477">
        <ele>329</ele>
        <time>2021-01-12T15:44:37Z</time>
      </trkpt>
      <trkpt lat="43.49692" lon="5.5548">
        <ele>330</ele>
        <time>2021-01-12T15:44:41Z</time>
      </trkpt>
      <trkpt lat="43.49691" lon="5.55485">
        <ele>330</ele>
        <time>2021-01-12T15:44:46Z</time>
      </trkpt>
      <trkpt lat="43.49691" lon="5.55488">
        <ele>329</ele>
        <time>2021-01-12T15:44:49Z</time>
      </trkpt>
      <trkpt lat="43.4969" lon="5.55491">
        <ele>329</ele>
        <time>2021-01-12T15:44:51Z</time>
      </trkpt>
      <trkpt lat="43.49689" lon="5.55494">
        <ele>330</ele>
        <time>2021-01-12T15:44:54Z</time>
      </trkpt>
      <trkpt lat="43.49689" lon="5.55498">
        <ele>330</ele>
        <time>2021-01-12T15:44:57Z</time>
      </trkpt>
      <trkpt lat="43.49688" lon="5.55501">
        <ele>330</ele>
        <time>2021-01-12T15:45:00Z</time>
      </trkpt>
      <trkpt lat="43.49688" lon="5.55503">
        <ele>330</ele>
        <time>2021-01-12T15:45:02Z</time>
      </trkpt>
      <trkpt lat="43.49688" lon="5.55506">
        <ele>330</ele>
        <time>2021-01-12T15:45:04Z</time>
      </trkpt>
      <trkpt lat="43.49687" lon="5.55509">
        <ele>329</ele>
        <time>2021-01-12T15:45:06Z</time>
      </trkpt>
      <trkpt lat="43.49687" lon="5.55512">
        <ele>329</ele>
        <time>2021-01-12T15:45:08Z</time>
      </trkpt>
      <trkpt lat="43.49686" lon="5.55514">
        <ele>330</ele>
        <time>2021-01-12T15:45:10Z</time>
      </trkpt>
      <trkpt lat="43.49685" lon="5.55518">
        <ele>331</ele>
        <time>2021-01-12T15:45:13Z</time>
      </trkpt>
      <trkpt lat="43.49685" lon="5.55521">
        <ele>331</ele>
        <time>2021-01-12T15:45:16Z</time>
      </trkpt>
      <trkpt lat="43.49685" lon="5.55524">
        <ele>331</ele>
        <time>2021-01-12T15:45:19Z</time>
      </trkpt>
      <trkpt lat="43.49684" lon="5.55527">
        <ele>331</ele>
        <time>2021-01-12T15:45:21Z</time>
      </trkpt>
      <trkpt lat="43.49683" lon="5.55529">
        <ele>332</ele>
        <time>2021-01-12T15:45:23Z</time>
      </trkpt>
      <trkpt lat="43.49683" lon="5.55532">
        <ele>331</ele>
        <time>2021-01-12T15:45:25Z</time>
      </trkpt>
      <trkpt lat="43.49682" lon="5.55534">
        <ele>332</ele>
        <time>2021-01-12T15:45:28Z</time>
      </trkpt>
      <trkpt lat="43.49682" lon="5.55537">
        <ele>332</ele>
        <time>2021-01-12T15:45:30Z</time>
      </trkpt>
      <trkpt lat="43.49681" lon="5.5554">
        <ele>332</ele>
        <time>2021-01-12T15:45:33Z</time>
      </trkpt>
      <trkpt lat="43.49681" lon="5.55544">
        <ele>332</ele>
        <time>2021-01-12T15:45:36Z</time>
      </trkpt>
      <trkpt lat="43.49681" lon="5.55547">
        <ele>334</ele>
        <time>2021-01-12T15:45:39Z</time>
      </trkpt>
      <trkpt lat="43.4968" lon="5.55551">
        <ele>335</ele>
        <time>2021-01-12T15:45:43Z</time>
      </trkpt>
      <trkpt lat="43.4968" lon="5.55554">
        <ele>335</ele>
        <time>2021-01-12T15:45:46Z</time>
      </trkpt>
      <trkpt lat="43.4968" lon="5.55557">
        <ele>336</ele>
        <time>2021-01-12T15:45:48Z</time>
      </trkpt>
      <trkpt lat="43.49679" lon="5.55559">
        <ele>335</ele>
        <time>2021-01-12T15:45:50Z</time>
      </trkpt>
      <trkpt lat="43.49679" lon="5.55562">
        <ele>335</ele>
        <time>2021-01-12T15:45:54Z</time>
      </trkpt>
      <trkpt lat="43.4968" lon="5.55567">
        <ele>334</ele>
        <time>2021-01-12T15:46:00Z</time>
      </trkpt>
      <trkpt lat="43.4968" lon="5.55571">
        <ele>333</ele>
        <time>2021-01-12T15:46:03Z</time>
      </trkpt>
      <trkpt lat="43.49681" lon="5.55573">
        <ele>334</ele>
        <time>2021-01-12T15:46:06Z</time>
      </trkpt>
      <trkpt lat="43.4968" lon="5.55576">
        <ele>333</ele>
        <time>2021-01-12T15:46:09Z</time>
      </trkpt>
      <trkpt lat="43.49681" lon="5.55579">
        <ele>333</ele>
        <time>2021-01-12T15:46:12Z</time>
      </trkpt>
      <trkpt lat="43.4968" lon="5.55583">
        <ele>333</ele>
        <time>2021-01-12T15:46:15Z</time>
      </trkpt>
      <trkpt lat="43.49679" lon="5.55587">
        <ele>333</ele>
        <time>2021-01-12T15:46:17Z</time>
      </trkpt>
      <trkpt lat="43.49679" lon="5.5559">
        <ele>333</ele>
        <time>2021-01-12T15:46:20Z</time>
      </trkpt>
      <trkpt lat="43.49679" lon="5.55592">
        <ele>334</ele>
        <time>2021-01-12T15:46:22Z</time>
      </trkpt>
      <trkpt lat="43.49679" lon="5.55596">
        <ele>334</ele>
        <time>2021-01-12T15:46:25Z</time>
      </trkpt>
      <trkpt lat="43.49679" lon="5.55599">
        <ele>335</ele>
        <time>2021-01-12T15:46:28Z</time>
      </trkpt>
      <trkpt lat="43.49678" lon="5.55602">
        <ele>336</ele>
        <time>2021-01-12T15:46:31Z</time>
      </trkpt>
      <trkpt lat="43.49679" lon="5.55606">
        <ele>335</ele>
        <time>2021-01-12T15:46:34Z</time>
      </trkpt>
      <trkpt lat="43.49679" lon="5.55608">
        <ele>336</ele>
        <time>2021-01-12T15:46:36Z</time>
      </trkpt>
      <trkpt lat="43.49679" lon="5.55612">
        <ele>334</ele>
        <time>2021-01-12T15:46:38Z</time>
      </trkpt>
      <trkpt lat="43.49679" lon="5.55615">
        <ele>334</ele>
        <time>2021-01-12T15:46:40Z</time>
      </trkpt>
      <trkpt lat="43.49679" lon="5.55618">
        <ele>334</ele>
        <time>2021-01-12T15:46:43Z</time>
      </trkpt>
      <trkpt lat="43.4968" lon="5.55621">
        <ele>334</ele>
        <time>2021-01-12T15:46:46Z</time>
      </trkpt>
      <trkpt lat="43.4968" lon="5.55624">
        <ele>334</ele>
        <time>2021-01-12T15:46:48Z</time>
      </trkpt>
      <trkpt lat="43.49679" lon="5.55627">
        <ele>334</ele>
        <time>2021-01-12T15:46:50Z</time>
      </trkpt>
      <trkpt lat="43.49679" lon="5.5563">
        <ele>335</ele>
        <time>2021-01-12T15:46:53Z</time>
      </trkpt>
      <trkpt lat="43.49679" lon="5.55633">
        <ele>335</ele>
        <time>2021-01-12T15:46:55Z</time>
      </trkpt>
      <trkpt lat="43.49679" lon="5.55636">
        <ele>335</ele>
        <time>2021-01-12T15:46:57Z</time>
      </trkpt>
      <trkpt lat="43.49679" lon="5.55639">
        <ele>334</ele>
        <time>2021-01-12T15:46:59Z</time>
      </trkpt>
      <trkpt lat="43.49679" lon="5.55642">
        <ele>334</ele>
        <time>2021-01-12T15:47:02Z</time>
      </trkpt>
      <trkpt lat="43.49678" lon="5.55645">
        <ele>334</ele>
        <time>2021-01-12T15:47:04Z</time>
      </trkpt>
      <trkpt lat="43.49678" lon="5.55648">
        <ele>334</ele>
        <time>2021-01-12T15:47:06Z</time>
      </trkpt>
      <trkpt lat="43.49677" lon="5.5565">
        <ele>334</ele>
        <time>2021-01-12T15:47:08Z</time>
      </trkpt>
      <trkpt lat="43.49676" lon="5.55653">
        <ele>334</ele>
        <time>2021-01-12T15:47:10Z</time>
      </trkpt>
      <trkpt lat="43.49676" lon="5.55656">
        <ele>335</ele>
        <time>2021-01-12T15:47:12Z</time>
      </trkpt>
      <trkpt lat="43.49676" lon="5.55658">
        <ele>334</ele>
        <time>2021-01-12T15:47:14Z</time>
      </trkpt>
      <trkpt lat="43.49676" lon="5.55662">
        <ele>334</ele>
        <time>2021-01-12T15:47:17Z</time>
      </trkpt>
      <trkpt lat="43.49676" lon="5.55665">
        <ele>333</ele>
        <time>2021-01-12T15:47:19Z</time>
      </trkpt>
      <trkpt lat="43.49675" lon="5.55668">
        <ele>334</ele>
        <time>2021-01-12T15:47:21Z</time>
      </trkpt>
      <trkpt lat="43.49675" lon="5.55671">
        <ele>334</ele>
        <time>2021-01-12T15:47:25Z</time>
      </trkpt>
    </trkseg>
  </trk>
</gpx>